<?xml version="1.0" encoding="UTF-8" standalone="no" ?>
<gpx xmlns="http://www.topografix.com/GPX/1/1" xmlns:xsi="http://www.w3.org/2001/XMLSchema-instance" xsi:schemaLocation="http://www.topografix.com/GPX/1/1 http://www.topografix.com/GPX/1/1/gpx.xsd" version="1.1" creator="VisuGPX - https://www.visugpx.com">
  <metadata>
    <name>R.A.F. 2021 / 1100 km</name>
  </metadata>
  <trk>
    <name><![CDATA[R.A.F. 2021 / 1100 km]]></name>
    <extensions>
      <line xmlns="http://www.topografix.com/GPX/gpx_style/0/2">
        <color>0000FF</color>
        <width>4</width>
      </line>
    </extensions>
    <trkseg>
      <trkpt lat="44.39083" lon="4.9608">
        <ele>205</ele>
        <time>2021-03-27T15:41:31.263Z</time>
      </trkpt>
      <trkpt lat="44.39128" lon="4.95466">
        <ele>201</ele>
        <time>2021-03-27T15:43:05.989Z</time>
      </trkpt>
      <trkpt lat="44.39135" lon="4.95384">
        <ele>200</ele>
        <time>2021-03-27T15:43:17.449Z</time>
      </trkpt>
      <trkpt lat="44.39145" lon="4.95303">
        <ele>199</ele>
        <time>2021-03-27T15:43:28.844Z</time>
      </trkpt>
      <trkpt lat="44.39214" lon="4.94845">
        <ele>200</ele>
        <time>2021-03-27T15:45:38.204Z</time>
      </trkpt>
      <trkpt lat="44.3923" lon="4.94778">
        <ele>198</ele>
        <time>2021-03-27T15:45:45.887Z</time>
      </trkpt>
      <trkpt lat="44.39256" lon="4.94696">
        <ele>194</ele>
        <time>2021-03-27T15:45:53.904Z</time>
      </trkpt>
      <trkpt lat="44.39435" lon="4.94262">
        <ele>182</ele>
        <time>2021-03-27T15:46:51.776Z</time>
      </trkpt>
      <trkpt lat="44.39455" lon="4.94222">
        <ele>182</ele>
        <time>2021-03-27T15:47:04.898Z</time>
      </trkpt>
      <trkpt lat="44.39468" lon="4.94211">
        <ele>182</ele>
        <time>2021-03-27T15:47:10.613Z</time>
      </trkpt>
      <trkpt lat="44.39471" lon="4.94201">
        <ele>182</ele>
        <time>2021-03-27T15:47:13.528Z</time>
      </trkpt>
      <trkpt lat="44.3947" lon="4.9419">
        <ele>182</ele>
        <time>2021-03-27T15:47:16.509Z</time>
      </trkpt>
      <trkpt lat="44.39471" lon="4.94181">
        <ele>182</ele>
        <time>2021-03-27T15:47:18.957Z</time>
      </trkpt>
      <trkpt lat="44.39481" lon="4.94151">
        <ele>181</ele>
        <time>2021-03-27T15:47:22.468Z</time>
      </trkpt>
      <trkpt lat="44.39615" lon="4.93826">
        <ele>180</ele>
        <time>2021-03-27T15:48:57.871Z</time>
      </trkpt>
      <trkpt lat="44.39633" lon="4.93779">
        <ele>180</ele>
        <time>2021-03-27T15:49:12.204Z</time>
      </trkpt>
      <trkpt lat="44.39649" lon="4.93731">
        <ele>180</ele>
        <time>2021-03-27T15:49:26.440Z</time>
      </trkpt>
      <trkpt lat="44.39672" lon="4.93648">
        <ele>182</ele>
        <time>2021-03-27T15:50:00.046Z</time>
      </trkpt>
      <trkpt lat="44.39692" lon="4.93558">
        <ele>184</ele>
        <time>2021-03-27T15:50:34.846Z</time>
      </trkpt>
      <trkpt lat="44.39709" lon="4.93458">
        <ele>184</ele>
        <time>2021-03-27T15:51:02.474Z</time>
      </trkpt>
      <trkpt lat="44.39721" lon="4.93358">
        <ele>180</ele>
        <time>2021-03-27T15:51:12.075Z</time>
      </trkpt>
      <trkpt lat="44.39728" lon="4.93246">
        <ele>178</ele>
        <time>2021-03-27T15:51:26.299Z</time>
      </trkpt>
      <trkpt lat="44.39729" lon="4.9321">
        <ele>178</ele>
        <time>2021-03-27T15:51:35.982Z</time>
      </trkpt>
      <trkpt lat="44.39725" lon="4.93135">
        <ele>178</ele>
        <time>2021-03-27T15:51:56.196Z</time>
      </trkpt>
      <trkpt lat="44.39707" lon="4.9285">
        <ele>177</ele>
        <time>2021-03-27T15:53:07.734Z</time>
      </trkpt>
      <trkpt lat="44.39697" lon="4.92782">
        <ele>176</ele>
        <time>2021-03-27T15:53:17.005Z</time>
      </trkpt>
      <trkpt lat="44.39699" lon="4.92769">
        <ele>176</ele>
        <time>2021-03-27T15:53:20.579Z</time>
      </trkpt>
      <trkpt lat="44.39697" lon="4.92763">
        <ele>176</ele>
        <time>2021-03-27T15:53:22.358Z</time>
      </trkpt>
      <trkpt lat="44.3969" lon="4.92753">
        <ele>176</ele>
        <time>2021-03-27T15:53:26.121Z</time>
      </trkpt>
      <trkpt lat="44.39681" lon="4.92751">
        <ele>176</ele>
        <time>2021-03-27T15:53:29.549Z</time>
      </trkpt>
      <trkpt lat="44.39661" lon="4.92732">
        <ele>176</ele>
        <time>2021-03-27T15:53:38.642Z</time>
      </trkpt>
      <trkpt lat="44.39657" lon="4.92722">
        <ele>176</ele>
        <time>2021-03-27T15:53:41.722Z</time>
      </trkpt>
      <trkpt lat="44.39653" lon="4.92707">
        <ele>176</ele>
        <time>2021-03-27T15:53:46.026Z</time>
      </trkpt>
      <trkpt lat="44.39656" lon="4.92664">
        <ele>176</ele>
        <time>2021-03-27T15:53:57.638Z</time>
      </trkpt>
      <trkpt lat="44.3966" lon="4.92375">
        <ele>174</ele>
        <time>2021-03-27T15:54:41.632Z</time>
      </trkpt>
      <trkpt lat="44.39661" lon="4.92333">
        <ele>174</ele>
        <time>2021-03-27T15:54:52.927Z</time>
      </trkpt>
      <trkpt lat="44.39695" lon="4.92143">
        <ele>174</ele>
        <time>2021-03-27T15:55:45.571Z</time>
      </trkpt>
      <trkpt lat="44.39699" lon="4.92107">
        <ele>176</ele>
        <time>2021-03-27T15:56:06.346Z</time>
      </trkpt>
      <trkpt lat="44.39703" lon="4.92079">
        <ele>177</ele>
        <time>2021-03-27T15:56:19.679Z</time>
      </trkpt>
      <trkpt lat="44.39708" lon="4.92062">
        <ele>177</ele>
        <time>2021-03-27T15:56:24.620Z</time>
      </trkpt>
      <trkpt lat="44.39713" lon="4.92047">
        <ele>178</ele>
        <time>2021-03-27T15:56:34.676Z</time>
      </trkpt>
      <trkpt lat="44.39722" lon="4.92033">
        <ele>179</ele>
        <time>2021-03-27T15:56:45.204Z</time>
      </trkpt>
      <trkpt lat="44.39732" lon="4.92021">
        <ele>179</ele>
        <time>2021-03-27T15:56:50.159Z</time>
      </trkpt>
      <trkpt lat="44.39752" lon="4.92004">
        <ele>181</ele>
        <time>2021-03-27T15:57:10.211Z</time>
      </trkpt>
      <trkpt lat="44.39776" lon="4.9199">
        <ele>183</ele>
        <time>2021-03-27T15:57:30.976Z</time>
      </trkpt>
      <trkpt lat="44.39877" lon="4.91962">
        <ele>187</ele>
        <time>2021-03-27T15:58:31.103Z</time>
      </trkpt>
      <trkpt lat="44.39906" lon="4.91947">
        <ele>187</ele>
        <time>2021-03-27T15:58:42.733Z</time>
      </trkpt>
      <trkpt lat="44.39947" lon="4.91921">
        <ele>188</ele>
        <time>2021-03-27T15:59:03.991Z</time>
      </trkpt>
      <trkpt lat="44.40041" lon="4.91878">
        <ele>193</ele>
        <time>2021-03-27T16:00:09.278Z</time>
      </trkpt>
      <trkpt lat="44.40108" lon="4.91824">
        <ele>193</ele>
        <time>2021-03-27T16:00:38.361Z</time>
      </trkpt>
      <trkpt lat="44.4013" lon="4.9181">
        <ele>194</ele>
        <time>2021-03-27T16:00:53.001Z</time>
      </trkpt>
      <trkpt lat="44.40204" lon="4.91772">
        <ele>197</ele>
        <time>2021-03-27T16:01:38.521Z</time>
      </trkpt>
      <trkpt lat="44.40325" lon="4.91678">
        <ele>202</ele>
        <time>2021-03-27T16:02:56.328Z</time>
      </trkpt>
      <trkpt lat="44.40391" lon="4.91623">
        <ele>205</ele>
        <time>2021-03-27T16:03:41.317Z</time>
      </trkpt>
      <trkpt lat="44.4067" lon="4.91469">
        <ele>199</ele>
        <time>2021-03-27T16:04:37.467Z</time>
      </trkpt>
      <trkpt lat="44.4071" lon="4.91458">
        <ele>197</ele>
        <time>2021-03-27T16:04:43.159Z</time>
      </trkpt>
      <trkpt lat="44.40749" lon="4.91478">
        <ele>197</ele>
        <time>2021-03-27T16:04:58.783Z</time>
      </trkpt>
      <trkpt lat="44.40783" lon="4.91507">
        <ele>195</ele>
        <time>2021-03-27T16:05:04.287Z</time>
      </trkpt>
      <trkpt lat="44.40798" lon="4.91535">
        <ele>194</ele>
        <time>2021-03-27T16:05:08.079Z</time>
      </trkpt>
      <trkpt lat="44.40806" lon="4.91565">
        <ele>193</ele>
        <time>2021-03-27T16:05:11.430Z</time>
      </trkpt>
      <trkpt lat="44.40813" lon="4.91624">
        <ele>189</ele>
        <time>2021-03-27T16:05:17.074Z</time>
      </trkpt>
      <trkpt lat="44.40823" lon="4.91655">
        <ele>185</ele>
        <time>2021-03-27T16:05:20.283Z</time>
      </trkpt>
      <trkpt lat="44.40837" lon="4.91672">
        <ele>181</ele>
        <time>2021-03-27T16:05:22.731Z</time>
      </trkpt>
      <trkpt lat="44.40869" lon="4.91712">
        <ele>178</ele>
        <time>2021-03-27T16:05:28.398Z</time>
      </trkpt>
      <trkpt lat="44.40938" lon="4.9178">
        <ele>182</ele>
        <time>2021-03-27T16:06:22.973Z</time>
      </trkpt>
      <trkpt lat="44.40981" lon="4.91797">
        <ele>183</ele>
        <time>2021-03-27T16:06:44.115Z</time>
      </trkpt>
      <trkpt lat="44.4114" lon="4.918">
        <ele>189</ele>
        <time>2021-03-27T16:08:15.525Z</time>
      </trkpt>
      <trkpt lat="44.41234" lon="4.91792">
        <ele>191</ele>
        <time>2021-03-27T16:08:59.505Z</time>
      </trkpt>
      <trkpt lat="44.41334" lon="4.91745">
        <ele>190</ele>
        <time>2021-03-27T16:09:22.036Z</time>
      </trkpt>
      <trkpt lat="44.4135" lon="4.91728">
        <ele>190</ele>
        <time>2021-03-27T16:09:29.592Z</time>
      </trkpt>
      <trkpt lat="44.41364" lon="4.91711">
        <ele>190</ele>
        <time>2021-03-27T16:09:36.563Z</time>
      </trkpt>
      <trkpt lat="44.41384" lon="4.9167">
        <ele>189</ele>
        <time>2021-03-27T16:09:42.621Z</time>
      </trkpt>
      <trkpt lat="44.41428" lon="4.91625">
        <ele>188</ele>
        <time>2021-03-27T16:09:53.025Z</time>
      </trkpt>
      <trkpt lat="44.41504" lon="4.91563">
        <ele>190</ele>
        <time>2021-03-27T16:10:34.817Z</time>
      </trkpt>
      <trkpt lat="44.41534" lon="4.91529">
        <ele>191</ele>
        <time>2021-03-27T16:10:53.854Z</time>
      </trkpt>
      <trkpt lat="44.41569" lon="4.91469">
        <ele>193</ele>
        <time>2021-03-27T16:11:24.971Z</time>
      </trkpt>
      <trkpt lat="44.4159" lon="4.91427">
        <ele>192</ele>
        <time>2021-03-27T16:11:31.286Z</time>
      </trkpt>
      <trkpt lat="44.416" lon="4.91391">
        <ele>192</ele>
        <time>2021-03-27T16:11:41.665Z</time>
      </trkpt>
      <trkpt lat="44.41609" lon="4.91294">
        <ele>187</ele>
        <time>2021-03-27T16:11:50.894Z</time>
      </trkpt>
      <trkpt lat="44.4161" lon="4.91272">
        <ele>187</ele>
        <time>2021-03-27T16:11:56.817Z</time>
      </trkpt>
      <trkpt lat="44.41616" lon="4.9123">
        <ele>186</ele>
        <time>2021-03-27T16:12:01.803Z</time>
      </trkpt>
      <trkpt lat="44.41628" lon="4.91189">
        <ele>187</ele>
        <time>2021-03-27T16:12:18.557Z</time>
      </trkpt>
      <trkpt lat="44.41663" lon="4.91113">
        <ele>190</ele>
        <time>2021-03-27T16:13:00.075Z</time>
      </trkpt>
      <trkpt lat="44.41671" lon="4.91096">
        <ele>191</ele>
        <time>2021-03-27T16:13:10.981Z</time>
      </trkpt>
      <trkpt lat="44.41696" lon="4.9105">
        <ele>192</ele>
        <time>2021-03-27T16:13:30.939Z</time>
      </trkpt>
      <trkpt lat="44.41801" lon="4.91043">
        <ele>194</ele>
        <time>2021-03-27T16:14:18.827Z</time>
      </trkpt>
      <trkpt lat="44.41927" lon="4.9103">
        <ele>197</ele>
        <time>2021-03-27T16:15:19.563Z</time>
      </trkpt>
      <trkpt lat="44.41967" lon="4.91033">
        <ele>195</ele>
        <time>2021-03-27T16:15:25.115Z</time>
      </trkpt>
      <trkpt lat="44.41985" lon="4.91021">
        <ele>196</ele>
        <time>2021-03-27T16:15:38.242Z</time>
      </trkpt>
      <trkpt lat="44.4203" lon="4.90982">
        <ele>197</ele>
        <time>2021-03-27T16:16:02.317Z</time>
      </trkpt>
      <trkpt lat="44.42045" lon="4.90958">
        <ele>198</ele>
        <time>2021-03-27T16:16:16.648Z</time>
      </trkpt>
      <trkpt lat="44.42068" lon="4.90938">
        <ele>198</ele>
        <time>2021-03-27T16:16:26.833Z</time>
      </trkpt>
      <trkpt lat="44.42089" lon="4.9091">
        <ele>199</ele>
        <time>2021-03-27T16:16:42.778Z</time>
      </trkpt>
      <trkpt lat="44.42097" lon="4.90893">
        <ele>200</ele>
        <time>2021-03-27T16:16:53.683Z</time>
      </trkpt>
      <trkpt lat="44.421" lon="4.90876">
        <ele>200</ele>
        <time>2021-03-27T16:16:58.388Z</time>
      </trkpt>
      <trkpt lat="44.42089" lon="4.90854">
        <ele>201</ele>
        <time>2021-03-27T16:17:11.183Z</time>
      </trkpt>
      <trkpt lat="44.42147" lon="4.90831">
        <ele>201</ele>
        <time>2021-03-27T16:17:33.859Z</time>
      </trkpt>
      <trkpt lat="44.42226" lon="4.90802">
        <ele>202</ele>
        <time>2021-03-27T16:18:08.462Z</time>
      </trkpt>
      <trkpt lat="44.42569" lon="4.90681">
        <ele>214</ele>
        <time>2021-03-27T16:21:21.509Z</time>
      </trkpt>
      <trkpt lat="44.42621" lon="4.90675">
        <ele>212</ele>
        <time>2021-03-27T16:21:29.549Z</time>
      </trkpt>
      <trkpt lat="44.42708" lon="4.90674">
        <ele>209</ele>
        <time>2021-03-27T16:21:43.474Z</time>
      </trkpt>
      <trkpt lat="44.4287" lon="4.90675">
        <ele>217</ele>
        <time>2021-03-27T16:23:29.602Z</time>
      </trkpt>
      <trkpt lat="44.42882" lon="4.90675">
        <ele>218</ele>
        <time>2021-03-27T16:23:39.701Z</time>
      </trkpt>
      <trkpt lat="44.42892" lon="4.90675">
        <ele>219</ele>
        <time>2021-03-27T16:23:49.483Z</time>
      </trkpt>
      <trkpt lat="44.4294" lon="4.90672">
        <ele>220</ele>
        <time>2021-03-27T16:24:11.814Z</time>
      </trkpt>
      <trkpt lat="44.42968" lon="4.90668">
        <ele>220</ele>
        <time>2021-03-27T16:24:22.402Z</time>
      </trkpt>
      <trkpt lat="44.43013" lon="4.90646">
        <ele>219</ele>
        <time>2021-03-27T16:24:31.225Z</time>
      </trkpt>
      <trkpt lat="44.4304" lon="4.9062">
        <ele>216</ele>
        <time>2021-03-27T16:24:35.553Z</time>
      </trkpt>
      <trkpt lat="44.43053" lon="4.90594">
        <ele>216</ele>
        <time>2021-03-27T16:24:44.079Z</time>
      </trkpt>
      <trkpt lat="44.43058" lon="4.90572">
        <ele>216</ele>
        <time>2021-03-27T16:24:50.281Z</time>
      </trkpt>
      <trkpt lat="44.43061" lon="4.90512">
        <ele>215</ele>
        <time>2021-03-27T16:24:58.025Z</time>
      </trkpt>
      <trkpt lat="44.43067" lon="4.90498">
        <ele>214</ele>
        <time>2021-03-27T16:24:59.565Z</time>
      </trkpt>
      <trkpt lat="44.43074" lon="4.9049">
        <ele>213</ele>
        <time>2021-03-27T16:25:00.758Z</time>
      </trkpt>
      <trkpt lat="44.43086" lon="4.90489">
        <ele>212</ele>
        <time>2021-03-27T16:25:02.346Z</time>
      </trkpt>
      <trkpt lat="44.43097" lon="4.90497">
        <ele>211</ele>
        <time>2021-03-27T16:25:03.983Z</time>
      </trkpt>
      <trkpt lat="44.43122" lon="4.90551">
        <ele>208</ele>
        <time>2021-03-27T16:25:09.604Z</time>
      </trkpt>
      <trkpt lat="44.43151" lon="4.90603">
        <ele>205</ele>
        <time>2021-03-27T16:25:15.437Z</time>
      </trkpt>
      <trkpt lat="44.43177" lon="4.90639">
        <ele>203</ele>
        <time>2021-03-27T16:25:20.303Z</time>
      </trkpt>
      <trkpt lat="44.43212" lon="4.9068">
        <ele>201</ele>
        <time>2021-03-27T16:25:26.981Z</time>
      </trkpt>
      <trkpt lat="44.43279" lon="4.90727">
        <ele>198</ele>
        <time>2021-03-27T16:25:38.342Z</time>
      </trkpt>
      <trkpt lat="44.43315" lon="4.90745">
        <ele>196</ele>
        <time>2021-03-27T16:25:43.532Z</time>
      </trkpt>
      <trkpt lat="44.4334" lon="4.90738">
        <ele>193</ele>
        <time>2021-03-27T16:25:46.900Z</time>
      </trkpt>
      <trkpt lat="44.43414" lon="4.90675">
        <ele>187</ele>
        <time>2021-03-27T16:25:58.339Z</time>
      </trkpt>
      <trkpt lat="44.43417" lon="4.90672">
        <ele>187</ele>
        <time>2021-03-27T16:25:59.725Z</time>
      </trkpt>
      <trkpt lat="44.43437" lon="4.90655">
        <ele>188</ele>
        <time>2021-03-27T16:26:14.189Z</time>
      </trkpt>
      <trkpt lat="44.43483" lon="4.90615">
        <ele>191</ele>
        <time>2021-03-27T16:26:51.111Z</time>
      </trkpt>
      <trkpt lat="44.43491" lon="4.90608">
        <ele>191</ele>
        <time>2021-03-27T16:26:54.660Z</time>
      </trkpt>
      <trkpt lat="44.43501" lon="4.90601">
        <ele>192</ele>
        <time>2021-03-27T16:27:04.576Z</time>
      </trkpt>
      <trkpt lat="44.43502" lon="4.90612">
        <ele>192</ele>
        <time>2021-03-27T16:27:07.555Z</time>
      </trkpt>
      <trkpt lat="44.43505" lon="4.90622">
        <ele>192</ele>
        <time>2021-03-27T16:27:10.468Z</time>
      </trkpt>
      <trkpt lat="44.43607" lon="4.90835">
        <ele>199</ele>
        <time>2021-03-27T16:28:56.469Z</time>
      </trkpt>
      <trkpt lat="44.43678" lon="4.91055">
        <ele>200</ele>
        <time>2021-03-27T16:30:04.955Z</time>
      </trkpt>
      <trkpt lat="44.43703" lon="4.91118">
        <ele>200</ele>
        <time>2021-03-27T16:30:24.314Z</time>
      </trkpt>
      <trkpt lat="44.43731" lon="4.91173">
        <ele>202</ele>
        <time>2021-03-27T16:30:53.568Z</time>
      </trkpt>
      <trkpt lat="44.43775" lon="4.91251">
        <ele>204</ele>
        <time>2021-03-27T16:31:29.556Z</time>
      </trkpt>
      <trkpt lat="44.43813" lon="4.91304">
        <ele>207</ele>
        <time>2021-03-27T16:32:06.259Z</time>
      </trkpt>
      <trkpt lat="44.43882" lon="4.9138">
        <ele>209</ele>
        <time>2021-03-27T16:32:47.989Z</time>
      </trkpt>
      <trkpt lat="44.44306" lon="4.91756">
        <ele>222</ele>
        <time>2021-03-27T16:36:55.494Z</time>
      </trkpt>
      <trkpt lat="44.44412" lon="4.91852">
        <ele>224</ele>
        <time>2021-03-27T16:37:51.038Z</time>
      </trkpt>
      <trkpt lat="44.44428" lon="4.91871">
        <ele>225</ele>
        <time>2021-03-27T16:38:04.628Z</time>
      </trkpt>
      <trkpt lat="44.44453" lon="4.91913">
        <ele>227</ele>
        <time>2021-03-27T16:38:30.515Z</time>
      </trkpt>
      <trkpt lat="44.4463" lon="4.9228">
        <ele>233</ele>
        <time>2021-03-27T16:40:54.480Z</time>
      </trkpt>
      <trkpt lat="44.44666" lon="4.92338">
        <ele>234</ele>
        <time>2021-03-27T16:41:19.256Z</time>
      </trkpt>
      <trkpt lat="44.44836" lon="4.92579">
        <ele>240</ele>
        <time>2021-03-27T16:43:16.992Z</time>
      </trkpt>
      <trkpt lat="44.44881" lon="4.92661">
        <ele>239</ele>
        <time>2021-03-27T16:43:31.949Z</time>
      </trkpt>
      <trkpt lat="44.44933" lon="4.92691">
        <ele>241</ele>
        <time>2021-03-27T16:44:03.325Z</time>
      </trkpt>
      <trkpt lat="44.45006" lon="4.92718">
        <ele>241</ele>
        <time>2021-03-27T16:44:31.726Z</time>
      </trkpt>
      <trkpt lat="44.45014" lon="4.92724">
        <ele>241</ele>
        <time>2021-03-27T16:44:35.140Z</time>
      </trkpt>
      <trkpt lat="44.4502" lon="4.92733">
        <ele>240</ele>
        <time>2021-03-27T16:44:36.301Z</time>
      </trkpt>
      <trkpt lat="44.45026" lon="4.9275">
        <ele>239</ele>
        <time>2021-03-27T16:44:38.089Z</time>
      </trkpt>
      <trkpt lat="44.45033" lon="4.92785">
        <ele>240</ele>
        <time>2021-03-27T16:44:53.175Z</time>
      </trkpt>
      <trkpt lat="44.45037" lon="4.92807">
        <ele>241</ele>
        <time>2021-03-27T16:45:04.720Z</time>
      </trkpt>
      <trkpt lat="44.45037" lon="4.92821">
        <ele>241</ele>
        <time>2021-03-27T16:45:08.480Z</time>
      </trkpt>
      <trkpt lat="44.45035" lon="4.92837">
        <ele>242</ele>
        <time>2021-03-27T16:45:18.482Z</time>
      </trkpt>
      <trkpt lat="44.45027" lon="4.92851">
        <ele>242</ele>
        <time>2021-03-27T16:45:23.297Z</time>
      </trkpt>
      <trkpt lat="44.44956" lon="4.92936">
        <ele>243</ele>
        <time>2021-03-27T16:46:02.250Z</time>
      </trkpt>
      <trkpt lat="44.44948" lon="4.92951">
        <ele>243</ele>
        <time>2021-03-27T16:46:07.278Z</time>
      </trkpt>
      <trkpt lat="44.44944" lon="4.92967">
        <ele>243</ele>
        <time>2021-03-27T16:46:11.831Z</time>
      </trkpt>
      <trkpt lat="44.44945" lon="4.92978">
        <ele>244</ele>
        <time>2021-03-27T16:46:22.246Z</time>
      </trkpt>
      <trkpt lat="44.44945" lon="4.92983">
        <ele>244</ele>
        <time>2021-03-27T16:46:23.589Z</time>
      </trkpt>
      <trkpt lat="44.4495" lon="4.92999">
        <ele>246</ele>
        <time>2021-03-27T16:46:41.680Z</time>
      </trkpt>
      <trkpt lat="44.44961" lon="4.93009">
        <ele>247</ele>
        <time>2021-03-27T16:46:52.098Z</time>
      </trkpt>
      <trkpt lat="44.45072" lon="4.93036">
        <ele>254</ele>
        <time>2021-03-27T16:48:12.601Z</time>
      </trkpt>
      <trkpt lat="44.45082" lon="4.93041">
        <ele>255</ele>
        <time>2021-03-27T16:48:22.430Z</time>
      </trkpt>
      <trkpt lat="44.45114" lon="4.93068">
        <ele>256</ele>
        <time>2021-03-27T16:48:41.047Z</time>
      </trkpt>
      <trkpt lat="44.45122" lon="4.93033">
        <ele>258</ele>
        <time>2021-03-27T16:49:01.885Z</time>
      </trkpt>
      <trkpt lat="44.45131" lon="4.93005">
        <ele>259</ele>
        <time>2021-03-27T16:49:15.901Z</time>
      </trkpt>
      <trkpt lat="44.45139" lon="4.92988">
        <ele>259</ele>
        <time>2021-03-27T16:49:21.369Z</time>
      </trkpt>
      <trkpt lat="44.45149" lon="4.92973">
        <ele>259</ele>
        <time>2021-03-27T16:49:26.880Z</time>
      </trkpt>
      <trkpt lat="44.45164" lon="4.92961">
        <ele>259</ele>
        <time>2021-03-27T16:49:33.378Z</time>
      </trkpt>
      <trkpt lat="44.45181" lon="4.9295">
        <ele>259</ele>
        <time>2021-03-27T16:49:40.422Z</time>
      </trkpt>
      <trkpt lat="44.45206" lon="4.92941">
        <ele>259</ele>
        <time>2021-03-27T16:49:50.132Z</time>
      </trkpt>
      <trkpt lat="44.45235" lon="4.92934">
        <ele>258</ele>
        <time>2021-03-27T16:49:54.865Z</time>
      </trkpt>
      <trkpt lat="44.45256" lon="4.92932">
        <ele>258</ele>
        <time>2021-03-27T16:50:02.783Z</time>
      </trkpt>
      <trkpt lat="44.45276" lon="4.92934">
        <ele>259</ele>
        <time>2021-03-27T16:50:15.961Z</time>
      </trkpt>
      <trkpt lat="44.45329" lon="4.92944">
        <ele>262</ele>
        <time>2021-03-27T16:50:52.600Z</time>
      </trkpt>
      <trkpt lat="44.45376" lon="4.9295">
        <ele>266</ele>
        <time>2021-03-27T16:51:32.796Z</time>
      </trkpt>
      <trkpt lat="44.45468" lon="4.92944">
        <ele>268</ele>
        <time>2021-03-27T16:52:16.043Z</time>
      </trkpt>
      <trkpt lat="44.45498" lon="4.92944">
        <ele>269</ele>
        <time>2021-03-27T16:52:32.288Z</time>
      </trkpt>
      <trkpt lat="44.45524" lon="4.92948">
        <ele>269</ele>
        <time>2021-03-27T16:52:42.128Z</time>
      </trkpt>
      <trkpt lat="44.45558" lon="4.92958">
        <ele>271</ele>
        <time>2021-03-27T16:53:06.171Z</time>
      </trkpt>
      <trkpt lat="44.45687" lon="4.9301">
        <ele>276</ele>
        <time>2021-03-27T16:54:22.816Z</time>
      </trkpt>
      <trkpt lat="44.45805" lon="4.93087">
        <ele>282</ele>
        <time>2021-03-27T16:55:46.300Z</time>
      </trkpt>
      <trkpt lat="44.45851" lon="4.93117">
        <ele>284</ele>
        <time>2021-03-27T16:56:16.172Z</time>
      </trkpt>
      <trkpt lat="44.45904" lon="4.93143">
        <ele>285</ele>
        <time>2021-03-27T16:56:41.412Z</time>
      </trkpt>
      <trkpt lat="44.4668" lon="4.93526">
        <ele>318</ele>
        <time>2021-03-27T17:04:50.643Z</time>
      </trkpt>
      <trkpt lat="44.46694" lon="4.93539">
        <ele>320</ele>
        <time>2021-03-27T17:05:10.826Z</time>
      </trkpt>
      <trkpt lat="44.46701" lon="4.93547">
        <ele>321</ele>
        <time>2021-03-27T17:05:20.691Z</time>
      </trkpt>
      <trkpt lat="44.46725" lon="4.93581">
        <ele>324</ele>
        <time>2021-03-27T17:05:50.556Z</time>
      </trkpt>
      <trkpt lat="44.46818" lon="4.93745">
        <ele>331</ele>
        <time>2021-03-27T17:07:26.880Z</time>
      </trkpt>
      <trkpt lat="44.46844" lon="4.93778">
        <ele>332</ele>
        <time>2021-03-27T17:07:44.739Z</time>
      </trkpt>
      <trkpt lat="44.46918" lon="4.93829">
        <ele>336</ele>
        <time>2021-03-27T17:08:38.455Z</time>
      </trkpt>
      <trkpt lat="44.4694" lon="4.93853">
        <ele>339</ele>
        <time>2021-03-27T17:09:07.910Z</time>
      </trkpt>
      <trkpt lat="44.46953" lon="4.93877">
        <ele>341</ele>
        <time>2021-03-27T17:09:27.604Z</time>
      </trkpt>
      <trkpt lat="44.46969" lon="4.93911">
        <ele>343</ele>
        <time>2021-03-27T17:09:49.408Z</time>
      </trkpt>
      <trkpt lat="44.46986" lon="4.93961">
        <ele>344</ele>
        <time>2021-03-27T17:10:08.761Z</time>
      </trkpt>
      <trkpt lat="44.47003" lon="4.93993">
        <ele>346</ele>
        <time>2021-03-27T17:10:30.352Z</time>
      </trkpt>
      <trkpt lat="44.47022" lon="4.94016">
        <ele>347</ele>
        <time>2021-03-27T17:10:45.221Z</time>
      </trkpt>
      <trkpt lat="44.47042" lon="4.94035">
        <ele>348</ele>
        <time>2021-03-27T17:10:59.859Z</time>
      </trkpt>
      <trkpt lat="44.47105" lon="4.94076">
        <ele>353</ele>
        <time>2021-03-27T17:11:53.236Z</time>
      </trkpt>
      <trkpt lat="44.47139" lon="4.94094">
        <ele>355</ele>
        <time>2021-03-27T17:12:17.957Z</time>
      </trkpt>
      <trkpt lat="44.47167" lon="4.94102">
        <ele>358</ele>
        <time>2021-03-27T17:12:47.337Z</time>
      </trkpt>
      <trkpt lat="44.47491" lon="4.94149">
        <ele>375</ele>
        <time>2021-03-27T17:16:24.707Z</time>
      </trkpt>
      <trkpt lat="44.47517" lon="4.94157">
        <ele>376</ele>
        <time>2021-03-27T17:16:39.974Z</time>
      </trkpt>
      <trkpt lat="44.47539" lon="4.94169">
        <ele>376</ele>
        <time>2021-03-27T17:16:48.855Z</time>
      </trkpt>
      <trkpt lat="44.47699" lon="4.94265">
        <ele>385</ele>
        <time>2021-03-27T17:18:44.632Z</time>
      </trkpt>
      <trkpt lat="44.47724" lon="4.94271">
        <ele>386</ele>
        <time>2021-03-27T17:18:59.566Z</time>
      </trkpt>
      <trkpt lat="44.47786" lon="4.94271">
        <ele>392</ele>
        <time>2021-03-27T17:19:58.368Z</time>
      </trkpt>
      <trkpt lat="44.47814" lon="4.94277">
        <ele>393</ele>
        <time>2021-03-27T17:20:14.115Z</time>
      </trkpt>
      <trkpt lat="44.4784" lon="4.94294">
        <ele>393</ele>
        <time>2021-03-27T17:20:24.908Z</time>
      </trkpt>
      <trkpt lat="44.47864" lon="4.94297">
        <ele>396</ele>
        <time>2021-03-27T17:20:55.873Z</time>
      </trkpt>
      <trkpt lat="44.47949" lon="4.94294">
        <ele>404</ele>
        <time>2021-03-27T17:22:14.518Z</time>
      </trkpt>
      <trkpt lat="44.47973" lon="4.94296">
        <ele>406</ele>
        <time>2021-03-27T17:22:34.726Z</time>
      </trkpt>
      <trkpt lat="44.48" lon="4.94304">
        <ele>407</ele>
        <time>2021-03-27T17:22:50.264Z</time>
      </trkpt>
      <trkpt lat="44.48024" lon="4.94321">
        <ele>408</ele>
        <time>2021-03-27T17:23:05.605Z</time>
      </trkpt>
      <trkpt lat="44.48069" lon="4.94359">
        <ele>409</ele>
        <time>2021-03-27T17:23:29.541Z</time>
      </trkpt>
      <trkpt lat="44.48088" lon="4.94371">
        <ele>410</ele>
        <time>2021-03-27T17:23:43.070Z</time>
      </trkpt>
      <trkpt lat="44.48107" lon="4.94378">
        <ele>409</ele>
        <time>2021-03-27T17:23:45.770Z</time>
      </trkpt>
      <trkpt lat="44.48137" lon="4.9438">
        <ele>408</ele>
        <time>2021-03-27T17:23:50.635Z</time>
      </trkpt>
      <trkpt lat="44.48162" lon="4.94376">
        <ele>409</ele>
        <time>2021-03-27T17:24:05.518Z</time>
      </trkpt>
      <trkpt lat="44.48186" lon="4.94364">
        <ele>410</ele>
        <time>2021-03-27T17:24:20.483Z</time>
      </trkpt>
      <trkpt lat="44.48296" lon="4.94288">
        <ele>419</ele>
        <time>2021-03-27T17:25:55.746Z</time>
      </trkpt>
      <trkpt lat="44.48342" lon="4.94275">
        <ele>421</ele>
        <time>2021-03-27T17:26:24.702Z</time>
      </trkpt>
      <trkpt lat="44.48467" lon="4.94275">
        <ele>425</ele>
        <time>2021-03-27T17:27:31.221Z</time>
      </trkpt>
      <trkpt lat="44.48525" lon="4.94251">
        <ele>434</ele>
        <time>2021-03-27T17:28:58.966Z</time>
      </trkpt>
      <trkpt lat="44.48555" lon="4.94246">
        <ele>436</ele>
        <time>2021-03-27T17:29:21.197Z</time>
      </trkpt>
      <trkpt lat="44.48579" lon="4.94255">
        <ele>437</ele>
        <time>2021-03-27T17:29:36.001Z</time>
      </trkpt>
      <trkpt lat="44.48636" lon="4.94306">
        <ele>435</ele>
        <time>2021-03-27T17:29:47.384Z</time>
      </trkpt>
      <trkpt lat="44.48664" lon="4.94326">
        <ele>436</ele>
        <time>2021-03-27T17:30:04.068Z</time>
      </trkpt>
      <trkpt lat="44.48685" lon="4.94332">
        <ele>438</ele>
        <time>2021-03-27T17:30:23.752Z</time>
      </trkpt>
      <trkpt lat="44.48697" lon="4.94335">
        <ele>439</ele>
        <time>2021-03-27T17:30:33.900Z</time>
      </trkpt>
      <trkpt lat="44.48778" lon="4.94333">
        <ele>449</ele>
        <time>2021-03-27T17:32:16.605Z</time>
      </trkpt>
      <trkpt lat="44.48806" lon="4.94353">
        <ele>449</ele>
        <time>2021-03-27T17:32:28.427Z</time>
      </trkpt>
      <trkpt lat="44.48883" lon="4.94412">
        <ele>452</ele>
        <time>2021-03-27T17:33:16.486Z</time>
      </trkpt>
      <trkpt lat="44.48909" lon="4.94428">
        <ele>453</ele>
        <time>2021-03-27T17:33:32.254Z</time>
      </trkpt>
      <trkpt lat="44.48937" lon="4.9443">
        <ele>456</ele>
        <time>2021-03-27T17:34:01.689Z</time>
      </trkpt>
      <trkpt lat="44.49024" lon="4.94407">
        <ele>464</ele>
        <time>2021-03-27T17:35:20.859Z</time>
      </trkpt>
      <trkpt lat="44.49106" lon="4.94403">
        <ele>465</ele>
        <time>2021-03-27T17:35:55.602Z</time>
      </trkpt>
      <trkpt lat="44.49153" lon="4.94395">
        <ele>466</ele>
        <time>2021-03-27T17:36:17.684Z</time>
      </trkpt>
      <trkpt lat="44.49198" lon="4.94364">
        <ele>467</ele>
        <time>2021-03-27T17:36:40.761Z</time>
      </trkpt>
      <trkpt lat="44.49224" lon="4.94334">
        <ele>469</ele>
        <time>2021-03-27T17:37:04.363Z</time>
      </trkpt>
      <trkpt lat="44.49249" lon="4.9428">
        <ele>473</ele>
        <time>2021-03-27T17:37:44.270Z</time>
      </trkpt>
      <trkpt lat="44.49265" lon="4.9422">
        <ele>477</ele>
        <time>2021-03-27T17:38:24.129Z</time>
      </trkpt>
      <trkpt lat="44.49272" lon="4.94194">
        <ele>478</ele>
        <time>2021-03-27T17:38:37.206Z</time>
      </trkpt>
      <trkpt lat="44.49321" lon="4.94011">
        <ele>485</ele>
        <time>2021-03-27T17:40:09.041Z</time>
      </trkpt>
      <trkpt lat="44.49337" lon="4.93975">
        <ele>483</ele>
        <time>2021-03-27T17:40:12.719Z</time>
      </trkpt>
      <trkpt lat="44.49341" lon="4.93965">
        <ele>482</ele>
        <time>2021-03-27T17:40:13.799Z</time>
      </trkpt>
      <trkpt lat="44.49367" lon="4.9394">
        <ele>482</ele>
        <time>2021-03-27T17:40:25.659Z</time>
      </trkpt>
      <trkpt lat="44.4945" lon="4.93894">
        <ele>484</ele>
        <time>2021-03-27T17:41:07.903Z</time>
      </trkpt>
      <trkpt lat="44.49462" lon="4.93878">
        <ele>484</ele>
        <time>2021-03-27T17:41:14.133Z</time>
      </trkpt>
      <trkpt lat="44.49467" lon="4.93865">
        <ele>484</ele>
        <time>2021-03-27T17:41:18.096Z</time>
      </trkpt>
      <trkpt lat="44.49469" lon="4.93843">
        <ele>484</ele>
        <time>2021-03-27T17:41:24.047Z</time>
      </trkpt>
      <trkpt lat="44.49463" lon="4.93812">
        <ele>482</ele>
        <time>2021-03-27T17:41:27.073Z</time>
      </trkpt>
      <trkpt lat="44.49462" lon="4.93779">
        <ele>481</ele>
        <time>2021-03-27T17:41:30.566Z</time>
      </trkpt>
      <trkpt lat="44.49489" lon="4.93677">
        <ele>482</ele>
        <time>2021-03-27T17:42:03.665Z</time>
      </trkpt>
      <trkpt lat="44.49497" lon="4.93658">
        <ele>481</ele>
        <time>2021-03-27T17:42:05.616Z</time>
      </trkpt>
      <trkpt lat="44.49523" lon="4.93616">
        <ele>479</ele>
        <time>2021-03-27T17:42:11.090Z</time>
      </trkpt>
      <trkpt lat="44.49543" lon="4.93606">
        <ele>479</ele>
        <time>2021-03-27T17:42:19.078Z</time>
      </trkpt>
      <trkpt lat="44.49561" lon="4.93612">
        <ele>479</ele>
        <time>2021-03-27T17:42:26.038Z</time>
      </trkpt>
      <trkpt lat="44.49609" lon="4.93642">
        <ele>481</ele>
        <time>2021-03-27T17:42:56.386Z</time>
      </trkpt>
      <trkpt lat="44.49627" lon="4.93648">
        <ele>481</ele>
        <time>2021-03-27T17:43:03.346Z</time>
      </trkpt>
      <trkpt lat="44.49649" lon="4.93642">
        <ele>480</ele>
        <time>2021-03-27T17:43:06.602Z</time>
      </trkpt>
      <trkpt lat="44.49685" lon="4.93609">
        <ele>475</ele>
        <time>2021-03-27T17:43:12.284Z</time>
      </trkpt>
      <trkpt lat="44.49704" lon="4.93604">
        <ele>473</ele>
        <time>2021-03-27T17:43:14.837Z</time>
      </trkpt>
      <trkpt lat="44.49711" lon="4.93609">
        <ele>473</ele>
        <time>2021-03-27T17:43:17.792Z</time>
      </trkpt>
      <trkpt lat="44.49721" lon="4.93614">
        <ele>472</ele>
        <time>2021-03-27T17:43:19.195Z</time>
      </trkpt>
      <trkpt lat="44.49737" lon="4.9364">
        <ele>471</ele>
        <time>2021-03-27T17:43:22.881Z</time>
      </trkpt>
      <trkpt lat="44.49747" lon="4.93683">
        <ele>472</ele>
        <time>2021-03-27T17:43:39.828Z</time>
      </trkpt>
      <trkpt lat="44.49757" lon="4.93712">
        <ele>472</ele>
        <time>2021-03-27T17:43:48.470Z</time>
      </trkpt>
      <trkpt lat="44.49767" lon="4.93721">
        <ele>471</ele>
        <time>2021-03-27T17:43:50.040Z</time>
      </trkpt>
      <trkpt lat="44.49779" lon="4.93724">
        <ele>470</ele>
        <time>2021-03-27T17:43:51.650Z</time>
      </trkpt>
      <trkpt lat="44.49799" lon="4.93717">
        <ele>468</ele>
        <time>2021-03-27T17:43:54.373Z</time>
      </trkpt>
      <trkpt lat="44.49863" lon="4.93655">
        <ele>463</ele>
        <time>2021-03-27T17:44:03.961Z</time>
      </trkpt>
      <trkpt lat="44.49908" lon="4.9364">
        <ele>461</ele>
        <time>2021-03-27T17:44:10.766Z</time>
      </trkpt>
      <trkpt lat="44.49955" lon="4.93626">
        <ele>458</ele>
        <time>2021-03-27T17:44:16.773Z</time>
      </trkpt>
      <trkpt lat="44.50006" lon="4.93623">
        <ele>454</ele>
        <time>2021-03-27T17:44:23.516Z</time>
      </trkpt>
      <trkpt lat="44.50027" lon="4.93629">
        <ele>452</ele>
        <time>2021-03-27T17:44:26.347Z</time>
      </trkpt>
      <trkpt lat="44.50037" lon="4.9365">
        <ele>451</ele>
        <time>2021-03-27T17:44:28.727Z</time>
      </trkpt>
      <trkpt lat="44.50035" lon="4.93675">
        <ele>451</ele>
        <time>2021-03-27T17:44:35.477Z</time>
      </trkpt>
      <trkpt lat="44.50012" lon="4.93707">
        <ele>449</ele>
        <time>2021-03-27T17:44:39.550Z</time>
      </trkpt>
      <trkpt lat="44.49994" lon="4.93733">
        <ele>448</ele>
        <time>2021-03-27T17:44:43.519Z</time>
      </trkpt>
      <trkpt lat="44.49986" lon="4.93758">
        <ele>448</ele>
        <time>2021-03-27T17:44:50.871Z</time>
      </trkpt>
      <trkpt lat="44.49979" lon="4.93833">
        <ele>446</ele>
        <time>2021-03-27T17:44:59.287Z</time>
      </trkpt>
      <trkpt lat="44.49977" lon="4.93858">
        <ele>444</ele>
        <time>2021-03-27T17:45:01.657Z</time>
      </trkpt>
      <trkpt lat="44.49969" lon="4.93943">
        <ele>439</ele>
        <time>2021-03-27T17:45:09.735Z</time>
      </trkpt>
      <trkpt lat="44.49963" lon="4.94027">
        <ele>436</ele>
        <time>2021-03-27T17:45:18.088Z</time>
      </trkpt>
      <trkpt lat="44.49968" lon="4.94053">
        <ele>434</ele>
        <time>2021-03-27T17:45:20.625Z</time>
      </trkpt>
      <trkpt lat="44.49984" lon="4.94074">
        <ele>433</ele>
        <time>2021-03-27T17:45:23.780Z</time>
      </trkpt>
      <trkpt lat="44.50092" lon="4.94143">
        <ele>430</ele>
        <time>2021-03-27T17:45:44.707Z</time>
      </trkpt>
      <trkpt lat="44.50198" lon="4.94211">
        <ele>424</ele>
        <time>2021-03-27T17:46:00.649Z</time>
      </trkpt>
      <trkpt lat="44.50221" lon="4.94225">
        <ele>424</ele>
        <time>2021-03-27T17:46:10.081Z</time>
      </trkpt>
      <trkpt lat="44.50235" lon="4.94225">
        <ele>423</ele>
        <time>2021-03-27T17:46:11.930Z</time>
      </trkpt>
      <trkpt lat="44.50248" lon="4.94217">
        <ele>421</ele>
        <time>2021-03-27T17:46:13.806Z</time>
      </trkpt>
      <trkpt lat="44.50275" lon="4.94175">
        <ele>418</ele>
        <time>2021-03-27T17:46:19.133Z</time>
      </trkpt>
      <trkpt lat="44.50292" lon="4.94158">
        <ele>417</ele>
        <time>2021-03-27T17:46:22.079Z</time>
      </trkpt>
      <trkpt lat="44.50314" lon="4.94147">
        <ele>416</ele>
        <time>2021-03-27T17:46:25.529Z</time>
      </trkpt>
      <trkpt lat="44.50447" lon="4.94103">
        <ele>415</ele>
        <time>2021-03-27T17:46:55.586Z</time>
      </trkpt>
      <trkpt lat="44.50483" lon="4.94074">
        <ele>414</ele>
        <time>2021-03-27T17:47:03.004Z</time>
      </trkpt>
      <trkpt lat="44.50568" lon="4.93967">
        <ele>407</ele>
        <time>2021-03-27T17:47:17.415Z</time>
      </trkpt>
      <trkpt lat="44.50674" lon="4.93871">
        <ele>393</ele>
        <time>2021-03-27T17:47:34.084Z</time>
      </trkpt>
      <trkpt lat="44.50702" lon="4.93859">
        <ele>390</ele>
        <time>2021-03-27T17:47:37.951Z</time>
      </trkpt>
      <trkpt lat="44.50733" lon="4.93858">
        <ele>391</ele>
        <time>2021-03-27T17:47:54.506Z</time>
      </trkpt>
      <trkpt lat="44.50772" lon="4.93847">
        <ele>389</ele>
        <time>2021-03-27T17:48:00.002Z</time>
      </trkpt>
      <trkpt lat="44.50807" lon="4.93824">
        <ele>386</ele>
        <time>2021-03-27T17:48:05.108Z</time>
      </trkpt>
      <trkpt lat="44.50838" lon="4.93795">
        <ele>380</ele>
        <time>2021-03-27T17:48:10.031Z</time>
      </trkpt>
      <trkpt lat="44.50882" lon="4.93725">
        <ele>368</ele>
        <time>2021-03-27T17:48:18.820Z</time>
      </trkpt>
      <trkpt lat="44.50895" lon="4.93718">
        <ele>368</ele>
        <time>2021-03-27T17:48:24.059Z</time>
      </trkpt>
      <trkpt lat="44.50915" lon="4.93716">
        <ele>369</ele>
        <time>2021-03-27T17:48:37.236Z</time>
      </trkpt>
      <trkpt lat="44.50937" lon="4.93727">
        <ele>368</ele>
        <time>2021-03-27T17:48:40.686Z</time>
      </trkpt>
      <trkpt lat="44.50945" lon="4.93737">
        <ele>369</ele>
        <time>2021-03-27T17:48:50.529Z</time>
      </trkpt>
      <trkpt lat="44.50948" lon="4.93752">
        <ele>371</ele>
        <time>2021-03-27T17:49:06.648Z</time>
      </trkpt>
      <trkpt lat="44.50943" lon="4.93771">
        <ele>376</ele>
        <time>2021-03-27T17:49:27.603Z</time>
      </trkpt>
      <trkpt lat="44.50942" lon="4.93791">
        <ele>380</ele>
        <time>2021-03-27T17:49:48.349Z</time>
      </trkpt>
      <trkpt lat="44.50952" lon="4.93808">
        <ele>383</ele>
        <time>2021-03-27T17:50:11.151Z</time>
      </trkpt>
      <trkpt lat="44.50967" lon="4.9381">
        <ele>382</ele>
        <time>2021-03-27T17:50:12.978Z</time>
      </trkpt>
      <trkpt lat="44.51113" lon="4.93767">
        <ele>361</ele>
        <time>2021-03-27T17:50:32.684Z</time>
      </trkpt>
      <trkpt lat="44.51214" lon="4.93782">
        <ele>363</ele>
        <time>2021-03-27T17:51:19.298Z</time>
      </trkpt>
      <trkpt lat="44.51282" lon="4.93779">
        <ele>362</ele>
        <time>2021-03-27T17:51:32.881Z</time>
      </trkpt>
      <trkpt lat="44.51449" lon="4.93736">
        <ele>346</ele>
        <time>2021-03-27T17:51:55.309Z</time>
      </trkpt>
      <trkpt lat="44.5149" lon="4.93738">
        <ele>343</ele>
        <time>2021-03-27T17:52:00.728Z</time>
      </trkpt>
      <trkpt lat="44.51517" lon="4.93746">
        <ele>342</ele>
        <time>2021-03-27T17:52:05.068Z</time>
      </trkpt>
      <trkpt lat="44.51577" lon="4.93774">
        <ele>343</ele>
        <time>2021-03-27T17:52:32.884Z</time>
      </trkpt>
      <trkpt lat="44.51635" lon="4.93781">
        <ele>337</ele>
        <time>2021-03-27T17:52:40.574Z</time>
      </trkpt>
      <trkpt lat="44.51744" lon="4.93805">
        <ele>325</ele>
        <time>2021-03-27T17:52:55.148Z</time>
      </trkpt>
      <trkpt lat="44.51757" lon="4.93818">
        <ele>326</ele>
        <time>2021-03-27T17:53:06.598Z</time>
      </trkpt>
      <trkpt lat="44.51766" lon="4.93837">
        <ele>327</ele>
        <time>2021-03-27T17:53:18.166Z</time>
      </trkpt>
      <trkpt lat="44.51772" lon="4.9398">
        <ele>328</ele>
        <time>2021-03-27T17:54:00.374Z</time>
      </trkpt>
      <trkpt lat="44.51765" lon="4.94003">
        <ele>328</ele>
        <time>2021-03-27T17:54:07.081Z</time>
      </trkpt>
      <trkpt lat="44.51728" lon="4.94042">
        <ele>332</ele>
        <time>2021-03-27T17:54:47.067Z</time>
      </trkpt>
      <trkpt lat="44.51726" lon="4.94058">
        <ele>331</ele>
        <time>2021-03-27T17:54:48.597Z</time>
      </trkpt>
      <trkpt lat="44.51732" lon="4.94076">
        <ele>328</ele>
        <time>2021-03-27T17:54:50.469Z</time>
      </trkpt>
      <trkpt lat="44.51744" lon="4.94077">
        <ele>327</ele>
        <time>2021-03-27T17:54:52.057Z</time>
      </trkpt>
      <trkpt lat="44.5183" lon="4.94016">
        <ele>320</ele>
        <time>2021-03-27T17:55:04.787Z</time>
      </trkpt>
      <trkpt lat="44.51839" lon="4.94003">
        <ele>320</ele>
        <time>2021-03-27T17:55:09.647Z</time>
      </trkpt>
      <trkpt lat="44.51841" lon="4.93988">
        <ele>321</ele>
        <time>2021-03-27T17:55:19.512Z</time>
      </trkpt>
      <trkpt lat="44.51834" lon="4.93961">
        <ele>319</ele>
        <time>2021-03-27T17:55:22.218Z</time>
      </trkpt>
      <trkpt lat="44.51834" lon="4.93925">
        <ele>319</ele>
        <time>2021-03-27T17:55:31.874Z</time>
      </trkpt>
      <trkpt lat="44.51869" lon="4.93765">
        <ele>312</ele>
        <time>2021-03-27T17:55:47.247Z</time>
      </trkpt>
      <trkpt lat="44.51881" lon="4.93734">
        <ele>310</ele>
        <time>2021-03-27T17:55:50.570Z</time>
      </trkpt>
      <trkpt lat="44.51895" lon="4.93719">
        <ele>309</ele>
        <time>2021-03-27T17:55:52.875Z</time>
      </trkpt>
      <trkpt lat="44.51957" lon="4.93687">
        <ele>309</ele>
        <time>2021-03-27T17:56:17.726Z</time>
      </trkpt>
      <trkpt lat="44.52006" lon="4.93665">
        <ele>306</ele>
        <time>2021-03-27T17:56:24.373Z</time>
      </trkpt>
      <trkpt lat="44.52025" lon="4.93659">
        <ele>307</ele>
        <time>2021-03-27T17:56:37.297Z</time>
      </trkpt>
      <trkpt lat="44.52061" lon="4.9366">
        <ele>308</ele>
        <time>2021-03-27T17:56:55.463Z</time>
      </trkpt>
      <trkpt lat="44.52125" lon="4.93647">
        <ele>303</ele>
        <time>2021-03-27T17:57:04.005Z</time>
      </trkpt>
      <trkpt lat="44.52137" lon="4.93651">
        <ele>301</ele>
        <time>2021-03-27T17:57:05.635Z</time>
      </trkpt>
      <trkpt lat="44.52184" lon="4.93697">
        <ele>311</ele>
        <time>2021-03-27T17:58:28.791Z</time>
      </trkpt>
      <trkpt lat="44.52195" lon="4.937">
        <ele>310</ele>
        <time>2021-03-27T17:58:30.271Z</time>
      </trkpt>
      <trkpt lat="44.52245" lon="4.93695">
        <ele>302</ele>
        <time>2021-03-27T17:58:36.892Z</time>
      </trkpt>
      <trkpt lat="44.52259" lon="4.93698">
        <ele>301</ele>
        <time>2021-03-27T17:58:38.763Z</time>
      </trkpt>
      <trkpt lat="44.52281" lon="4.93713">
        <ele>305</ele>
        <time>2021-03-27T17:59:14.256Z</time>
      </trkpt>
      <trkpt lat="44.52293" lon="4.93713">
        <ele>304</ele>
        <time>2021-03-27T17:59:15.841Z</time>
      </trkpt>
      <trkpt lat="44.523" lon="4.93708">
        <ele>303</ele>
        <time>2021-03-27T17:59:16.878Z</time>
      </trkpt>
      <trkpt lat="44.52316" lon="4.93677">
        <ele>296</ele>
        <time>2021-03-27T17:59:20.483Z</time>
      </trkpt>
      <trkpt lat="44.52331" lon="4.93663">
        <ele>293</ele>
        <time>2021-03-27T17:59:22.862Z</time>
      </trkpt>
      <trkpt lat="44.52457" lon="4.93592">
        <ele>286</ele>
        <time>2021-03-27T17:59:41.420Z</time>
      </trkpt>
      <trkpt lat="44.52624" lon="4.93498">
        <ele>275</ele>
        <time>2021-03-27T18:00:04.149Z</time>
      </trkpt>
      <trkpt lat="44.52732" lon="4.93435">
        <ele>274</ele>
        <time>2021-03-27T18:00:29.447Z</time>
      </trkpt>
      <trkpt lat="44.52786" lon="4.9339">
        <ele>270</ele>
        <time>2021-03-27T18:00:37.224Z</time>
      </trkpt>
      <trkpt lat="44.52835" lon="4.93349">
        <ele>267</ele>
        <time>2021-03-27T18:00:44.953Z</time>
      </trkpt>
      <trkpt lat="44.53007" lon="4.93211">
        <ele>252</ele>
        <time>2021-03-27T18:01:11.127Z</time>
      </trkpt>
      <trkpt lat="44.53045" lon="4.93202">
        <ele>250</ele>
        <time>2021-03-27T18:01:16.378Z</time>
      </trkpt>
      <trkpt lat="44.53253" lon="4.93247">
        <ele>244</ele>
        <time>2021-03-27T18:01:52.208Z</time>
      </trkpt>
      <trkpt lat="44.53267" lon="4.9325">
        <ele>244</ele>
        <time>2021-03-27T18:01:57.536Z</time>
      </trkpt>
      <trkpt lat="44.53347" lon="4.93267">
        <ele>240</ele>
        <time>2021-03-27T18:02:08.798Z</time>
      </trkpt>
      <trkpt lat="44.5336" lon="4.9327">
        <ele>239</ele>
        <time>2021-03-27T18:02:10.538Z</time>
      </trkpt>
      <trkpt lat="44.53367" lon="4.93272">
        <ele>239</ele>
        <time>2021-03-27T18:02:13.225Z</time>
      </trkpt>
      <trkpt lat="44.53544" lon="4.93309">
        <ele>232</ele>
        <time>2021-03-27T18:02:40.596Z</time>
      </trkpt>
      <trkpt lat="44.53774" lon="4.93358">
        <ele>227</ele>
        <time>2021-03-27T18:03:23.405Z</time>
      </trkpt>
      <trkpt lat="44.53808" lon="4.93365">
        <ele>226</ele>
        <time>2021-03-27T18:03:29.219Z</time>
      </trkpt>
      <trkpt lat="44.53838" lon="4.93372">
        <ele>225</ele>
        <time>2021-03-27T18:03:34.165Z</time>
      </trkpt>
      <trkpt lat="44.54324" lon="4.93478">
        <ele>213</ele>
        <time>2021-03-27T18:05:01.739Z</time>
      </trkpt>
      <trkpt lat="44.54346" lon="4.93483">
        <ele>213</ele>
        <time>2021-03-27T18:05:10.122Z</time>
      </trkpt>
      <trkpt lat="44.54473" lon="4.93506">
        <ele>220</ele>
        <time>2021-03-27T18:06:37.005Z</time>
      </trkpt>
      <trkpt lat="44.54485" lon="4.93509">
        <ele>221</ele>
        <time>2021-03-27T18:06:47.153Z</time>
      </trkpt>
      <trkpt lat="44.54497" lon="4.93512">
        <ele>222</ele>
        <time>2021-03-27T18:06:57.301Z</time>
      </trkpt>
      <trkpt lat="44.54513" lon="4.93516">
        <ele>223</ele>
        <time>2021-03-27T18:07:08.864Z</time>
      </trkpt>
      <trkpt lat="44.54528" lon="4.93521">
        <ele>224</ele>
        <time>2021-03-27T18:07:20.099Z</time>
      </trkpt>
      <trkpt lat="44.54538" lon="4.93523">
        <ele>225</ele>
        <time>2021-03-27T18:07:29.885Z</time>
      </trkpt>
      <trkpt lat="44.54555" lon="4.93529">
        <ele>226</ele>
        <time>2021-03-27T18:07:41.973Z</time>
      </trkpt>
      <trkpt lat="44.54594" lon="4.93538">
        <ele>229</ele>
        <time>2021-03-27T18:08:13.284Z</time>
      </trkpt>
      <trkpt lat="44.54641" lon="4.93551">
        <ele>232</ele>
        <time>2021-03-27T18:08:47.635Z</time>
      </trkpt>
      <trkpt lat="44.54661" lon="4.9356">
        <ele>234</ele>
        <time>2021-03-27T18:09:07.267Z</time>
      </trkpt>
      <trkpt lat="44.54666" lon="4.93562">
        <ele>234</ele>
        <time>2021-03-27T18:09:09.223Z</time>
      </trkpt>
      <trkpt lat="44.54682" lon="4.9357">
        <ele>234</ele>
        <time>2021-03-27T18:09:15.612Z</time>
      </trkpt>
      <trkpt lat="44.54725" lon="4.93611">
        <ele>238</ele>
        <time>2021-03-27T18:09:57.138Z</time>
      </trkpt>
      <trkpt lat="44.54738" lon="4.93624">
        <ele>240</ele>
        <time>2021-03-27T18:10:17.860Z</time>
      </trkpt>
      <trkpt lat="44.54741" lon="4.93626">
        <ele>240</ele>
        <time>2021-03-27T18:10:19.109Z</time>
      </trkpt>
      <trkpt lat="44.54747" lon="4.93633">
        <ele>241</ele>
        <time>2021-03-27T18:10:29.628Z</time>
      </trkpt>
      <trkpt lat="44.54755" lon="4.93642">
        <ele>241</ele>
        <time>2021-03-27T18:10:33.485Z</time>
      </trkpt>
      <trkpt lat="44.54767" lon="4.93658">
        <ele>242</ele>
        <time>2021-03-27T18:10:45.170Z</time>
      </trkpt>
      <trkpt lat="44.54781" lon="4.93671">
        <ele>242</ele>
        <time>2021-03-27T18:10:51.486Z</time>
      </trkpt>
      <trkpt lat="44.5479" lon="4.9368">
        <ele>243</ele>
        <time>2021-03-27T18:11:01.379Z</time>
      </trkpt>
      <trkpt lat="44.54864" lon="4.93746">
        <ele>247</ele>
        <time>2021-03-27T18:11:57.444Z</time>
      </trkpt>
      <trkpt lat="44.54879" lon="4.93751">
        <ele>247</ele>
        <time>2021-03-27T18:12:03.243Z</time>
      </trkpt>
      <trkpt lat="44.54894" lon="4.9375">
        <ele>247</ele>
        <time>2021-03-27T18:12:08.892Z</time>
      </trkpt>
      <trkpt lat="44.54907" lon="4.93745">
        <ele>247</ele>
        <time>2021-03-27T18:12:13.963Z</time>
      </trkpt>
      <trkpt lat="44.54922" lon="4.93724">
        <ele>246</ele>
        <time>2021-03-27T18:12:16.971Z</time>
      </trkpt>
      <trkpt lat="44.5494" lon="4.9369">
        <ele>246</ele>
        <time>2021-03-27T18:12:28.325Z</time>
      </trkpt>
      <trkpt lat="44.54956" lon="4.93664">
        <ele>245</ele>
        <time>2021-03-27T18:12:32.008Z</time>
      </trkpt>
      <trkpt lat="44.5496" lon="4.93658">
        <ele>245</ele>
        <time>2021-03-27T18:12:34.211Z</time>
      </trkpt>
      <trkpt lat="44.5499" lon="4.93644">
        <ele>245</ele>
        <time>2021-03-27T18:12:46.104Z</time>
      </trkpt>
      <trkpt lat="44.55046" lon="4.93658">
        <ele>248</ele>
        <time>2021-03-27T18:13:24.202Z</time>
      </trkpt>
      <trkpt lat="44.5515" lon="4.93655">
        <ele>249</ele>
        <time>2021-03-27T18:14:07.110Z</time>
      </trkpt>
      <trkpt lat="44.55195" lon="4.93663">
        <ele>248</ele>
        <time>2021-03-27T18:14:15.404Z</time>
      </trkpt>
      <trkpt lat="44.55275" lon="4.93688">
        <ele>246</ele>
        <time>2021-03-27T18:14:29.997Z</time>
      </trkpt>
      <trkpt lat="44.553" lon="4.93699">
        <ele>247</ele>
        <time>2021-03-27T18:14:45.150Z</time>
      </trkpt>
      <trkpt lat="44.55326" lon="4.93715">
        <ele>248</ele>
        <time>2021-03-27T18:15:00.917Z</time>
      </trkpt>
      <trkpt lat="44.55345" lon="4.93739">
        <ele>249</ele>
        <time>2021-03-27T18:15:15.902Z</time>
      </trkpt>
      <trkpt lat="44.55364" lon="4.93771">
        <ele>252</ele>
        <time>2021-03-27T18:15:45.244Z</time>
      </trkpt>
      <trkpt lat="44.55371" lon="4.93778">
        <ele>251</ele>
        <time>2021-03-27T18:15:46.380Z</time>
      </trkpt>
      <trkpt lat="44.55383" lon="4.93792">
        <ele>251</ele>
        <time>2021-03-27T18:15:52.250Z</time>
      </trkpt>
      <trkpt lat="44.55431" lon="4.93838">
        <ele>248</ele>
        <time>2021-03-27T18:16:00.190Z</time>
      </trkpt>
      <trkpt lat="44.55467" lon="4.93867">
        <ele>246</ele>
        <time>2021-03-27T18:16:06.031Z</time>
      </trkpt>
      <trkpt lat="44.55502" lon="4.93894">
        <ele>243</ele>
        <time>2021-03-27T18:16:11.307Z</time>
      </trkpt>
      <trkpt lat="44.55583" lon="4.93955">
        <ele>241</ele>
        <time>2021-03-27T18:16:28.171Z</time>
      </trkpt>
      <trkpt lat="44.55611" lon="4.93975">
        <ele>240</ele>
        <time>2021-03-27T18:16:33.337Z</time>
      </trkpt>
      <trkpt lat="44.55638" lon="4.93991">
        <ele>240</ele>
        <time>2021-03-27T18:16:44.362Z</time>
      </trkpt>
      <trkpt lat="44.55663" lon="4.94001">
        <ele>239</ele>
        <time>2021-03-27T18:16:48.363Z</time>
      </trkpt>
      <trkpt lat="44.55705" lon="4.9401">
        <ele>238</ele>
        <time>2021-03-27T18:16:56.001Z</time>
      </trkpt>
      <trkpt lat="44.55762" lon="4.9403">
        <ele>237</ele>
        <time>2021-03-27T18:17:07.401Z</time>
      </trkpt>
      <trkpt lat="44.55822" lon="4.94056">
        <ele>235</ele>
        <time>2021-03-27T18:17:17.724Z</time>
      </trkpt>
      <trkpt lat="44.55859" lon="4.94077">
        <ele>235</ele>
        <time>2021-03-27T18:17:32.737Z</time>
      </trkpt>
      <trkpt lat="44.55907" lon="4.94111">
        <ele>231</ele>
        <time>2021-03-27T18:17:39.839Z</time>
      </trkpt>
      <trkpt lat="44.55981" lon="4.94149">
        <ele>228</ele>
        <time>2021-03-27T18:17:52.013Z</time>
      </trkpt>
      <trkpt lat="44.5611" lon="4.94207">
        <ele>220</ele>
        <time>2021-03-27T18:18:09.408Z</time>
      </trkpt>
      <trkpt lat="44.56179" lon="4.94228">
        <ele>218</ele>
        <time>2021-03-27T18:18:21.451Z</time>
      </trkpt>
      <trkpt lat="44.56373" lon="4.94245">
        <ele>209</ele>
        <time>2021-03-27T18:18:49.266Z</time>
      </trkpt>
      <trkpt lat="44.56419" lon="4.94248">
        <ele>207</ele>
        <time>2021-03-27T18:18:56.030Z</time>
      </trkpt>
      <trkpt lat="44.56432" lon="4.94249">
        <ele>207</ele>
        <time>2021-03-27T18:19:00.927Z</time>
      </trkpt>
      <trkpt lat="44.5653" lon="4.94255">
        <ele>206</ele>
        <time>2021-03-27T18:19:21.681Z</time>
      </trkpt>
      <trkpt lat="44.5656" lon="4.94261">
        <ele>207</ele>
        <time>2021-03-27T18:19:38.018Z</time>
      </trkpt>
      <trkpt lat="44.56918" lon="4.9441">
        <ele>219</ele>
        <time>2021-03-27T18:22:57.078Z</time>
      </trkpt>
      <trkpt lat="44.56966" lon="4.94439">
        <ele>218</ele>
        <time>2021-03-27T18:23:06.963Z</time>
      </trkpt>
      <trkpt lat="44.58295" lon="4.95311">
        <ele>221</ele>
        <time>2021-03-27T18:32:29.333Z</time>
      </trkpt>
      <trkpt lat="44.58685" lon="4.95574">
        <ele>226</ele>
        <time>2021-03-27T18:35:31.350Z</time>
      </trkpt>
      <trkpt lat="44.58746" lon="4.95601">
        <ele>226</ele>
        <time>2021-03-27T18:35:55.410Z</time>
      </trkpt>
      <trkpt lat="44.5877" lon="4.95607">
        <ele>226</ele>
        <time>2021-03-27T18:36:04.580Z</time>
      </trkpt>
      <trkpt lat="44.58802" lon="4.95608">
        <ele>226</ele>
        <time>2021-03-27T18:36:16.620Z</time>
      </trkpt>
      <trkpt lat="44.58837" lon="4.95605">
        <ele>226</ele>
        <time>2021-03-27T18:36:29.810Z</time>
      </trkpt>
      <trkpt lat="44.58868" lon="4.95593">
        <ele>226</ele>
        <time>2021-03-27T18:36:41.907Z</time>
      </trkpt>
      <trkpt lat="44.58897" lon="4.9558">
        <ele>226</ele>
        <time>2021-03-27T18:36:53.358Z</time>
      </trkpt>
      <trkpt lat="44.58921" lon="4.95564">
        <ele>225</ele>
        <time>2021-03-27T18:36:57.480Z</time>
      </trkpt>
      <trkpt lat="44.59169" lon="4.95319">
        <ele>219</ele>
        <time>2021-03-27T18:37:54.397Z</time>
      </trkpt>
      <trkpt lat="44.59194" lon="4.95296">
        <ele>218</ele>
        <time>2021-03-27T18:37:59.230Z</time>
      </trkpt>
      <trkpt lat="44.592" lon="4.95301">
        <ele>219</ele>
        <time>2021-03-27T18:38:09.353Z</time>
      </trkpt>
      <trkpt lat="44.59207" lon="4.95298">
        <ele>219</ele>
        <time>2021-03-27T18:38:12.106Z</time>
      </trkpt>
      <trkpt lat="44.59209" lon="4.95294">
        <ele>219</ele>
        <time>2021-03-27T18:38:13.416Z</time>
      </trkpt>
      <trkpt lat="44.59209" lon="4.95285">
        <ele>218</ele>
        <time>2021-03-27T18:38:14.262Z</time>
      </trkpt>
      <trkpt lat="44.593" lon="4.95195">
        <ele>214</ele>
        <time>2021-03-27T18:38:31.821Z</time>
      </trkpt>
      <trkpt lat="44.59313" lon="4.95178">
        <ele>213</ele>
        <time>2021-03-27T18:38:34.154Z</time>
      </trkpt>
      <trkpt lat="44.59323" lon="4.9515">
        <ele>213</ele>
        <time>2021-03-27T18:38:42.545Z</time>
      </trkpt>
      <trkpt lat="44.59328" lon="4.95105">
        <ele>212</ele>
        <time>2021-03-27T18:38:47.933Z</time>
      </trkpt>
      <trkpt lat="44.59341" lon="4.95058">
        <ele>210</ele>
        <time>2021-03-27T18:38:52.671Z</time>
      </trkpt>
      <trkpt lat="44.59367" lon="4.95036">
        <ele>207</ele>
        <time>2021-03-27T18:38:56.681Z</time>
      </trkpt>
      <trkpt lat="44.5939" lon="4.95033">
        <ele>204</ele>
        <time>2021-03-27T18:38:59.732Z</time>
      </trkpt>
      <trkpt lat="44.59402" lon="4.95038">
        <ele>203</ele>
        <time>2021-03-27T18:39:01.385Z</time>
      </trkpt>
      <trkpt lat="44.59415" lon="4.95048">
        <ele>201</ele>
        <time>2021-03-27T18:39:03.343Z</time>
      </trkpt>
      <trkpt lat="44.59481" lon="4.95116">
        <ele>198</ele>
        <time>2021-03-27T18:39:16.166Z</time>
      </trkpt>
      <trkpt lat="44.59489" lon="4.95123">
        <ele>199</ele>
        <time>2021-03-27T18:39:25.969Z</time>
      </trkpt>
      <trkpt lat="44.59533" lon="4.95131">
        <ele>198</ele>
        <time>2021-03-27T18:39:34.036Z</time>
      </trkpt>
      <trkpt lat="44.59768" lon="4.95086">
        <ele>200</ele>
        <time>2021-03-27T18:41:10.722Z</time>
      </trkpt>
      <trkpt lat="44.59787" lon="4.95082">
        <ele>200</ele>
        <time>2021-03-27T18:41:17.949Z</time>
      </trkpt>
      <trkpt lat="44.59818" lon="4.95077">
        <ele>199</ele>
        <time>2021-03-27T18:41:23.068Z</time>
      </trkpt>
      <trkpt lat="44.59848" lon="4.95057">
        <ele>199</ele>
        <time>2021-03-27T18:41:35.560Z</time>
      </trkpt>
      <trkpt lat="44.60141" lon="4.94683">
        <ele>196</ele>
        <time>2021-03-27T18:43:02.337Z</time>
      </trkpt>
      <trkpt lat="44.60206" lon="4.94603">
        <ele>194</ele>
        <time>2021-03-27T18:43:17.944Z</time>
      </trkpt>
      <trkpt lat="44.60332" lon="4.94475">
        <ele>193</ele>
        <time>2021-03-27T18:44:11.194Z</time>
      </trkpt>
      <trkpt lat="44.60737" lon="4.94086">
        <ele>187</ele>
        <time>2021-03-27T18:45:52.272Z</time>
      </trkpt>
      <trkpt lat="44.60774" lon="4.94032">
        <ele>188</ele>
        <time>2021-03-27T18:46:16.503Z</time>
      </trkpt>
      <trkpt lat="44.60831" lon="4.93948">
        <ele>188</ele>
        <time>2021-03-27T18:46:47.580Z</time>
      </trkpt>
      <trkpt lat="44.60919" lon="4.9382">
        <ele>186</ele>
        <time>2021-03-27T18:47:12.532Z</time>
      </trkpt>
      <trkpt lat="44.60922" lon="4.93815">
        <ele>186</ele>
        <time>2021-03-27T18:47:14.283Z</time>
      </trkpt>
      <trkpt lat="44.60957" lon="4.93764">
        <ele>187</ele>
        <time>2021-03-27T18:47:37.464Z</time>
      </trkpt>
      <trkpt lat="44.60968" lon="4.93747">
        <ele>187</ele>
        <time>2021-03-27T18:47:43.616Z</time>
      </trkpt>
      <trkpt lat="44.61049" lon="4.93629">
        <ele>190</ele>
        <time>2021-03-27T18:48:41.034Z</time>
      </trkpt>
      <trkpt lat="44.6107" lon="4.93655">
        <ele>190</ele>
        <time>2021-03-27T18:48:51.564Z</time>
      </trkpt>
      <trkpt lat="44.61098" lon="4.93672">
        <ele>190</ele>
        <time>2021-03-27T18:49:03.038Z</time>
      </trkpt>
      <trkpt lat="44.61126" lon="4.93684">
        <ele>189</ele>
        <time>2021-03-27T18:49:07.739Z</time>
      </trkpt>
      <trkpt lat="44.61142" lon="4.93715">
        <ele>188</ele>
        <time>2021-03-27T18:49:12.008Z</time>
      </trkpt>
      <trkpt lat="44.61173" lon="4.93772">
        <ele>185</ele>
        <time>2021-03-27T18:49:18.581Z</time>
      </trkpt>
      <trkpt lat="44.61197" lon="4.93848">
        <ele>184</ele>
        <time>2021-03-27T18:49:30.082Z</time>
      </trkpt>
      <trkpt lat="44.612" lon="4.93869">
        <ele>184</ele>
        <time>2021-03-27T18:49:35.818Z</time>
      </trkpt>
      <trkpt lat="44.61195" lon="4.93877">
        <ele>184</ele>
        <time>2021-03-27T18:49:38.669Z</time>
      </trkpt>
      <trkpt lat="44.61195" lon="4.93885">
        <ele>184</ele>
        <time>2021-03-27T18:49:40.811Z</time>
      </trkpt>
      <trkpt lat="44.61197" lon="4.93896">
        <ele>184</ele>
        <time>2021-03-27T18:49:43.851Z</time>
      </trkpt>
      <trkpt lat="44.612" lon="4.93898">
        <ele>184</ele>
        <time>2021-03-27T18:49:45.100Z</time>
      </trkpt>
      <trkpt lat="44.61203" lon="4.93903">
        <ele>184</ele>
        <time>2021-03-27T18:49:46.851Z</time>
      </trkpt>
      <trkpt lat="44.61212" lon="4.93905">
        <ele>184</ele>
        <time>2021-03-27T18:49:50.279Z</time>
      </trkpt>
      <trkpt lat="44.61227" lon="4.93922">
        <ele>184</ele>
        <time>2021-03-27T18:49:57.529Z</time>
      </trkpt>
      <trkpt lat="44.61244" lon="4.93938">
        <ele>184</ele>
        <time>2021-03-27T18:50:05.226Z</time>
      </trkpt>
      <trkpt lat="44.61268" lon="4.93975">
        <ele>184</ele>
        <time>2021-03-27T18:50:18.631Z</time>
      </trkpt>
      <trkpt lat="44.61531" lon="4.94537">
        <ele>182</ele>
        <time>2021-03-27T18:53:07.895Z</time>
      </trkpt>
      <trkpt lat="44.61898" lon="4.95308">
        <ele>180</ele>
        <time>2021-03-27T18:57:05.231Z</time>
      </trkpt>
      <trkpt lat="44.61935" lon="4.95386">
        <ele>180</ele>
        <time>2021-03-27T18:57:30.329Z</time>
      </trkpt>
      <trkpt lat="44.62131" lon="4.958">
        <ele>182</ele>
        <time>2021-03-27T18:59:50.725Z</time>
      </trkpt>
      <trkpt lat="44.62226" lon="4.96">
        <ele>184</ele>
        <time>2021-03-27T19:01:02.820Z</time>
      </trkpt>
      <trkpt lat="44.6232" lon="4.96204">
        <ele>184</ele>
        <time>2021-03-27T19:02:07.885Z</time>
      </trkpt>
      <trkpt lat="44.62363" lon="4.96291">
        <ele>185</ele>
        <time>2021-03-27T19:02:40.166Z</time>
      </trkpt>
      <trkpt lat="44.62378" lon="4.96323">
        <ele>184</ele>
        <time>2021-03-27T19:02:44.437Z</time>
      </trkpt>
      <trkpt lat="44.62379" lon="4.9633">
        <ele>184</ele>
        <time>2021-03-27T19:02:46.349Z</time>
      </trkpt>
      <trkpt lat="44.62383" lon="4.96356">
        <ele>184</ele>
        <time>2021-03-27T19:02:53.470Z</time>
      </trkpt>
      <trkpt lat="44.62383" lon="4.96376">
        <ele>184</ele>
        <time>2021-03-27T19:02:58.825Z</time>
      </trkpt>
      <trkpt lat="44.62383" lon="4.96387">
        <ele>184</ele>
        <time>2021-03-27T19:03:01.770Z</time>
      </trkpt>
      <trkpt lat="44.62381" lon="4.96391">
        <ele>184</ele>
        <time>2021-03-27T19:03:03.079Z</time>
      </trkpt>
      <trkpt lat="44.6238" lon="4.96395">
        <ele>184</ele>
        <time>2021-03-27T19:03:04.214Z</time>
      </trkpt>
      <trkpt lat="44.62379" lon="4.96405">
        <ele>184</ele>
        <time>2021-03-27T19:03:06.918Z</time>
      </trkpt>
      <trkpt lat="44.62381" lon="4.9641">
        <ele>185</ele>
        <time>2021-03-27T19:03:12.841Z</time>
      </trkpt>
      <trkpt lat="44.62383" lon="4.96415">
        <ele>185</ele>
        <time>2021-03-27T19:03:14.376Z</time>
      </trkpt>
      <trkpt lat="44.62385" lon="4.96418">
        <ele>185</ele>
        <time>2021-03-27T19:03:15.477Z</time>
      </trkpt>
      <trkpt lat="44.62389" lon="4.96466">
        <ele>185</ele>
        <time>2021-03-27T19:03:28.416Z</time>
      </trkpt>
      <trkpt lat="44.62373" lon="4.96687">
        <ele>185</ele>
        <time>2021-03-27T19:04:27.890Z</time>
      </trkpt>
      <trkpt lat="44.62337" lon="4.97338">
        <ele>197</ele>
        <time>2021-03-27T19:08:16.866Z</time>
      </trkpt>
      <trkpt lat="44.6233" lon="4.97373">
        <ele>198</ele>
        <time>2021-03-27T19:08:31.933Z</time>
      </trkpt>
      <trkpt lat="44.62322" lon="4.9738">
        <ele>198</ele>
        <time>2021-03-27T19:08:35.479Z</time>
      </trkpt>
      <trkpt lat="44.62319" lon="4.97387">
        <ele>198</ele>
        <time>2021-03-27T19:08:37.666Z</time>
      </trkpt>
      <trkpt lat="44.62319" lon="4.97399">
        <ele>198</ele>
        <time>2021-03-27T19:08:40.879Z</time>
      </trkpt>
      <trkpt lat="44.62321" lon="4.97408">
        <ele>199</ele>
        <time>2021-03-27T19:08:50.616Z</time>
      </trkpt>
      <trkpt lat="44.6232" lon="4.97426">
        <ele>199</ele>
        <time>2021-03-27T19:08:55.450Z</time>
      </trkpt>
      <trkpt lat="44.62309" lon="4.97466">
        <ele>199</ele>
        <time>2021-03-27T19:09:06.931Z</time>
      </trkpt>
      <trkpt lat="44.623" lon="4.97485">
        <ele>199</ele>
        <time>2021-03-27T19:09:13.041Z</time>
      </trkpt>
      <trkpt lat="44.6225" lon="4.97578">
        <ele>201</ele>
        <time>2021-03-27T19:09:53.091Z</time>
      </trkpt>
      <trkpt lat="44.62243" lon="4.976">
        <ele>202</ele>
        <time>2021-03-27T19:10:05.021Z</time>
      </trkpt>
      <trkpt lat="44.62238" lon="4.9763">
        <ele>204</ele>
        <time>2021-03-27T19:10:24.780Z</time>
      </trkpt>
      <trkpt lat="44.62241" lon="4.97661">
        <ele>207</ele>
        <time>2021-03-27T19:10:57.088Z</time>
      </trkpt>
      <trkpt lat="44.6225" lon="4.97686">
        <ele>209</ele>
        <time>2021-03-27T19:11:16.651Z</time>
      </trkpt>
      <trkpt lat="44.62261" lon="4.97701">
        <ele>213</ele>
        <time>2021-03-27T19:11:38.893Z</time>
      </trkpt>
      <trkpt lat="44.62275" lon="4.97716">
        <ele>217</ele>
        <time>2021-03-27T19:12:04.439Z</time>
      </trkpt>
      <trkpt lat="44.62297" lon="4.97725">
        <ele>221</ele>
        <time>2021-03-27T19:12:37.685Z</time>
      </trkpt>
      <trkpt lat="44.62314" lon="4.97725">
        <ele>224</ele>
        <time>2021-03-27T19:13:02.351Z</time>
      </trkpt>
      <trkpt lat="44.62369" lon="4.97708">
        <ele>228</ele>
        <time>2021-03-27T19:13:45.312Z</time>
      </trkpt>
      <trkpt lat="44.62433" lon="4.97684">
        <ele>227</ele>
        <time>2021-03-27T19:13:58.471Z</time>
      </trkpt>
      <trkpt lat="44.62461" lon="4.97687">
        <ele>229</ele>
        <time>2021-03-27T19:14:19.925Z</time>
      </trkpt>
      <trkpt lat="44.62477" lon="4.97693">
        <ele>231</ele>
        <time>2021-03-27T19:14:40.235Z</time>
      </trkpt>
      <trkpt lat="44.62491" lon="4.97702">
        <ele>234</ele>
        <time>2021-03-27T19:15:02.574Z</time>
      </trkpt>
      <trkpt lat="44.62501" lon="4.97712">
        <ele>237</ele>
        <time>2021-03-27T19:15:20.383Z</time>
      </trkpt>
      <trkpt lat="44.6251" lon="4.97723">
        <ele>239</ele>
        <time>2021-03-27T19:15:37.690Z</time>
      </trkpt>
      <trkpt lat="44.62516" lon="4.9774">
        <ele>243</ele>
        <time>2021-03-27T19:15:57.286Z</time>
      </trkpt>
      <trkpt lat="44.62522" lon="4.97761">
        <ele>246</ele>
        <time>2021-03-27T19:16:20.654Z</time>
      </trkpt>
      <trkpt lat="44.62526" lon="4.97781">
        <ele>247</ele>
        <time>2021-03-27T19:16:31.649Z</time>
      </trkpt>
      <trkpt lat="44.62523" lon="4.9782">
        <ele>252</ele>
        <time>2021-03-27T19:17:12.158Z</time>
      </trkpt>
      <trkpt lat="44.62518" lon="4.97843">
        <ele>254</ele>
        <time>2021-03-27T19:17:32.190Z</time>
      </trkpt>
      <trkpt lat="44.62508" lon="4.97863">
        <ele>256</ele>
        <time>2021-03-27T19:17:52.113Z</time>
      </trkpt>
      <trkpt lat="44.62487" lon="4.97887">
        <ele>257</ele>
        <time>2021-03-27T19:18:07.504Z</time>
      </trkpt>
      <trkpt lat="44.62214" lon="4.9805">
        <ele>262</ele>
        <time>2021-03-27T19:20:19.460Z</time>
      </trkpt>
      <trkpt lat="44.62202" lon="4.98063">
        <ele>263</ele>
        <time>2021-03-27T19:20:30.594Z</time>
      </trkpt>
      <trkpt lat="44.62193" lon="4.98079">
        <ele>265</ele>
        <time>2021-03-27T19:20:51.654Z</time>
      </trkpt>
      <trkpt lat="44.62188" lon="4.98099">
        <ele>267</ele>
        <time>2021-03-27T19:21:13.272Z</time>
      </trkpt>
      <trkpt lat="44.62187" lon="4.98118">
        <ele>269</ele>
        <time>2021-03-27T19:21:32.947Z</time>
      </trkpt>
      <trkpt lat="44.62188" lon="4.98136">
        <ele>271</ele>
        <time>2021-03-27T19:21:51.593Z</time>
      </trkpt>
      <trkpt lat="44.62193" lon="4.98154">
        <ele>273</ele>
        <time>2021-03-27T19:22:11.547Z</time>
      </trkpt>
      <trkpt lat="44.62197" lon="4.98164">
        <ele>275</ele>
        <time>2021-03-27T19:22:23.393Z</time>
      </trkpt>
      <trkpt lat="44.62203" lon="4.98175">
        <ele>277</ele>
        <time>2021-03-27T19:22:37.705Z</time>
      </trkpt>
      <trkpt lat="44.62215" lon="4.98189">
        <ele>280</ele>
        <time>2021-03-27T19:23:00.337Z</time>
      </trkpt>
      <trkpt lat="44.62225" lon="4.98196">
        <ele>282</ele>
        <time>2021-03-27T19:23:16.547Z</time>
      </trkpt>
      <trkpt lat="44.62237" lon="4.982">
        <ele>284</ele>
        <time>2021-03-27T19:23:34.442Z</time>
      </trkpt>
      <trkpt lat="44.62266" lon="4.98195">
        <ele>286</ele>
        <time>2021-03-27T19:23:56.303Z</time>
      </trkpt>
      <trkpt lat="44.62392" lon="4.98152">
        <ele>293</ele>
        <time>2021-03-27T19:25:23.877Z</time>
      </trkpt>
      <trkpt lat="44.62412" lon="4.9814">
        <ele>294</ele>
        <time>2021-03-27T19:25:37.814Z</time>
      </trkpt>
      <trkpt lat="44.62474" lon="4.98097">
        <ele>293</ele>
        <time>2021-03-27T19:25:51.659Z</time>
      </trkpt>
      <trkpt lat="44.62543" lon="4.98077">
        <ele>295</ele>
        <time>2021-03-27T19:26:27.474Z</time>
      </trkpt>
      <trkpt lat="44.62606" lon="4.98081">
        <ele>303</ele>
        <time>2021-03-27T19:27:51.031Z</time>
      </trkpt>
      <trkpt lat="44.62649" lon="4.9806">
        <ele>301</ele>
        <time>2021-03-27T19:27:57.687Z</time>
      </trkpt>
      <trkpt lat="44.62711" lon="4.98054">
        <ele>307</ele>
        <time>2021-03-27T19:28:56.501Z</time>
      </trkpt>
      <trkpt lat="44.62743" lon="4.98045">
        <ele>309</ele>
        <time>2021-03-27T19:29:19.680Z</time>
      </trkpt>
      <trkpt lat="44.62761" lon="4.98042">
        <ele>309</ele>
        <time>2021-03-27T19:29:26.499Z</time>
      </trkpt>
      <trkpt lat="44.62777" lon="4.98044">
        <ele>310</ele>
        <time>2021-03-27T19:29:37.987Z</time>
      </trkpt>
      <trkpt lat="44.62846" lon="4.9806">
        <ele>319</ele>
        <time>2021-03-27T19:31:12.950Z</time>
      </trkpt>
      <trkpt lat="44.62868" lon="4.98059">
        <ele>322</ele>
        <time>2021-03-27T19:31:44.887Z</time>
      </trkpt>
      <trkpt lat="44.62887" lon="4.9805">
        <ele>323</ele>
        <time>2021-03-27T19:31:58.065Z</time>
      </trkpt>
      <trkpt lat="44.62913" lon="4.98027">
        <ele>321</ele>
        <time>2021-03-27T19:32:01.827Z</time>
      </trkpt>
      <trkpt lat="44.62946" lon="4.98013">
        <ele>323</ele>
        <time>2021-03-27T19:32:25.758Z</time>
      </trkpt>
      <trkpt lat="44.62961" lon="4.98003">
        <ele>324</ele>
        <time>2021-03-27T19:32:37.463Z</time>
      </trkpt>
      <trkpt lat="44.62996" lon="4.97968">
        <ele>319</ele>
        <time>2021-03-27T19:32:43.138Z</time>
      </trkpt>
      <trkpt lat="44.63015" lon="4.97961">
        <ele>319</ele>
        <time>2021-03-27T19:32:50.527Z</time>
      </trkpt>
      <trkpt lat="44.63039" lon="4.97954">
        <ele>319</ele>
        <time>2021-03-27T19:32:59.747Z</time>
      </trkpt>
      <trkpt lat="44.6308" lon="4.97952">
        <ele>323</ele>
        <time>2021-03-27T19:33:38.925Z</time>
      </trkpt>
      <trkpt lat="44.63103" lon="4.97955">
        <ele>324</ele>
        <time>2021-03-27T19:33:53.324Z</time>
      </trkpt>
      <trkpt lat="44.63174" lon="4.97973">
        <ele>328</ele>
        <time>2021-03-27T19:34:42.533Z</time>
      </trkpt>
      <trkpt lat="44.63192" lon="4.97979">
        <ele>328</ele>
        <time>2021-03-27T19:34:49.492Z</time>
      </trkpt>
      <trkpt lat="44.63232" lon="4.98006">
        <ele>331</ele>
        <time>2021-03-27T19:35:22.486Z</time>
      </trkpt>
      <trkpt lat="44.63263" lon="4.98023">
        <ele>334</ele>
        <time>2021-03-27T19:35:52.188Z</time>
      </trkpt>
      <trkpt lat="44.63336" lon="4.98056">
        <ele>339</ele>
        <time>2021-03-27T19:36:48.208Z</time>
      </trkpt>
      <trkpt lat="44.63406" lon="4.98089">
        <ele>345</ele>
        <time>2021-03-27T19:37:49.283Z</time>
      </trkpt>
      <trkpt lat="44.63453" lon="4.98091">
        <ele>344</ele>
        <time>2021-03-27T19:37:57.958Z</time>
      </trkpt>
      <trkpt lat="44.63471" lon="4.98096">
        <ele>345</ele>
        <time>2021-03-27T19:38:10.394Z</time>
      </trkpt>
      <trkpt lat="44.6349" lon="4.98108">
        <ele>347</ele>
        <time>2021-03-27T19:38:30.009Z</time>
      </trkpt>
      <trkpt lat="44.63582" lon="4.98193">
        <ele>360</ele>
        <time>2021-03-27T19:40:40.735Z</time>
      </trkpt>
      <trkpt lat="44.63609" lon="4.98212">
        <ele>362</ele>
        <time>2021-03-27T19:41:02.961Z</time>
      </trkpt>
      <trkpt lat="44.63632" lon="4.98221">
        <ele>363</ele>
        <time>2021-03-27T19:41:17.532Z</time>
      </trkpt>
      <trkpt lat="44.63701" lon="4.98236">
        <ele>364</ele>
        <time>2021-03-27T19:41:47.762Z</time>
      </trkpt>
      <trkpt lat="44.6372" lon="4.98244">
        <ele>365</ele>
        <time>2021-03-27T19:42:00.844Z</time>
      </trkpt>
      <trkpt lat="44.63733" lon="4.98257">
        <ele>367</ele>
        <time>2021-03-27T19:42:21.573Z</time>
      </trkpt>
      <trkpt lat="44.63738" lon="4.98269">
        <ele>368</ele>
        <time>2021-03-27T19:42:31.353Z</time>
      </trkpt>
      <trkpt lat="44.63745" lon="4.98295">
        <ele>371</ele>
        <time>2021-03-27T19:43:00.054Z</time>
      </trkpt>
      <trkpt lat="44.63757" lon="4.98377">
        <ele>372</ele>
        <time>2021-03-27T19:43:26.534Z</time>
      </trkpt>
      <trkpt lat="44.63764" lon="4.98391">
        <ele>372</ele>
        <time>2021-03-27T19:43:31.114Z</time>
      </trkpt>
      <trkpt lat="44.63768" lon="4.98401">
        <ele>371</ele>
        <time>2021-03-27T19:43:32.192Z</time>
      </trkpt>
      <trkpt lat="44.63783" lon="4.98416">
        <ele>372</ele>
        <time>2021-03-27T19:43:44.654Z</time>
      </trkpt>
      <trkpt lat="44.63797" lon="4.98423">
        <ele>372</ele>
        <time>2021-03-27T19:43:50.244Z</time>
      </trkpt>
      <trkpt lat="44.63917" lon="4.98476">
        <ele>379</ele>
        <time>2021-03-27T19:45:16.161Z</time>
      </trkpt>
      <trkpt lat="44.63944" lon="4.98499">
        <ele>379</ele>
        <time>2021-03-27T19:45:28.037Z</time>
      </trkpt>
      <trkpt lat="44.64021" lon="4.98618">
        <ele>389</ele>
        <time>2021-03-27T19:47:07.730Z</time>
      </trkpt>
      <trkpt lat="44.64057" lon="4.98645">
        <ele>390</ele>
        <time>2021-03-27T19:47:27.523Z</time>
      </trkpt>
      <trkpt lat="44.64503" lon="4.98709">
        <ele>377</ele>
        <time>2021-03-27T19:48:43.453Z</time>
      </trkpt>
      <trkpt lat="44.64766" lon="4.98708">
        <ele>367</ele>
        <time>2021-03-27T19:49:24.104Z</time>
      </trkpt>
      <trkpt lat="44.65062" lon="4.98692">
        <ele>357</ele>
        <time>2021-03-27T19:50:11.861Z</time>
      </trkpt>
      <trkpt lat="44.65257" lon="4.98774">
        <ele>349</ele>
        <time>2021-03-27T19:50:42.936Z</time>
      </trkpt>
      <trkpt lat="44.65429" lon="4.98774">
        <ele>344</ele>
        <time>2021-03-27T19:51:12.044Z</time>
      </trkpt>
      <trkpt lat="44.65519" lon="4.98783">
        <ele>340</ele>
        <time>2021-03-27T19:51:25.188Z</time>
      </trkpt>
      <trkpt lat="44.65701" lon="4.98829">
        <ele>334</ele>
        <time>2021-03-27T19:51:55.401Z</time>
      </trkpt>
      <trkpt lat="44.66006" lon="4.98951">
        <ele>328</ele>
        <time>2021-03-27T19:52:55.536Z</time>
      </trkpt>
      <trkpt lat="44.66037" lon="4.9898">
        <ele>327</ele>
        <time>2021-03-27T19:53:01.989Z</time>
      </trkpt>
      <trkpt lat="44.66096" lon="4.99065">
        <ele>326</ele>
        <time>2021-03-27T19:53:19.480Z</time>
      </trkpt>
      <trkpt lat="44.66184" lon="4.99191">
        <ele>317</ele>
        <time>2021-03-27T19:53:36.071Z</time>
      </trkpt>
      <trkpt lat="44.66197" lon="4.99233">
        <ele>315</ele>
        <time>2021-03-27T19:53:40.178Z</time>
      </trkpt>
      <trkpt lat="44.66197" lon="4.99282">
        <ele>314</ele>
        <time>2021-03-27T19:53:46.100Z</time>
      </trkpt>
      <trkpt lat="44.66178" lon="4.9942">
        <ele>309</ele>
        <time>2021-03-27T19:53:59.946Z</time>
      </trkpt>
      <trkpt lat="44.66184" lon="4.99482">
        <ele>308</ele>
        <time>2021-03-27T19:54:08.044Z</time>
      </trkpt>
      <trkpt lat="44.66186" lon="4.99489">
        <ele>308</ele>
        <time>2021-03-27T19:54:10.063Z</time>
      </trkpt>
      <trkpt lat="44.66195" lon="4.99514">
        <ele>307</ele>
        <time>2021-03-27T19:54:12.819Z</time>
      </trkpt>
      <trkpt lat="44.66203" lon="4.99538">
        <ele>306</ele>
        <time>2021-03-27T19:54:15.363Z</time>
      </trkpt>
      <trkpt lat="44.66245" lon="4.99645">
        <ele>303</ele>
        <time>2021-03-27T19:54:29.271Z</time>
      </trkpt>
      <trkpt lat="44.66286" lon="4.99748">
        <ele>301</ele>
        <time>2021-03-27T19:54:44.316Z</time>
      </trkpt>
      <trkpt lat="44.663" lon="4.99781">
        <ele>301</ele>
        <time>2021-03-27T19:54:54.596Z</time>
      </trkpt>
      <trkpt lat="44.66325" lon="4.99832">
        <ele>300</ele>
        <time>2021-03-27T19:55:02.592Z</time>
      </trkpt>
      <trkpt lat="44.6635" lon="4.99871">
        <ele>300</ele>
        <time>2021-03-27T19:55:16.639Z</time>
      </trkpt>
      <trkpt lat="44.66361" lon="4.99888">
        <ele>300</ele>
        <time>2021-03-27T19:55:22.788Z</time>
      </trkpt>
      <trkpt lat="44.66424" lon="4.99983">
        <ele>303</ele>
        <time>2021-03-27T19:56:12.252Z</time>
      </trkpt>
      <trkpt lat="44.66533" lon="5.00152">
        <ele>309</ele>
        <time>2021-03-27T19:57:44.552Z</time>
      </trkpt>
      <trkpt lat="44.66559" lon="5.00199">
        <ele>311</ele>
        <time>2021-03-27T19:58:11.910Z</time>
      </trkpt>
      <trkpt lat="44.66592" lon="5.00294">
        <ele>315</ele>
        <time>2021-03-27T19:59:02.427Z</time>
      </trkpt>
      <trkpt lat="44.66604" lon="5.00323">
        <ele>316</ele>
        <time>2021-03-27T19:59:16.996Z</time>
      </trkpt>
      <trkpt lat="44.66619" lon="5.00352">
        <ele>317</ele>
        <time>2021-03-27T19:59:31.966Z</time>
      </trkpt>
      <trkpt lat="44.66707" lon="5.00455">
        <ele>318</ele>
        <time>2021-03-27T20:00:18.782Z</time>
      </trkpt>
      <trkpt lat="44.66738" lon="5.00492">
        <ele>319</ele>
        <time>2021-03-27T20:00:38.526Z</time>
      </trkpt>
      <trkpt lat="44.66753" lon="5.00513">
        <ele>319</ele>
        <time>2021-03-27T20:00:46.488Z</time>
      </trkpt>
      <trkpt lat="44.66771" lon="5.00527">
        <ele>320</ele>
        <time>2021-03-27T20:00:59.897Z</time>
      </trkpt>
      <trkpt lat="44.66804" lon="5.00563">
        <ele>321</ele>
        <time>2021-03-27T20:01:20.022Z</time>
      </trkpt>
      <trkpt lat="44.66818" lon="5.00596">
        <ele>321</ele>
        <time>2021-03-27T20:01:30.302Z</time>
      </trkpt>
      <trkpt lat="44.6683" lon="5.00615">
        <ele>321</ele>
        <time>2021-03-27T20:01:37.100Z</time>
      </trkpt>
      <trkpt lat="44.66931" lon="5.00889">
        <ele>317</ele>
        <time>2021-03-27T20:02:19.069Z</time>
      </trkpt>
      <trkpt lat="44.66936" lon="5.00907">
        <ele>317</ele>
        <time>2021-03-27T20:02:24.239Z</time>
      </trkpt>
      <trkpt lat="44.66938" lon="5.00926">
        <ele>317</ele>
        <time>2021-03-27T20:02:29.377Z</time>
      </trkpt>
      <trkpt lat="44.66943" lon="5.00985">
        <ele>316</ele>
        <time>2021-03-27T20:02:36.963Z</time>
      </trkpt>
      <trkpt lat="44.66947" lon="5.01147">
        <ele>320</ele>
        <time>2021-03-27T20:03:40.532Z</time>
      </trkpt>
      <trkpt lat="44.66954" lon="5.01203">
        <ele>318</ele>
        <time>2021-03-27T20:03:46.159Z</time>
      </trkpt>
      <trkpt lat="44.66962" lon="5.01231">
        <ele>317</ele>
        <time>2021-03-27T20:03:49.221Z</time>
      </trkpt>
      <trkpt lat="44.66978" lon="5.01265">
        <ele>315</ele>
        <time>2021-03-27T20:03:53.051Z</time>
      </trkpt>
      <trkpt lat="44.66994" lon="5.01289">
        <ele>313</ele>
        <time>2021-03-27T20:03:56.142Z</time>
      </trkpt>
      <trkpt lat="44.67044" lon="5.01344">
        <ele>312</ele>
        <time>2021-03-27T20:04:08.651Z</time>
      </trkpt>
      <trkpt lat="44.67058" lon="5.01355">
        <ele>311</ele>
        <time>2021-03-27T20:04:10.657Z</time>
      </trkpt>
      <trkpt lat="44.67117" lon="5.0142">
        <ele>307</ele>
        <time>2021-03-27T20:04:20.744Z</time>
      </trkpt>
      <trkpt lat="44.67299" lon="5.01576">
        <ele>297</ele>
        <time>2021-03-27T20:04:51.077Z</time>
      </trkpt>
      <trkpt lat="44.6732" lon="5.0159">
        <ele>296</ele>
        <time>2021-03-27T20:04:54.503Z</time>
      </trkpt>
      <trkpt lat="44.67344" lon="5.01595">
        <ele>296</ele>
        <time>2021-03-27T20:05:03.630Z</time>
      </trkpt>
      <trkpt lat="44.6742" lon="5.01602">
        <ele>294</ele>
        <time>2021-03-27T20:05:16.915Z</time>
      </trkpt>
      <trkpt lat="44.67449" lon="5.01599">
        <ele>293</ele>
        <time>2021-03-27T20:05:21.574Z</time>
      </trkpt>
      <trkpt lat="44.67486" lon="5.01576">
        <ele>293</ele>
        <time>2021-03-27T20:05:36.791Z</time>
      </trkpt>
      <trkpt lat="44.67621" lon="5.01484">
        <ele>286</ele>
        <time>2021-03-27T20:05:58.189Z</time>
      </trkpt>
      <trkpt lat="44.67635" lon="5.01477">
        <ele>285</ele>
        <time>2021-03-27T20:06:00.152Z</time>
      </trkpt>
      <trkpt lat="44.67649" lon="5.01473">
        <ele>284</ele>
        <time>2021-03-27T20:06:02.039Z</time>
      </trkpt>
      <trkpt lat="44.67666" lon="5.01472">
        <ele>282</ele>
        <time>2021-03-27T20:06:04.286Z</time>
      </trkpt>
      <trkpt lat="44.67683" lon="5.01476">
        <ele>280</ele>
        <time>2021-03-27T20:06:06.563Z</time>
      </trkpt>
      <trkpt lat="44.67728" lon="5.01491">
        <ele>277</ele>
        <time>2021-03-27T20:06:12.237Z</time>
      </trkpt>
      <trkpt lat="44.6774" lon="5.01492">
        <ele>277</ele>
        <time>2021-03-27T20:06:16.759Z</time>
      </trkpt>
      <trkpt lat="44.67751" lon="5.0149">
        <ele>277</ele>
        <time>2021-03-27T20:06:20.931Z</time>
      </trkpt>
      <trkpt lat="44.67824" lon="5.01448">
        <ele>280</ele>
        <time>2021-03-27T20:07:06.464Z</time>
      </trkpt>
      <trkpt lat="44.67837" lon="5.01438">
        <ele>280</ele>
        <time>2021-03-27T20:07:12.038Z</time>
      </trkpt>
      <trkpt lat="44.67849" lon="5.01426">
        <ele>280</ele>
        <time>2021-03-27T20:07:17.577Z</time>
      </trkpt>
      <trkpt lat="44.67864" lon="5.01403">
        <ele>280</ele>
        <time>2021-03-27T20:07:25.925Z</time>
      </trkpt>
      <trkpt lat="44.67924" lon="5.01279">
        <ele>277</ele>
        <time>2021-03-27T20:07:44.156Z</time>
      </trkpt>
      <trkpt lat="44.67939" lon="5.01263">
        <ele>276</ele>
        <time>2021-03-27T20:07:46.694Z</time>
      </trkpt>
      <trkpt lat="44.67957" lon="5.01254">
        <ele>275</ele>
        <time>2021-03-27T20:07:49.288Z</time>
      </trkpt>
      <trkpt lat="44.68005" lon="5.01249">
        <ele>274</ele>
        <time>2021-03-27T20:07:58.218Z</time>
      </trkpt>
      <trkpt lat="44.68021" lon="5.0125">
        <ele>273</ele>
        <time>2021-03-27T20:08:00.221Z</time>
      </trkpt>
      <trkpt lat="44.68033" lon="5.01254">
        <ele>273</ele>
        <time>2021-03-27T20:08:04.860Z</time>
      </trkpt>
      <trkpt lat="44.68045" lon="5.01261">
        <ele>273</ele>
        <time>2021-03-27T20:08:09.747Z</time>
      </trkpt>
      <trkpt lat="44.68073" lon="5.01291">
        <ele>276</ele>
        <time>2021-03-27T20:08:39.847Z</time>
      </trkpt>
      <trkpt lat="44.68083" lon="5.01298">
        <ele>277</ele>
        <time>2021-03-27T20:08:49.762Z</time>
      </trkpt>
      <trkpt lat="44.68108" lon="5.01311">
        <ele>277</ele>
        <time>2021-03-27T20:08:59.788Z</time>
      </trkpt>
      <trkpt lat="44.68127" lon="5.01313">
        <ele>276</ele>
        <time>2021-03-27T20:09:02.372Z</time>
      </trkpt>
      <trkpt lat="44.68222" lon="5.01313">
        <ele>270</ele>
        <time>2021-03-27T20:09:14.182Z</time>
      </trkpt>
      <trkpt lat="44.68242" lon="5.01311">
        <ele>269</ele>
        <time>2021-03-27T20:09:16.962Z</time>
      </trkpt>
      <trkpt lat="44.68261" lon="5.01307">
        <ele>268</ele>
        <time>2021-03-27T20:09:19.576Z</time>
      </trkpt>
      <trkpt lat="44.6847" lon="5.01194">
        <ele>262</ele>
        <time>2021-03-27T20:09:58.406Z</time>
      </trkpt>
      <trkpt lat="44.685" lon="5.01169">
        <ele>261</ele>
        <time>2021-03-27T20:10:04.332Z</time>
      </trkpt>
      <trkpt lat="44.68513" lon="5.01151">
        <ele>262</ele>
        <time>2021-03-27T20:10:16.722Z</time>
      </trkpt>
      <trkpt lat="44.68772" lon="5.00706">
        <ele>256</ele>
        <time>2021-03-27T20:11:38.378Z</time>
      </trkpt>
      <trkpt lat="44.68783" lon="5.00693">
        <ele>256</ele>
        <time>2021-03-27T20:11:43.783Z</time>
      </trkpt>
      <trkpt lat="44.68795" lon="5.00683">
        <ele>256</ele>
        <time>2021-03-27T20:11:49.029Z</time>
      </trkpt>
      <trkpt lat="44.68823" lon="5.00667">
        <ele>255</ele>
        <time>2021-03-27T20:11:53.935Z</time>
      </trkpt>
      <trkpt lat="44.68838" lon="5.00661">
        <ele>255</ele>
        <time>2021-03-27T20:11:59.801Z</time>
      </trkpt>
      <trkpt lat="44.68854" lon="5.00658">
        <ele>254</ele>
        <time>2021-03-27T20:12:01.827Z</time>
      </trkpt>
      <trkpt lat="44.6887" lon="5.00659">
        <ele>253</ele>
        <time>2021-03-27T20:12:03.829Z</time>
      </trkpt>
      <trkpt lat="44.68883" lon="5.00661">
        <ele>253</ele>
        <time>2021-03-27T20:12:08.749Z</time>
      </trkpt>
      <trkpt lat="44.68921" lon="5.00673">
        <ele>253</ele>
        <time>2021-03-27T20:12:23.399Z</time>
      </trkpt>
      <trkpt lat="44.68945" lon="5.00682">
        <ele>253</ele>
        <time>2021-03-27T20:12:32.742Z</time>
      </trkpt>
      <trkpt lat="44.6897" lon="5.00688">
        <ele>253</ele>
        <time>2021-03-27T20:12:42.283Z</time>
      </trkpt>
      <trkpt lat="44.68982" lon="5.00689">
        <ele>252</ele>
        <time>2021-03-27T20:12:43.870Z</time>
      </trkpt>
      <trkpt lat="44.69014" lon="5.00683">
        <ele>252</ele>
        <time>2021-03-27T20:12:56.014Z</time>
      </trkpt>
      <trkpt lat="44.69077" lon="5.00654">
        <ele>252</ele>
        <time>2021-03-27T20:13:20.950Z</time>
      </trkpt>
      <trkpt lat="44.69112" lon="5.00646">
        <ele>253</ele>
        <time>2021-03-27T20:13:38.934Z</time>
      </trkpt>
      <trkpt lat="44.6917" lon="5.00641">
        <ele>255</ele>
        <time>2021-03-27T20:14:10.857Z</time>
      </trkpt>
      <trkpt lat="44.69192" lon="5.00634">
        <ele>253</ele>
        <time>2021-03-27T20:14:13.836Z</time>
      </trkpt>
      <trkpt lat="44.69214" lon="5.00622">
        <ele>251</ele>
        <time>2021-03-27T20:14:16.953Z</time>
      </trkpt>
      <trkpt lat="44.69337" lon="5.00518">
        <ele>245</ele>
        <time>2021-03-27T20:14:38.350Z</time>
      </trkpt>
      <trkpt lat="44.69375" lon="5.00495">
        <ele>244</ele>
        <time>2021-03-27T20:14:45.735Z</time>
      </trkpt>
      <trkpt lat="44.69413" lon="5.00477">
        <ele>244</ele>
        <time>2021-03-27T20:15:00.818Z</time>
      </trkpt>
      <trkpt lat="44.69451" lon="5.00465">
        <ele>243</ele>
        <time>2021-03-27T20:15:07.655Z</time>
      </trkpt>
      <trkpt lat="44.69562" lon="5.00435">
        <ele>244</ele>
        <time>2021-03-27T20:15:53.923Z</time>
      </trkpt>
      <trkpt lat="44.69605" lon="5.00426">
        <ele>246</ele>
        <time>2021-03-27T20:16:21.788Z</time>
      </trkpt>
      <trkpt lat="44.69648" lon="5.00425">
        <ele>249</ele>
        <time>2021-03-27T20:16:54.282Z</time>
      </trkpt>
      <trkpt lat="44.69705" lon="5.00437">
        <ele>252</ele>
        <time>2021-03-27T20:17:32.708Z</time>
      </trkpt>
      <trkpt lat="44.69815" lon="5.00456">
        <ele>251</ele>
        <time>2021-03-27T20:17:56.525Z</time>
      </trkpt>
      <trkpt lat="44.69843" lon="5.00463">
        <ele>251</ele>
        <time>2021-03-27T20:18:07.223Z</time>
      </trkpt>
      <trkpt lat="44.6987" lon="5.00472">
        <ele>251</ele>
        <time>2021-03-27T20:18:17.660Z</time>
      </trkpt>
      <trkpt lat="44.69895" lon="5.00483">
        <ele>251</ele>
        <time>2021-03-27T20:18:27.514Z</time>
      </trkpt>
      <trkpt lat="44.69917" lon="5.00499">
        <ele>252</ele>
        <time>2021-03-27T20:18:42.298Z</time>
      </trkpt>
      <trkpt lat="44.69937" lon="5.00518">
        <ele>249</ele>
        <time>2021-03-27T20:18:45.486Z</time>
      </trkpt>
      <trkpt lat="44.69956" lon="5.00541">
        <ele>247</ele>
        <time>2021-03-27T20:18:48.797Z</time>
      </trkpt>
      <trkpt lat="44.70024" lon="5.00661">
        <ele>243</ele>
        <time>2021-03-27T20:19:05.881Z</time>
      </trkpt>
      <trkpt lat="44.70049" lon="5.00709">
        <ele>244</ele>
        <time>2021-03-27T20:19:26.190Z</time>
      </trkpt>
      <trkpt lat="44.70066" lon="5.00754">
        <ele>244</ele>
        <time>2021-03-27T20:19:39.816Z</time>
      </trkpt>
      <trkpt lat="44.70078" lon="5.00792">
        <ele>244</ele>
        <time>2021-03-27T20:19:50.934Z</time>
      </trkpt>
      <trkpt lat="44.70088" lon="5.00833">
        <ele>243</ele>
        <time>2021-03-27T20:19:55.968Z</time>
      </trkpt>
      <trkpt lat="44.70099" lon="5.00864">
        <ele>242</ele>
        <time>2021-03-27T20:19:59.681Z</time>
      </trkpt>
      <trkpt lat="44.70112" lon="5.00895">
        <ele>242</ele>
        <time>2021-03-27T20:20:09.305Z</time>
      </trkpt>
      <trkpt lat="44.70125" lon="5.0091">
        <ele>241</ele>
        <time>2021-03-27T20:20:11.457Z</time>
      </trkpt>
      <trkpt lat="44.70142" lon="5.0092">
        <ele>240</ele>
        <time>2021-03-27T20:20:13.918Z</time>
      </trkpt>
      <trkpt lat="44.70157" lon="5.00919">
        <ele>238</ele>
        <time>2021-03-27T20:20:15.901Z</time>
      </trkpt>
      <trkpt lat="44.70171" lon="5.00913">
        <ele>237</ele>
        <time>2021-03-27T20:20:17.835Z</time>
      </trkpt>
      <trkpt lat="44.70193" lon="5.00885">
        <ele>236</ele>
        <time>2021-03-27T20:20:22.620Z</time>
      </trkpt>
      <trkpt lat="44.70231" lon="5.00832">
        <ele>234</ele>
        <time>2021-03-27T20:20:30.942Z</time>
      </trkpt>
      <trkpt lat="44.70252" lon="5.00814">
        <ele>235</ele>
        <time>2021-03-27T20:20:45.683Z</time>
      </trkpt>
      <trkpt lat="44.70403" lon="5.00703">
        <ele>232</ele>
        <time>2021-03-27T20:21:18.503Z</time>
      </trkpt>
      <trkpt lat="44.70511" lon="5.00624">
        <ele>231</ele>
        <time>2021-03-27T20:21:44.950Z</time>
      </trkpt>
      <trkpt lat="44.70528" lon="5.00614">
        <ele>230</ele>
        <time>2021-03-27T20:21:47.411Z</time>
      </trkpt>
      <trkpt lat="44.7054" lon="5.00611">
        <ele>230</ele>
        <time>2021-03-27T20:21:51.995Z</time>
      </trkpt>
      <trkpt lat="44.70559" lon="5.00608">
        <ele>230</ele>
        <time>2021-03-27T20:21:59.187Z</time>
      </trkpt>
      <trkpt lat="44.70657" lon="5.00603">
        <ele>229</ele>
        <time>2021-03-27T20:22:19.934Z</time>
      </trkpt>
      <trkpt lat="44.70673" lon="5.00604">
        <ele>229</ele>
        <time>2021-03-27T20:22:25.958Z</time>
      </trkpt>
      <trkpt lat="44.70689" lon="5.00607">
        <ele>229</ele>
        <time>2021-03-27T20:22:32.030Z</time>
      </trkpt>
      <trkpt lat="44.70693" lon="5.00608">
        <ele>229</ele>
        <time>2021-03-27T20:22:33.559Z</time>
      </trkpt>
      <trkpt lat="44.70716" lon="5.00615">
        <ele>229</ele>
        <time>2021-03-27T20:22:42.411Z</time>
      </trkpt>
      <trkpt lat="44.70733" lon="5.00623">
        <ele>229</ele>
        <time>2021-03-27T20:22:49.154Z</time>
      </trkpt>
      <trkpt lat="44.70739" lon="5.00625">
        <ele>229</ele>
        <time>2021-03-27T20:22:51.473Z</time>
      </trkpt>
      <trkpt lat="44.70746" lon="5.00628">
        <ele>229</ele>
        <time>2021-03-27T20:22:54.226Z</time>
      </trkpt>
      <trkpt lat="44.70835" lon="5.00663">
        <ele>228</ele>
        <time>2021-03-27T20:23:13.616Z</time>
      </trkpt>
      <trkpt lat="44.70908" lon="5.0069">
        <ele>227</ele>
        <time>2021-03-27T20:23:28.964Z</time>
      </trkpt>
      <trkpt lat="44.70931" lon="5.00696">
        <ele>226</ele>
        <time>2021-03-27T20:23:32.421Z</time>
      </trkpt>
      <trkpt lat="44.70961" lon="5.00697">
        <ele>224</ele>
        <time>2021-03-27T20:23:36.053Z</time>
      </trkpt>
      <trkpt lat="44.71045" lon="5.00688">
        <ele>221</ele>
        <time>2021-03-27T20:23:49.385Z</time>
      </trkpt>
      <trkpt lat="44.71157" lon="5.0068">
        <ele>219</ele>
        <time>2021-03-27T20:24:10.930Z</time>
      </trkpt>
      <trkpt lat="44.71205" lon="5.00694">
        <ele>219</ele>
        <time>2021-03-27T20:24:29.370Z</time>
      </trkpt>
      <trkpt lat="44.7124" lon="5.00712">
        <ele>219</ele>
        <time>2021-03-27T20:24:43.388Z</time>
      </trkpt>
      <trkpt lat="44.71335" lon="5.00759">
        <ele>215</ele>
        <time>2021-03-27T20:24:58.701Z</time>
      </trkpt>
      <trkpt lat="44.71443" lon="5.00816">
        <ele>215</ele>
        <time>2021-03-27T20:25:42.091Z</time>
      </trkpt>
      <trkpt lat="44.71525" lon="5.00893">
        <ele>213</ele>
        <time>2021-03-27T20:26:00.486Z</time>
      </trkpt>
      <trkpt lat="44.71528" lon="5.00896">
        <ele>213</ele>
        <time>2021-03-27T20:26:01.871Z</time>
      </trkpt>
      <trkpt lat="44.71535" lon="5.00902">
        <ele>213</ele>
        <time>2021-03-27T20:26:04.954Z</time>
      </trkpt>
      <trkpt lat="44.71608" lon="5.00977">
        <ele>213</ele>
        <time>2021-03-27T20:26:38.954Z</time>
      </trkpt>
      <trkpt lat="44.71675" lon="5.01039">
        <ele>212</ele>
        <time>2021-03-27T20:26:55.422Z</time>
      </trkpt>
      <trkpt lat="44.71791" lon="5.01111">
        <ele>212</ele>
        <time>2021-03-27T20:27:43.114Z</time>
      </trkpt>
      <trkpt lat="44.71811" lon="5.01123">
        <ele>212</ele>
        <time>2021-03-27T20:27:51.292Z</time>
      </trkpt>
      <trkpt lat="44.71852" lon="5.01147">
        <ele>211</ele>
        <time>2021-03-27T20:27:59.368Z</time>
      </trkpt>
      <trkpt lat="44.71879" lon="5.01175">
        <ele>210</ele>
        <time>2021-03-27T20:28:04.999Z</time>
      </trkpt>
      <trkpt lat="44.71928" lon="5.01222">
        <ele>209</ele>
        <time>2021-03-27T20:28:16.526Z</time>
      </trkpt>
      <trkpt lat="44.71977" lon="5.01266">
        <ele>208</ele>
        <time>2021-03-27T20:28:27.778Z</time>
      </trkpt>
      <trkpt lat="44.71993" lon="5.01285">
        <ele>208</ele>
        <time>2021-03-27T20:28:35.653Z</time>
      </trkpt>
      <trkpt lat="44.7203" lon="5.01327">
        <ele>208</ele>
        <time>2021-03-27T20:28:53.535Z</time>
      </trkpt>
      <trkpt lat="44.72069" lon="5.0138">
        <ele>208</ele>
        <time>2021-03-27T20:29:13.928Z</time>
      </trkpt>
      <trkpt lat="44.72155" lon="5.01485">
        <ele>200</ele>
        <time>2021-03-27T20:29:28.967Z</time>
      </trkpt>
      <trkpt lat="44.72204" lon="5.0156">
        <ele>198</ele>
        <time>2021-03-27T20:29:41.409Z</time>
      </trkpt>
      <trkpt lat="44.7221" lon="5.01569">
        <ele>198</ele>
        <time>2021-03-27T20:29:44.708Z</time>
      </trkpt>
      <trkpt lat="44.72217" lon="5.01577">
        <ele>197</ele>
        <time>2021-03-27T20:29:45.899Z</time>
      </trkpt>
      <trkpt lat="44.72223" lon="5.01584">
        <ele>197</ele>
        <time>2021-03-27T20:29:48.831Z</time>
      </trkpt>
      <trkpt lat="44.7223" lon="5.0159">
        <ele>197</ele>
        <time>2021-03-27T20:29:51.914Z</time>
      </trkpt>
      <trkpt lat="44.72249" lon="5.01612">
        <ele>197</ele>
        <time>2021-03-27T20:30:01.169Z</time>
      </trkpt>
      <trkpt lat="44.72268" lon="5.01634">
        <ele>196</ele>
        <time>2021-03-27T20:30:04.878Z</time>
      </trkpt>
      <trkpt lat="44.72318" lon="5.01681">
        <ele>193</ele>
        <time>2021-03-27T20:30:13.213Z</time>
      </trkpt>
      <trkpt lat="44.72382" lon="5.01739">
        <ele>191</ele>
        <time>2021-03-27T20:30:26.489Z</time>
      </trkpt>
      <trkpt lat="44.72392" lon="5.01749">
        <ele>191</ele>
        <time>2021-03-27T20:30:31.103Z</time>
      </trkpt>
      <trkpt lat="44.72409" lon="5.01765">
        <ele>190</ele>
        <time>2021-03-27T20:30:33.963Z</time>
      </trkpt>
      <trkpt lat="44.72434" lon="5.01798">
        <ele>190</ele>
        <time>2021-03-27T20:30:46.856Z</time>
      </trkpt>
      <trkpt lat="44.72443" lon="5.01812">
        <ele>190</ele>
        <time>2021-03-27T20:30:51.902Z</time>
      </trkpt>
      <trkpt lat="44.72475" lon="5.01887">
        <ele>188</ele>
        <time>2021-03-27T20:31:02.086Z</time>
      </trkpt>
      <trkpt lat="44.72483" lon="5.01899">
        <ele>187</ele>
        <time>2021-03-27T20:31:03.630Z</time>
      </trkpt>
      <trkpt lat="44.72491" lon="5.0191">
        <ele>187</ele>
        <time>2021-03-27T20:31:07.837Z</time>
      </trkpt>
      <trkpt lat="44.72509" lon="5.01928">
        <ele>186</ele>
        <time>2021-03-27T20:31:11.026Z</time>
      </trkpt>
      <trkpt lat="44.72524" lon="5.01943">
        <ele>187</ele>
        <time>2021-03-27T20:31:23.484Z</time>
      </trkpt>
      <trkpt lat="44.7262" lon="5.02036">
        <ele>186</ele>
        <time>2021-03-27T20:31:48.679Z</time>
      </trkpt>
      <trkpt lat="44.72628" lon="5.02046">
        <ele>186</ele>
        <time>2021-03-27T20:31:52.704Z</time>
      </trkpt>
      <trkpt lat="44.72634" lon="5.02071">
        <ele>186</ele>
        <time>2021-03-27T20:31:59.756Z</time>
      </trkpt>
      <trkpt lat="44.72633" lon="5.02078">
        <ele>186</ele>
        <time>2021-03-27T20:32:01.665Z</time>
      </trkpt>
      <trkpt lat="44.72634" lon="5.02087">
        <ele>186</ele>
        <time>2021-03-27T20:32:04.099Z</time>
      </trkpt>
      <trkpt lat="44.72637" lon="5.02095">
        <ele>186</ele>
        <time>2021-03-27T20:32:06.517Z</time>
      </trkpt>
      <trkpt lat="44.72641" lon="5.02099">
        <ele>186</ele>
        <time>2021-03-27T20:32:08.363Z</time>
      </trkpt>
      <trkpt lat="44.72645" lon="5.02102">
        <ele>186</ele>
        <time>2021-03-27T20:32:10.067Z</time>
      </trkpt>
      <trkpt lat="44.7265" lon="5.02102">
        <ele>186</ele>
        <time>2021-03-27T20:32:11.948Z</time>
      </trkpt>
      <trkpt lat="44.72667" lon="5.02107">
        <ele>186</ele>
        <time>2021-03-27T20:32:18.481Z</time>
      </trkpt>
      <trkpt lat="44.72668" lon="5.02109">
        <ele>186</ele>
        <time>2021-03-27T20:32:19.135Z</time>
      </trkpt>
      <trkpt lat="44.72676" lon="5.02115">
        <ele>186</ele>
        <time>2021-03-27T20:32:22.545Z</time>
      </trkpt>
      <trkpt lat="44.72679" lon="5.02117">
        <ele>186</ele>
        <time>2021-03-27T20:32:23.794Z</time>
      </trkpt>
      <trkpt lat="44.72685" lon="5.0212">
        <ele>186</ele>
        <time>2021-03-27T20:32:26.189Z</time>
      </trkpt>
      <trkpt lat="44.72743" lon="5.02147">
        <ele>188</ele>
        <time>2021-03-27T20:32:59.012Z</time>
      </trkpt>
      <trkpt lat="44.72755" lon="5.02153">
        <ele>189</ele>
        <time>2021-03-27T20:33:09.314Z</time>
      </trkpt>
      <trkpt lat="44.72739" lon="5.02236">
        <ele>189</ele>
        <time>2021-03-27T20:33:32.298Z</time>
      </trkpt>
      <trkpt lat="44.72732" lon="5.02276">
        <ele>188</ele>
        <time>2021-03-27T20:33:36.997Z</time>
      </trkpt>
      <trkpt lat="44.72727" lon="5.02299">
        <ele>188</ele>
        <time>2021-03-27T20:33:43.425Z</time>
      </trkpt>
      <trkpt lat="44.72715" lon="5.0236">
        <ele>188</ele>
        <time>2021-03-27T20:34:00.341Z</time>
      </trkpt>
      <trkpt lat="44.72712" lon="5.02376">
        <ele>188</ele>
        <time>2021-03-27T20:34:04.764Z</time>
      </trkpt>
      <trkpt lat="44.72709" lon="5.02401">
        <ele>188</ele>
        <time>2021-03-27T20:34:11.540Z</time>
      </trkpt>
      <trkpt lat="44.72708" lon="5.02433">
        <ele>188</ele>
        <time>2021-03-27T20:34:20.100Z</time>
      </trkpt>
      <trkpt lat="44.72693" lon="5.02536">
        <ele>188</ele>
        <time>2021-03-27T20:34:48.200Z</time>
      </trkpt>
      <trkpt lat="44.72677" lon="5.02644">
        <ele>188</ele>
        <time>2021-03-27T20:35:17.684Z</time>
      </trkpt>
      <trkpt lat="44.72655" lon="5.02767">
        <ele>188</ele>
        <time>2021-03-27T20:35:51.583Z</time>
      </trkpt>
      <trkpt lat="44.72646" lon="5.02823">
        <ele>189</ele>
        <time>2021-03-27T20:36:11.371Z</time>
      </trkpt>
      <trkpt lat="44.72635" lon="5.02874">
        <ele>189</ele>
        <time>2021-03-27T20:36:25.615Z</time>
      </trkpt>
      <trkpt lat="44.7263" lon="5.02897">
        <ele>189</ele>
        <time>2021-03-27T20:36:32.044Z</time>
      </trkpt>
      <trkpt lat="44.72599" lon="5.03044">
        <ele>189</ele>
        <time>2021-03-27T20:37:13.025Z</time>
      </trkpt>
      <trkpt lat="44.72592" lon="5.03075">
        <ele>189</ele>
        <time>2021-03-27T20:37:21.718Z</time>
      </trkpt>
      <trkpt lat="44.7259" lon="5.03084">
        <ele>189</ele>
        <time>2021-03-27T20:37:24.239Z</time>
      </trkpt>
      <trkpt lat="44.72578" lon="5.03126">
        <ele>190</ele>
        <time>2021-03-27T20:37:41.155Z</time>
      </trkpt>
      <trkpt lat="44.72569" lon="5.03145">
        <ele>190</ele>
        <time>2021-03-27T20:37:47.258Z</time>
      </trkpt>
      <trkpt lat="44.72564" lon="5.03157">
        <ele>191</ele>
        <time>2021-03-27T20:37:57.039Z</time>
      </trkpt>
      <trkpt lat="44.72552" lon="5.03181">
        <ele>191</ele>
        <time>2021-03-27T20:38:04.882Z</time>
      </trkpt>
      <trkpt lat="44.72527" lon="5.03215">
        <ele>192</ele>
        <time>2021-03-27T20:38:22.638Z</time>
      </trkpt>
      <trkpt lat="44.72493" lon="5.03263">
        <ele>192</ele>
        <time>2021-03-27T20:38:40.753Z</time>
      </trkpt>
      <trkpt lat="44.72441" lon="5.03335">
        <ele>193</ele>
        <time>2021-03-27T20:39:12.133Z</time>
      </trkpt>
      <trkpt lat="44.72392" lon="5.034">
        <ele>194</ele>
        <time>2021-03-27T20:39:41.450Z</time>
      </trkpt>
      <trkpt lat="44.72386" lon="5.03412">
        <ele>193</ele>
        <time>2021-03-27T20:39:42.827Z</time>
      </trkpt>
      <trkpt lat="44.7237" lon="5.03441">
        <ele>193</ele>
        <time>2021-03-27T20:39:52.640Z</time>
      </trkpt>
      <trkpt lat="44.72324" lon="5.03545">
        <ele>192</ele>
        <time>2021-03-27T20:40:10.745Z</time>
      </trkpt>
      <trkpt lat="44.7231" lon="5.03574">
        <ele>193</ele>
        <time>2021-03-27T20:40:25.565Z</time>
      </trkpt>
      <trkpt lat="44.72279" lon="5.0364">
        <ele>193</ele>
        <time>2021-03-27T20:40:46.711Z</time>
      </trkpt>
      <trkpt lat="44.72254" lon="5.03692">
        <ele>194</ele>
        <time>2021-03-27T20:41:07.828Z</time>
      </trkpt>
      <trkpt lat="44.7223" lon="5.03732">
        <ele>194</ele>
        <time>2021-03-27T20:41:21.821Z</time>
      </trkpt>
      <trkpt lat="44.72223" lon="5.03731">
        <ele>194</ele>
        <time>2021-03-27T20:41:24.468Z</time>
      </trkpt>
      <trkpt lat="44.72218" lon="5.03734">
        <ele>194</ele>
        <time>2021-03-27T20:41:26.512Z</time>
      </trkpt>
      <trkpt lat="44.72215" lon="5.03738">
        <ele>194</ele>
        <time>2021-03-27T20:41:28.067Z</time>
      </trkpt>
      <trkpt lat="44.72211" lon="5.03747">
        <ele>194</ele>
        <time>2021-03-27T20:41:30.904Z</time>
      </trkpt>
      <trkpt lat="44.72211" lon="5.03754">
        <ele>194</ele>
        <time>2021-03-27T20:41:32.775Z</time>
      </trkpt>
      <trkpt lat="44.72212" lon="5.03761">
        <ele>194</ele>
        <time>2021-03-27T20:41:34.684Z</time>
      </trkpt>
      <trkpt lat="44.72214" lon="5.03765">
        <ele>194</ele>
        <time>2021-03-27T20:41:35.991Z</time>
      </trkpt>
      <trkpt lat="44.72205" lon="5.03796">
        <ele>194</ele>
        <time>2021-03-27T20:41:44.941Z</time>
      </trkpt>
      <trkpt lat="44.71881" lon="5.04486">
        <ele>196</ele>
        <time>2021-03-27T20:45:33.116Z</time>
      </trkpt>
      <trkpt lat="44.71717" lon="5.04841">
        <ele>197</ele>
        <time>2021-03-27T20:47:29.851Z</time>
      </trkpt>
      <trkpt lat="44.7171" lon="5.04856">
        <ele>197</ele>
        <time>2021-03-27T20:47:34.648Z</time>
      </trkpt>
      <trkpt lat="44.71705" lon="5.04863">
        <ele>197</ele>
        <time>2021-03-27T20:47:37.301Z</time>
      </trkpt>
      <trkpt lat="44.71698" lon="5.0487">
        <ele>197</ele>
        <time>2021-03-27T20:47:40.531Z</time>
      </trkpt>
      <trkpt lat="44.71692" lon="5.04871">
        <ele>197</ele>
        <time>2021-03-27T20:47:42.804Z</time>
      </trkpt>
      <trkpt lat="44.71689" lon="5.04873">
        <ele>197</ele>
        <time>2021-03-27T20:47:44.053Z</time>
      </trkpt>
      <trkpt lat="44.71685" lon="5.04879">
        <ele>197</ele>
        <time>2021-03-27T20:47:46.252Z</time>
      </trkpt>
      <trkpt lat="44.71683" lon="5.04887">
        <ele>197</ele>
        <time>2021-03-27T20:47:48.519Z</time>
      </trkpt>
      <trkpt lat="44.71683" lon="5.04896">
        <ele>197</ele>
        <time>2021-03-27T20:47:50.925Z</time>
      </trkpt>
      <trkpt lat="44.71684" lon="5.04907">
        <ele>198</ele>
        <time>2021-03-27T20:48:01.372Z</time>
      </trkpt>
      <trkpt lat="44.71682" lon="5.04919">
        <ele>198</ele>
        <time>2021-03-27T20:48:04.667Z</time>
      </trkpt>
      <trkpt lat="44.71674" lon="5.0495">
        <ele>198</ele>
        <time>2021-03-27T20:48:13.483Z</time>
      </trkpt>
      <trkpt lat="44.71643" lon="5.05045">
        <ele>200</ele>
        <time>2021-03-27T20:48:50.573Z</time>
      </trkpt>
      <trkpt lat="44.7162" lon="5.0515">
        <ele>202</ele>
        <time>2021-03-27T20:49:28.947Z</time>
      </trkpt>
      <trkpt lat="44.7161" lon="5.05209">
        <ele>203</ele>
        <time>2021-03-27T20:49:49.536Z</time>
      </trkpt>
      <trkpt lat="44.71601" lon="5.05256">
        <ele>204</ele>
        <time>2021-03-27T20:50:07.234Z</time>
      </trkpt>
      <trkpt lat="44.71571" lon="5.05524">
        <ele>206</ele>
        <time>2021-03-27T20:51:27.371Z</time>
      </trkpt>
      <trkpt lat="44.7157" lon="5.05532">
        <ele>206</ele>
        <time>2021-03-27T20:51:29.542Z</time>
      </trkpt>
      <trkpt lat="44.71567" lon="5.05548">
        <ele>206</ele>
        <time>2021-03-27T20:51:33.966Z</time>
      </trkpt>
      <trkpt lat="44.71568" lon="5.05557">
        <ele>206</ele>
        <time>2021-03-27T20:51:36.401Z</time>
      </trkpt>
      <trkpt lat="44.71571" lon="5.05575">
        <ele>207</ele>
        <time>2021-03-27T20:51:46.826Z</time>
      </trkpt>
      <trkpt lat="44.71572" lon="5.05581">
        <ele>207</ele>
        <time>2021-03-27T20:51:48.474Z</time>
      </trkpt>
      <trkpt lat="44.71573" lon="5.05586">
        <ele>207</ele>
        <time>2021-03-27T20:51:49.862Z</time>
      </trkpt>
      <trkpt lat="44.71574" lon="5.05595">
        <ele>208</ele>
        <time>2021-03-27T20:51:59.254Z</time>
      </trkpt>
      <trkpt lat="44.71574" lon="5.05597">
        <ele>208</ele>
        <time>2021-03-27T20:51:59.789Z</time>
      </trkpt>
      <trkpt lat="44.71573" lon="5.05632">
        <ele>208</ele>
        <time>2021-03-27T20:52:09.152Z</time>
      </trkpt>
      <trkpt lat="44.71572" lon="5.05649">
        <ele>208</ele>
        <time>2021-03-27T20:52:13.712Z</time>
      </trkpt>
      <trkpt lat="44.71571" lon="5.05655">
        <ele>208</ele>
        <time>2021-03-27T20:52:15.359Z</time>
      </trkpt>
      <trkpt lat="44.71567" lon="5.05682">
        <ele>208</ele>
        <time>2021-03-27T20:52:22.732Z</time>
      </trkpt>
      <trkpt lat="44.7156" lon="5.05724">
        <ele>207</ele>
        <time>2021-03-27T20:52:27.732Z</time>
      </trkpt>
      <trkpt lat="44.71558" lon="5.05734">
        <ele>207</ele>
        <time>2021-03-27T20:52:30.509Z</time>
      </trkpt>
      <trkpt lat="44.71555" lon="5.05748">
        <ele>207</ele>
        <time>2021-03-27T20:52:34.417Z</time>
      </trkpt>
      <trkpt lat="44.71532" lon="5.05859">
        <ele>206</ele>
        <time>2021-03-27T20:52:51.357Z</time>
      </trkpt>
      <trkpt lat="44.71531" lon="5.05878">
        <ele>206</ele>
        <time>2021-03-27T20:52:56.449Z</time>
      </trkpt>
      <trkpt lat="44.71528" lon="5.05924">
        <ele>207</ele>
        <time>2021-03-27T20:53:13.577Z</time>
      </trkpt>
      <trkpt lat="44.71525" lon="5.06036">
        <ele>209</ele>
        <time>2021-03-27T20:53:52.487Z</time>
      </trkpt>
      <trkpt lat="44.71528" lon="5.06057">
        <ele>209</ele>
        <time>2021-03-27T20:53:58.212Z</time>
      </trkpt>
      <trkpt lat="44.71526" lon="5.06062">
        <ele>209</ele>
        <time>2021-03-27T20:53:59.746Z</time>
      </trkpt>
      <trkpt lat="44.71525" lon="5.06069">
        <ele>209</ele>
        <time>2021-03-27T20:54:01.655Z</time>
      </trkpt>
      <trkpt lat="44.71526" lon="5.06074">
        <ele>209</ele>
        <time>2021-03-27T20:54:03.043Z</time>
      </trkpt>
      <trkpt lat="44.7153" lon="5.06079">
        <ele>209</ele>
        <time>2021-03-27T20:54:05.056Z</time>
      </trkpt>
      <trkpt lat="44.71524" lon="5.06117">
        <ele>210</ele>
        <time>2021-03-27T20:54:20.613Z</time>
      </trkpt>
      <trkpt lat="44.71519" lon="5.06198">
        <ele>210</ele>
        <time>2021-03-27T20:54:42.346Z</time>
      </trkpt>
      <trkpt lat="44.71515" lon="5.06266">
        <ele>209</ele>
        <time>2021-03-27T20:54:51.359Z</time>
      </trkpt>
      <trkpt lat="44.7151" lon="5.06364">
        <ele>208</ele>
        <time>2021-03-27T20:55:05.364Z</time>
      </trkpt>
      <trkpt lat="44.71495" lon="5.06685">
        <ele>207</ele>
        <time>2021-03-27T20:56:25.955Z</time>
      </trkpt>
      <trkpt lat="44.71488" lon="5.0687">
        <ele>206</ele>
        <time>2021-03-27T20:56:54.802Z</time>
      </trkpt>
      <trkpt lat="44.71489" lon="5.06926">
        <ele>206</ele>
        <time>2021-03-27T20:57:09.776Z</time>
      </trkpt>
      <trkpt lat="44.71494" lon="5.0698">
        <ele>207</ele>
        <time>2021-03-27T20:57:28.847Z</time>
      </trkpt>
      <trkpt lat="44.71517" lon="5.07192">
        <ele>205</ele>
        <time>2021-03-27T20:57:59.884Z</time>
      </trkpt>
      <trkpt lat="44.71527" lon="5.07307">
        <ele>206</ele>
        <time>2021-03-27T20:58:34.731Z</time>
      </trkpt>
      <trkpt lat="44.71529" lon="5.07386">
        <ele>207</ele>
        <time>2021-03-27T20:58:59.979Z</time>
      </trkpt>
      <trkpt lat="44.7153" lon="5.07655">
        <ele>216</ele>
        <time>2021-03-27T21:01:03.354Z</time>
      </trkpt>
      <trkpt lat="44.7152" lon="5.0771">
        <ele>219</ele>
        <time>2021-03-27T21:01:34.930Z</time>
      </trkpt>
      <trkpt lat="44.7145" lon="5.07793">
        <ele>217</ele>
        <time>2021-03-27T21:01:51.705Z</time>
      </trkpt>
      <trkpt lat="44.71251" lon="5.08113">
        <ele>215</ele>
        <time>2021-03-27T21:03:34.910Z</time>
      </trkpt>
      <trkpt lat="44.71243" lon="5.08134">
        <ele>215</ele>
        <time>2021-03-27T21:03:41.280Z</time>
      </trkpt>
      <trkpt lat="44.71227" lon="5.08185">
        <ele>215</ele>
        <time>2021-03-27T21:03:56.183Z</time>
      </trkpt>
      <trkpt lat="44.71222" lon="5.08216">
        <ele>216</ele>
        <time>2021-03-27T21:04:10.476Z</time>
      </trkpt>
      <trkpt lat="44.71212" lon="5.08292">
        <ele>218</ele>
        <time>2021-03-27T21:04:41.478Z</time>
      </trkpt>
      <trkpt lat="44.71212" lon="5.08313">
        <ele>219</ele>
        <time>2021-03-27T21:04:52.525Z</time>
      </trkpt>
      <trkpt lat="44.71239" lon="5.08434">
        <ele>223</ele>
        <time>2021-03-27T21:05:49.652Z</time>
      </trkpt>
      <trkpt lat="44.71243" lon="5.08459">
        <ele>223</ele>
        <time>2021-03-27T21:05:56.502Z</time>
      </trkpt>
      <trkpt lat="44.71243" lon="5.08462">
        <ele>223</ele>
        <time>2021-03-27T21:05:57.304Z</time>
      </trkpt>
      <trkpt lat="44.71244" lon="5.08471">
        <ele>223</ele>
        <time>2021-03-27T21:05:59.739Z</time>
      </trkpt>
      <trkpt lat="44.71243" lon="5.08487">
        <ele>223</ele>
        <time>2021-03-27T21:06:04.033Z</time>
      </trkpt>
      <trkpt lat="44.71239" lon="5.08515">
        <ele>222</ele>
        <time>2021-03-27T21:06:06.862Z</time>
      </trkpt>
      <trkpt lat="44.71236" lon="5.08529">
        <ele>222</ele>
        <time>2021-03-27T21:06:10.771Z</time>
      </trkpt>
      <trkpt lat="44.7123" lon="5.08555">
        <ele>221</ele>
        <time>2021-03-27T21:06:13.427Z</time>
      </trkpt>
      <trkpt lat="44.71193" lon="5.08708">
        <ele>219</ele>
        <time>2021-03-27T21:06:35.605Z</time>
      </trkpt>
      <trkpt lat="44.71184" lon="5.08748">
        <ele>219</ele>
        <time>2021-03-27T21:06:46.821Z</time>
      </trkpt>
      <trkpt lat="44.71156" lon="5.08847">
        <ele>219</ele>
        <time>2021-03-27T21:07:15.305Z</time>
      </trkpt>
      <trkpt lat="44.7115" lon="5.08864">
        <ele>219</ele>
        <time>2021-03-27T21:07:20.380Z</time>
      </trkpt>
      <trkpt lat="44.71141" lon="5.08883">
        <ele>219</ele>
        <time>2021-03-27T21:07:26.484Z</time>
      </trkpt>
      <trkpt lat="44.71124" lon="5.08914">
        <ele>219</ele>
        <time>2021-03-27T21:07:36.951Z</time>
      </trkpt>
      <trkpt lat="44.71096" lon="5.08965">
        <ele>217</ele>
        <time>2021-03-27T21:07:43.664Z</time>
      </trkpt>
      <trkpt lat="44.71084" lon="5.08986">
        <ele>216</ele>
        <time>2021-03-27T21:07:46.266Z</time>
      </trkpt>
      <trkpt lat="44.7108" lon="5.08994">
        <ele>216</ele>
        <time>2021-03-27T21:07:48.881Z</time>
      </trkpt>
      <trkpt lat="44.71062" lon="5.09026">
        <ele>218</ele>
        <time>2021-03-27T21:08:10.663Z</time>
      </trkpt>
      <trkpt lat="44.71054" lon="5.09042">
        <ele>219</ele>
        <time>2021-03-27T21:08:21.342Z</time>
      </trkpt>
      <trkpt lat="44.71043" lon="5.09056">
        <ele>220</ele>
        <time>2021-03-27T21:08:32.355Z</time>
      </trkpt>
      <trkpt lat="44.71035" lon="5.09065">
        <ele>221</ele>
        <time>2021-03-27T21:08:42.149Z</time>
      </trkpt>
      <trkpt lat="44.70985" lon="5.09092">
        <ele>223</ele>
        <time>2021-03-27T21:09:12.769Z</time>
      </trkpt>
      <trkpt lat="44.70973" lon="5.09089">
        <ele>222</ele>
        <time>2021-03-27T21:09:14.379Z</time>
      </trkpt>
      <trkpt lat="44.70965" lon="5.09088">
        <ele>222</ele>
        <time>2021-03-27T21:09:17.400Z</time>
      </trkpt>
      <trkpt lat="44.70958" lon="5.09089">
        <ele>221</ele>
        <time>2021-03-27T21:09:18.329Z</time>
      </trkpt>
      <trkpt lat="44.70955" lon="5.09087">
        <ele>221</ele>
        <time>2021-03-27T21:09:19.578Z</time>
      </trkpt>
      <trkpt lat="44.70954" lon="5.09087">
        <ele>221</ele>
        <time>2021-03-27T21:09:19.954Z</time>
      </trkpt>
      <trkpt lat="44.70951" lon="5.09088">
        <ele>221</ele>
        <time>2021-03-27T21:09:21.114Z</time>
      </trkpt>
      <trkpt lat="44.70947" lon="5.09093">
        <ele>221</ele>
        <time>2021-03-27T21:09:23.127Z</time>
      </trkpt>
      <trkpt lat="44.70946" lon="5.09097">
        <ele>221</ele>
        <time>2021-03-27T21:09:24.260Z</time>
      </trkpt>
      <trkpt lat="44.70946" lon="5.09099">
        <ele>221</ele>
        <time>2021-03-27T21:09:24.795Z</time>
      </trkpt>
      <trkpt lat="44.70941" lon="5.09107">
        <ele>221</ele>
        <time>2021-03-27T21:09:27.643Z</time>
      </trkpt>
      <trkpt lat="44.70935" lon="5.09122">
        <ele>221</ele>
        <time>2021-03-27T21:09:32.245Z</time>
      </trkpt>
      <trkpt lat="44.70928" lon="5.09143">
        <ele>222</ele>
        <time>2021-03-27T21:09:43.902Z</time>
      </trkpt>
      <trkpt lat="44.70895" lon="5.09213">
        <ele>221</ele>
        <time>2021-03-27T21:09:55.522Z</time>
      </trkpt>
      <trkpt lat="44.70848" lon="5.09347">
        <ele>221</ele>
        <time>2021-03-27T21:10:35.471Z</time>
      </trkpt>
      <trkpt lat="44.70563" lon="5.10507">
        <ele>220</ele>
        <time>2021-03-27T21:15:57.939Z</time>
      </trkpt>
      <trkpt lat="44.70556" lon="5.10552">
        <ele>220</ele>
        <time>2021-03-27T21:16:10.255Z</time>
      </trkpt>
      <trkpt lat="44.70552" lon="5.10584">
        <ele>220</ele>
        <time>2021-03-27T21:16:18.942Z</time>
      </trkpt>
      <trkpt lat="44.70553" lon="5.10628">
        <ele>220</ele>
        <time>2021-03-27T21:16:30.711Z</time>
      </trkpt>
      <trkpt lat="44.70575" lon="5.10863">
        <ele>233</ele>
        <time>2021-03-27T21:18:45.515Z</time>
      </trkpt>
      <trkpt lat="44.70576" lon="5.10876">
        <ele>233</ele>
        <time>2021-03-27T21:18:49.011Z</time>
      </trkpt>
      <trkpt lat="44.70573" lon="5.10892">
        <ele>232</ele>
        <time>2021-03-27T21:18:50.565Z</time>
      </trkpt>
      <trkpt lat="44.70565" lon="5.10909">
        <ele>231</ele>
        <time>2021-03-27T21:18:52.479Z</time>
      </trkpt>
      <trkpt lat="44.70475" lon="5.11071">
        <ele>231</ele>
        <time>2021-03-27T21:19:47.452Z</time>
      </trkpt>
      <trkpt lat="44.70435" lon="5.11182">
        <ele>230</ele>
        <time>2021-03-27T21:20:05.895Z</time>
      </trkpt>
      <trkpt lat="44.70428" lon="5.11195">
        <ele>230</ele>
        <time>2021-03-27T21:20:10.255Z</time>
      </trkpt>
      <trkpt lat="44.70422" lon="5.11204">
        <ele>229</ele>
        <time>2021-03-27T21:20:11.414Z</time>
      </trkpt>
      <trkpt lat="44.70415" lon="5.1121">
        <ele>228</ele>
        <time>2021-03-27T21:20:12.496Z</time>
      </trkpt>
      <trkpt lat="44.704" lon="5.11215">
        <ele>227</ele>
        <time>2021-03-27T21:20:14.387Z</time>
      </trkpt>
      <trkpt lat="44.70401" lon="5.11225">
        <ele>227</ele>
        <time>2021-03-27T21:20:17.087Z</time>
      </trkpt>
      <trkpt lat="44.70402" lon="5.11238">
        <ele>228</ele>
        <time>2021-03-27T21:20:26.906Z</time>
      </trkpt>
      <trkpt lat="44.70404" lon="5.11278">
        <ele>228</ele>
        <time>2021-03-27T21:20:37.627Z</time>
      </trkpt>
      <trkpt lat="44.70404" lon="5.11292">
        <ele>229</ele>
        <time>2021-03-27T21:20:47.408Z</time>
      </trkpt>
      <trkpt lat="44.70403" lon="5.11371">
        <ele>229</ele>
        <time>2021-03-27T21:21:08.533Z</time>
      </trkpt>
      <trkpt lat="44.704" lon="5.11405">
        <ele>228</ele>
        <time>2021-03-27T21:21:12.189Z</time>
      </trkpt>
      <trkpt lat="44.70398" lon="5.11425">
        <ele>228</ele>
        <time>2021-03-27T21:21:17.589Z</time>
      </trkpt>
      <trkpt lat="44.70388" lon="5.11494">
        <ele>227</ele>
        <time>2021-03-27T21:21:26.963Z</time>
      </trkpt>
      <trkpt lat="44.70381" lon="5.11543">
        <ele>227</ele>
        <time>2021-03-27T21:21:40.326Z</time>
      </trkpt>
      <trkpt lat="44.70374" lon="5.11622">
        <ele>228</ele>
        <time>2021-03-27T21:22:05.722Z</time>
      </trkpt>
      <trkpt lat="44.70372" lon="5.11702">
        <ele>228</ele>
        <time>2021-03-27T21:22:27.124Z</time>
      </trkpt>
      <trkpt lat="44.70367" lon="5.1176">
        <ele>228</ele>
        <time>2021-03-27T21:22:42.745Z</time>
      </trkpt>
      <trkpt lat="44.70352" lon="5.11851">
        <ele>230</ele>
        <time>2021-03-27T21:23:17.238Z</time>
      </trkpt>
      <trkpt lat="44.70325" lon="5.11929">
        <ele>230</ele>
        <time>2021-03-27T21:23:40.434Z</time>
      </trkpt>
      <trkpt lat="44.703" lon="5.11982">
        <ele>231</ele>
        <time>2021-03-27T21:24:01.762Z</time>
      </trkpt>
      <trkpt lat="44.69977" lon="5.12498">
        <ele>232</ele>
        <time>2021-03-27T21:27:09.114Z</time>
      </trkpt>
      <trkpt lat="44.69931" lon="5.12588">
        <ele>233</ele>
        <time>2021-03-27T21:27:42.653Z</time>
      </trkpt>
      <trkpt lat="44.69884" lon="5.12725">
        <ele>232</ele>
        <time>2021-03-27T21:28:05.820Z</time>
      </trkpt>
      <trkpt lat="44.69858" lon="5.12872">
        <ele>232</ele>
        <time>2021-03-27T21:28:46.325Z</time>
      </trkpt>
      <trkpt lat="44.69751" lon="5.13616">
        <ele>235</ele>
        <time>2021-03-27T21:32:20.186Z</time>
      </trkpt>
      <trkpt lat="44.69741" lon="5.13771">
        <ele>236</ele>
        <time>2021-03-27T21:33:05.558Z</time>
      </trkpt>
      <trkpt lat="44.69749" lon="5.13926">
        <ele>237</ele>
        <time>2021-03-27T21:33:50.871Z</time>
      </trkpt>
      <trkpt lat="44.6985" lon="5.15139">
        <ele>245</ele>
        <time>2021-03-27T21:39:47.539Z</time>
      </trkpt>
      <trkpt lat="44.69853" lon="5.15218">
        <ele>245</ele>
        <time>2021-03-27T21:40:08.693Z</time>
      </trkpt>
      <trkpt lat="44.69851" lon="5.1529">
        <ele>245</ele>
        <time>2021-03-27T21:40:27.959Z</time>
      </trkpt>
      <trkpt lat="44.69841" lon="5.15372">
        <ele>246</ele>
        <time>2021-03-27T21:40:54.282Z</time>
      </trkpt>
      <trkpt lat="44.69748" lon="5.15808">
        <ele>251</ele>
        <time>2021-03-27T21:43:16.069Z</time>
      </trkpt>
      <trkpt lat="44.69726" lon="5.15931">
        <ele>251</ele>
        <time>2021-03-27T21:43:49.984Z</time>
      </trkpt>
      <trkpt lat="44.69673" lon="5.16319">
        <ele>256</ele>
        <time>2021-03-27T21:45:56.216Z</time>
      </trkpt>
      <trkpt lat="44.69654" lon="5.16445">
        <ele>257</ele>
        <time>2021-03-27T21:46:34.486Z</time>
      </trkpt>
      <trkpt lat="44.69597" lon="5.16629">
        <ele>254</ele>
        <time>2021-03-27T21:47:00.883Z</time>
      </trkpt>
      <trkpt lat="44.69549" lon="5.16715">
        <ele>254</ele>
        <time>2021-03-27T21:47:30.121Z</time>
      </trkpt>
      <trkpt lat="44.69482" lon="5.16828">
        <ele>254</ele>
        <time>2021-03-27T21:48:09.469Z</time>
      </trkpt>
      <trkpt lat="44.69441" lon="5.16903">
        <ele>255</ele>
        <time>2021-03-27T21:48:38.758Z</time>
      </trkpt>
      <trkpt lat="44.69404" lon="5.16984">
        <ele>257</ele>
        <time>2021-03-27T21:49:13.914Z</time>
      </trkpt>
      <trkpt lat="44.69384" lon="5.17001">
        <ele>256</ele>
        <time>2021-03-27T21:49:17.366Z</time>
      </trkpt>
      <trkpt lat="44.69376" lon="5.17002">
        <ele>254</ele>
        <time>2021-03-27T21:49:18.427Z</time>
      </trkpt>
      <trkpt lat="44.69369" lon="5.17007">
        <ele>253</ele>
        <time>2021-03-27T21:49:19.464Z</time>
      </trkpt>
      <trkpt lat="44.69363" lon="5.17015">
        <ele>252</ele>
        <time>2021-03-27T21:49:20.556Z</time>
      </trkpt>
      <trkpt lat="44.6936" lon="5.17025">
        <ele>252</ele>
        <time>2021-03-27T21:49:23.459Z</time>
      </trkpt>
      <trkpt lat="44.6936" lon="5.17037">
        <ele>253</ele>
        <time>2021-03-27T21:49:33.487Z</time>
      </trkpt>
      <trkpt lat="44.69362" lon="5.17047">
        <ele>253</ele>
        <time>2021-03-27T21:49:36.265Z</time>
      </trkpt>
      <trkpt lat="44.69358" lon="5.17089">
        <ele>254</ele>
        <time>2021-03-27T21:49:52.547Z</time>
      </trkpt>
      <trkpt lat="44.69332" lon="5.17177">
        <ele>251</ele>
        <time>2021-03-27T21:50:02.420Z</time>
      </trkpt>
      <trkpt lat="44.6931" lon="5.17267">
        <ele>250</ele>
        <time>2021-03-27T21:50:15.914Z</time>
      </trkpt>
      <trkpt lat="44.69285" lon="5.17395">
        <ele>250</ele>
        <time>2021-03-27T21:50:51.411Z</time>
      </trkpt>
      <trkpt lat="44.69268" lon="5.17564">
        <ele>250</ele>
        <time>2021-03-27T21:51:37.054Z</time>
      </trkpt>
      <trkpt lat="44.69266" lon="5.17593">
        <ele>250</ele>
        <time>2021-03-27T21:51:44.846Z</time>
      </trkpt>
      <trkpt lat="44.69264" lon="5.17713">
        <ele>251</ele>
        <time>2021-03-27T21:52:20.804Z</time>
      </trkpt>
      <trkpt lat="44.69256" lon="5.17809">
        <ele>253</ele>
        <time>2021-03-27T21:52:56.048Z</time>
      </trkpt>
      <trkpt lat="44.69202" lon="5.18196">
        <ele>255</ele>
        <time>2021-03-27T21:54:48.886Z</time>
      </trkpt>
      <trkpt lat="44.69203" lon="5.18279">
        <ele>255</ele>
        <time>2021-03-27T21:55:11.085Z</time>
      </trkpt>
      <trkpt lat="44.69215" lon="5.18377">
        <ele>255</ele>
        <time>2021-03-27T21:55:37.678Z</time>
      </trkpt>
      <trkpt lat="44.69272" lon="5.18704">
        <ele>258</ele>
        <time>2021-03-27T21:57:19.391Z</time>
      </trkpt>
      <trkpt lat="44.6929" lon="5.18761">
        <ele>258</ele>
        <time>2021-03-27T21:57:36.070Z</time>
      </trkpt>
      <trkpt lat="44.69322" lon="5.18844">
        <ele>257</ele>
        <time>2021-03-27T21:57:49.438Z</time>
      </trkpt>
      <trkpt lat="44.6937" lon="5.1895">
        <ele>258</ele>
        <time>2021-03-27T21:58:26.885Z</time>
      </trkpt>
      <trkpt lat="44.69397" lon="5.19022">
        <ele>259</ele>
        <time>2021-03-27T21:58:52.746Z</time>
      </trkpt>
      <trkpt lat="44.69419" lon="5.19099">
        <ele>261</ele>
        <time>2021-03-27T21:59:24.933Z</time>
      </trkpt>
      <trkpt lat="44.69434" lon="5.19171">
        <ele>266</ele>
        <time>2021-03-27T22:00:14.110Z</time>
      </trkpt>
      <trkpt lat="44.69455" lon="5.19329">
        <ele>269</ele>
        <time>2021-03-27T22:01:10.703Z</time>
      </trkpt>
      <trkpt lat="44.69481" lon="5.19529">
        <ele>270</ele>
        <time>2021-03-27T22:02:08.749Z</time>
      </trkpt>
      <trkpt lat="44.69491" lon="5.1964">
        <ele>270</ele>
        <time>2021-03-27T22:02:38.669Z</time>
      </trkpt>
      <trkpt lat="44.69503" lon="5.19792">
        <ele>270</ele>
        <time>2021-03-27T22:03:19.564Z</time>
      </trkpt>
      <trkpt lat="44.69504" lon="5.19827">
        <ele>272</ele>
        <time>2021-03-27T22:03:40.003Z</time>
      </trkpt>
      <trkpt lat="44.69505" lon="5.19895">
        <ele>271</ele>
        <time>2021-03-27T22:03:48.983Z</time>
      </trkpt>
      <trkpt lat="44.69502" lon="5.19946">
        <ele>271</ele>
        <time>2021-03-27T22:04:02.668Z</time>
      </trkpt>
      <trkpt lat="44.69497" lon="5.19991">
        <ele>273</ele>
        <time>2021-03-27T22:04:25.744Z</time>
      </trkpt>
      <trkpt lat="44.69466" lon="5.2009">
        <ele>276</ele>
        <time>2021-03-27T22:05:10.756Z</time>
      </trkpt>
      <trkpt lat="44.69455" lon="5.20118">
        <ele>277</ele>
        <time>2021-03-27T22:05:25.080Z</time>
      </trkpt>
      <trkpt lat="44.69424" lon="5.20211">
        <ele>277</ele>
        <time>2021-03-27T22:05:52.547Z</time>
      </trkpt>
      <trkpt lat="44.69406" lon="5.20264">
        <ele>275</ele>
        <time>2021-03-27T22:05:58.438Z</time>
      </trkpt>
      <trkpt lat="44.69377" lon="5.20327">
        <ele>271</ele>
        <time>2021-03-27T22:06:05.485Z</time>
      </trkpt>
      <trkpt lat="44.69292" lon="5.20505">
        <ele>272</ele>
        <time>2021-03-27T22:07:06.493Z</time>
      </trkpt>
      <trkpt lat="44.69258" lon="5.20569">
        <ele>277</ele>
        <time>2021-03-27T22:07:56.251Z</time>
      </trkpt>
      <trkpt lat="44.69191" lon="5.20672">
        <ele>280</ele>
        <time>2021-03-27T22:08:47.880Z</time>
      </trkpt>
      <trkpt lat="44.69101" lon="5.2079">
        <ele>282</ele>
        <time>2021-03-27T22:09:42.258Z</time>
      </trkpt>
      <trkpt lat="44.69058" lon="5.20853">
        <ele>283</ele>
        <time>2021-03-27T22:10:09.656Z</time>
      </trkpt>
      <trkpt lat="44.69034" lon="5.20907">
        <ele>284</ele>
        <time>2021-03-27T22:10:31.006Z</time>
      </trkpt>
      <trkpt lat="44.69024" lon="5.20956">
        <ele>284</ele>
        <time>2021-03-27T22:10:44.639Z</time>
      </trkpt>
      <trkpt lat="44.69022" lon="5.21018">
        <ele>288</ele>
        <time>2021-03-27T22:11:24.199Z</time>
      </trkpt>
      <trkpt lat="44.69018" lon="5.21065">
        <ele>290</ele>
        <time>2021-03-27T22:11:47.792Z</time>
      </trkpt>
      <trkpt lat="44.68994" lon="5.21115">
        <ele>286</ele>
        <time>2021-03-27T22:11:53.457Z</time>
      </trkpt>
      <trkpt lat="44.6898" lon="5.21157">
        <ele>289</ele>
        <time>2021-03-27T22:12:23.108Z</time>
      </trkpt>
      <trkpt lat="44.68979" lon="5.2119">
        <ele>287</ele>
        <time>2021-03-27T22:12:26.210Z</time>
      </trkpt>
      <trkpt lat="44.68989" lon="5.21224">
        <ele>283</ele>
        <time>2021-03-27T22:12:29.665Z</time>
      </trkpt>
      <trkpt lat="44.69088" lon="5.21337">
        <ele>281</ele>
        <time>2021-03-27T22:12:54.808Z</time>
      </trkpt>
      <trkpt lat="44.69136" lon="5.21396">
        <ele>294</ele>
        <time>2021-03-27T22:14:27.296Z</time>
      </trkpt>
      <trkpt lat="44.69156" lon="5.21433">
        <ele>292</ele>
        <time>2021-03-27T22:14:31.490Z</time>
      </trkpt>
      <trkpt lat="44.6917" lon="5.21472">
        <ele>293</ele>
        <time>2021-03-27T22:14:48.061Z</time>
      </trkpt>
      <trkpt lat="44.69177" lon="5.21518">
        <ele>295</ele>
        <time>2021-03-27T22:15:11.567Z</time>
      </trkpt>
      <trkpt lat="44.69169" lon="5.21577">
        <ele>290</ele>
        <time>2021-03-27T22:15:17.208Z</time>
      </trkpt>
      <trkpt lat="44.69147" lon="5.21633">
        <ele>290</ele>
        <time>2021-03-27T22:15:34.318Z</time>
      </trkpt>
      <trkpt lat="44.69119" lon="5.21685">
        <ele>286</ele>
        <time>2021-03-27T22:15:40.443Z</time>
      </trkpt>
      <trkpt lat="44.69081" lon="5.21747">
        <ele>276</ele>
        <time>2021-03-27T22:15:48.130Z</time>
      </trkpt>
      <trkpt lat="44.69052" lon="5.21824">
        <ele>280</ele>
        <time>2021-03-27T22:16:33.177Z</time>
      </trkpt>
      <trkpt lat="44.69038" lon="5.21909">
        <ele>278</ele>
        <time>2021-03-27T22:16:43.333Z</time>
      </trkpt>
      <trkpt lat="44.69026" lon="5.22002">
        <ele>277</ele>
        <time>2021-03-27T22:16:56.718Z</time>
      </trkpt>
      <trkpt lat="44.68873" lon="5.22839">
        <ele>283</ele>
        <time>2021-03-27T22:21:10.542Z</time>
      </trkpt>
      <trkpt lat="44.6886" lon="5.22927">
        <ele>286</ele>
        <time>2021-03-27T22:21:51.748Z</time>
      </trkpt>
      <trkpt lat="44.68862" lon="5.23012">
        <ele>290</ele>
        <time>2021-03-27T22:22:36.226Z</time>
      </trkpt>
      <trkpt lat="44.68878" lon="5.23109">
        <ele>296</ele>
        <time>2021-03-27T22:23:36.520Z</time>
      </trkpt>
      <trkpt lat="44.68883" lon="5.23176">
        <ele>294</ele>
        <time>2021-03-27T22:23:43.665Z</time>
      </trkpt>
      <trkpt lat="44.68882" lon="5.2345">
        <ele>294</ele>
        <time>2021-03-27T22:24:56.942Z</time>
      </trkpt>
      <trkpt lat="44.68891" lon="5.2352">
        <ele>294</ele>
        <time>2021-03-27T22:25:15.966Z</time>
      </trkpt>
      <trkpt lat="44.68905" lon="5.2358">
        <ele>294</ele>
        <time>2021-03-27T22:25:32.854Z</time>
      </trkpt>
      <trkpt lat="44.68922" lon="5.23635">
        <ele>291</ele>
        <time>2021-03-27T22:25:38.486Z</time>
      </trkpt>
      <trkpt lat="44.68996" lon="5.23763">
        <ele>292</ele>
        <time>2021-03-27T22:26:26.344Z</time>
      </trkpt>
      <trkpt lat="44.69031" lon="5.23784">
        <ele>297</ele>
        <time>2021-03-27T22:27:19.979Z</time>
      </trkpt>
      <trkpt lat="44.691" lon="5.23811">
        <ele>298</ele>
        <time>2021-03-27T22:27:50.871Z</time>
      </trkpt>
      <trkpt lat="44.6929" lon="5.23873">
        <ele>298</ele>
        <time>2021-03-27T22:29:04.241Z</time>
      </trkpt>
      <trkpt lat="44.69411" lon="5.23919">
        <ele>297</ele>
        <time>2021-03-27T22:29:31.562Z</time>
      </trkpt>
      <trkpt lat="44.69513" lon="5.23983">
        <ele>299</ele>
        <time>2021-03-27T22:30:21.818Z</time>
      </trkpt>
      <trkpt lat="44.6958" lon="5.24042">
        <ele>300</ele>
        <time>2021-03-27T22:30:55.449Z</time>
      </trkpt>
      <trkpt lat="44.69629" lon="5.24125">
        <ele>300</ele>
        <time>2021-03-27T22:31:24.300Z</time>
      </trkpt>
      <trkpt lat="44.69646" lon="5.24175">
        <ele>299</ele>
        <time>2021-03-27T22:31:31.239Z</time>
      </trkpt>
      <trkpt lat="44.69713" lon="5.24438">
        <ele>301</ele>
        <time>2021-03-27T22:32:53.535Z</time>
      </trkpt>
      <trkpt lat="44.69727" lon="5.24752">
        <ele>293</ele>
        <time>2021-03-27T22:33:28.873Z</time>
      </trkpt>
      <trkpt lat="44.6974" lon="5.24837">
        <ele>290</ele>
        <time>2021-03-27T22:33:37.542Z</time>
      </trkpt>
      <trkpt lat="44.69762" lon="5.24897">
        <ele>291</ele>
        <time>2021-03-27T22:33:59.853Z</time>
      </trkpt>
      <trkpt lat="44.69895" lon="5.2511">
        <ele>293</ele>
        <time>2021-03-27T22:35:23.241Z</time>
      </trkpt>
      <trkpt lat="44.70146" lon="5.25516">
        <ele>295</ele>
        <time>2021-03-27T22:37:54.352Z</time>
      </trkpt>
      <trkpt lat="44.70156" lon="5.25542">
        <ele>295</ele>
        <time>2021-03-27T22:38:02.256Z</time>
      </trkpt>
      <trkpt lat="44.70169" lon="5.25567">
        <ele>297</ele>
        <time>2021-03-27T22:38:22.028Z</time>
      </trkpt>
      <trkpt lat="44.70194" lon="5.25603">
        <ele>297</ele>
        <time>2021-03-27T22:38:35.485Z</time>
      </trkpt>
      <trkpt lat="44.70228" lon="5.25642">
        <ele>296</ele>
        <time>2021-03-27T22:38:43.438Z</time>
      </trkpt>
      <trkpt lat="44.70239" lon="5.25658">
        <ele>296</ele>
        <time>2021-03-27T22:38:49.390Z</time>
      </trkpt>
      <trkpt lat="44.70279" lon="5.25711">
        <ele>297</ele>
        <time>2021-03-27T22:39:14.194Z</time>
      </trkpt>
      <trkpt lat="44.70314" lon="5.25747">
        <ele>297</ele>
        <time>2021-03-27T22:39:30.503Z</time>
      </trkpt>
      <trkpt lat="44.70356" lon="5.25783">
        <ele>297</ele>
        <time>2021-03-27T22:39:49.003Z</time>
      </trkpt>
      <trkpt lat="44.70464" lon="5.25859">
        <ele>300</ele>
        <time>2021-03-27T22:40:47.810Z</time>
      </trkpt>
      <trkpt lat="44.70506" lon="5.2591">
        <ele>301</ele>
        <time>2021-03-27T22:41:12.806Z</time>
      </trkpt>
      <trkpt lat="44.70521" lon="5.25919">
        <ele>301</ele>
        <time>2021-03-27T22:41:18.940Z</time>
      </trkpt>
      <trkpt lat="44.70562" lon="5.25935">
        <ele>303</ele>
        <time>2021-03-27T22:41:46.388Z</time>
      </trkpt>
      <trkpt lat="44.70721" lon="5.26058">
        <ele>305</ele>
        <time>2021-03-27T22:43:02.308Z</time>
      </trkpt>
      <trkpt lat="44.71074" lon="5.26323">
        <ele>306</ele>
        <time>2021-03-27T22:45:36.339Z</time>
      </trkpt>
      <trkpt lat="44.71115" lon="5.26344">
        <ele>307</ele>
        <time>2021-03-27T22:45:57.113Z</time>
      </trkpt>
      <trkpt lat="44.71158" lon="5.26354">
        <ele>309</ele>
        <time>2021-03-27T22:46:25.028Z</time>
      </trkpt>
      <trkpt lat="44.72019" lon="5.26512">
        <ele>311</ele>
        <time>2021-03-27T22:51:58.692Z</time>
      </trkpt>
      <trkpt lat="44.72056" lon="5.26524">
        <ele>313</ele>
        <time>2021-03-27T22:52:24.112Z</time>
      </trkpt>
      <trkpt lat="44.72094" lon="5.26547">
        <ele>314</ele>
        <time>2021-03-27T22:52:44.097Z</time>
      </trkpt>
      <trkpt lat="44.72353" lon="5.26733">
        <ele>317</ele>
        <time>2021-03-27T22:54:44.892Z</time>
      </trkpt>
      <trkpt lat="44.72384" lon="5.2675">
        <ele>318</ele>
        <time>2021-03-27T22:55:02.161Z</time>
      </trkpt>
      <trkpt lat="44.72416" lon="5.26752">
        <ele>320</ele>
        <time>2021-03-27T22:55:25.100Z</time>
      </trkpt>
      <trkpt lat="44.72449" lon="5.26743">
        <ele>319</ele>
        <time>2021-03-27T22:55:30.748Z</time>
      </trkpt>
      <trkpt lat="44.72571" lon="5.26667">
        <ele>323</ele>
        <time>2021-03-27T22:56:39.935Z</time>
      </trkpt>
      <trkpt lat="44.72676" lon="5.26615">
        <ele>327</ele>
        <time>2021-03-27T22:57:42.352Z</time>
      </trkpt>
      <trkpt lat="44.72728" lon="5.266">
        <ele>325</ele>
        <time>2021-03-27T22:57:50.584Z</time>
      </trkpt>
      <trkpt lat="44.72779" lon="5.266">
        <ele>323</ele>
        <time>2021-03-27T22:57:58.376Z</time>
      </trkpt>
      <trkpt lat="44.72837" lon="5.26613">
        <ele>322</ele>
        <time>2021-03-27T22:58:09.770Z</time>
      </trkpt>
      <trkpt lat="44.73167" lon="5.26749">
        <ele>324</ele>
        <time>2021-03-27T23:00:26.397Z</time>
      </trkpt>
      <trkpt lat="44.73233" lon="5.26775">
        <ele>326</ele>
        <time>2021-03-27T23:01:01.583Z</time>
      </trkpt>
      <trkpt lat="44.73263" lon="5.26779">
        <ele>326</ele>
        <time>2021-03-27T23:01:12.918Z</time>
      </trkpt>
      <trkpt lat="44.73298" lon="5.26773">
        <ele>326</ele>
        <time>2021-03-27T23:01:26.182Z</time>
      </trkpt>
      <trkpt lat="44.73325" lon="5.26765">
        <ele>327</ele>
        <time>2021-03-27T23:01:41.719Z</time>
      </trkpt>
      <trkpt lat="44.73355" lon="5.2675">
        <ele>327</ele>
        <time>2021-03-27T23:01:53.695Z</time>
      </trkpt>
      <trkpt lat="44.73515" lon="5.26648">
        <ele>330</ele>
        <time>2021-03-27T23:03:12.020Z</time>
      </trkpt>
      <trkpt lat="44.73555" lon="5.26628">
        <ele>331</ele>
        <time>2021-03-27T23:03:32.381Z</time>
      </trkpt>
      <trkpt lat="44.73589" lon="5.26621">
        <ele>330</ele>
        <time>2021-03-27T23:03:38.195Z</time>
      </trkpt>
      <trkpt lat="44.74125" lon="5.26608">
        <ele>338</ele>
        <time>2021-03-27T23:07:31.781Z</time>
      </trkpt>
      <trkpt lat="44.7417" lon="5.26599">
        <ele>338</ele>
        <time>2021-03-27T23:07:48.878Z</time>
      </trkpt>
      <trkpt lat="44.74208" lon="5.26587">
        <ele>337</ele>
        <time>2021-03-27T23:07:55.715Z</time>
      </trkpt>
      <trkpt lat="44.7446" lon="5.26475">
        <ele>339</ele>
        <time>2021-03-27T23:09:42.525Z</time>
      </trkpt>
      <trkpt lat="44.74602" lon="5.26389">
        <ele>345</ele>
        <time>2021-03-27T23:11:12.752Z</time>
      </trkpt>
      <trkpt lat="44.7472" lon="5.26346">
        <ele>347</ele>
        <time>2021-03-27T23:12:06.713Z</time>
      </trkpt>
      <trkpt lat="44.74832" lon="5.26317">
        <ele>353</ele>
        <time>2021-03-27T23:13:22.959Z</time>
      </trkpt>
      <trkpt lat="44.74856" lon="5.26318">
        <ele>351</ele>
        <time>2021-03-27T23:13:26.131Z</time>
      </trkpt>
      <trkpt lat="44.74869" lon="5.26323">
        <ele>347</ele>
        <time>2021-03-27T23:13:27.911Z</time>
      </trkpt>
      <trkpt lat="44.74881" lon="5.2633">
        <ele>343</ele>
        <time>2021-03-27T23:13:29.627Z</time>
      </trkpt>
      <trkpt lat="44.74892" lon="5.26341">
        <ele>340</ele>
        <time>2021-03-27T23:13:31.409Z</time>
      </trkpt>
      <trkpt lat="44.74928" lon="5.2639">
        <ele>339</ele>
        <time>2021-03-27T23:13:40.787Z</time>
      </trkpt>
      <trkpt lat="44.74934" lon="5.26401">
        <ele>339</ele>
        <time>2021-03-27T23:13:44.492Z</time>
      </trkpt>
      <trkpt lat="44.74956" lon="5.26424">
        <ele>341</ele>
        <time>2021-03-27T23:14:05.712Z</time>
      </trkpt>
      <trkpt lat="44.74993" lon="5.26456">
        <ele>345</ele>
        <time>2021-03-27T23:14:45.159Z</time>
      </trkpt>
      <trkpt lat="44.75013" lon="5.26474">
        <ele>345</ele>
        <time>2021-03-27T23:14:54.088Z</time>
      </trkpt>
      <trkpt lat="44.75061" lon="5.26506">
        <ele>340</ele>
        <time>2021-03-27T23:15:01.103Z</time>
      </trkpt>
      <trkpt lat="44.75112" lon="5.26556">
        <ele>341</ele>
        <time>2021-03-27T23:15:28.521Z</time>
      </trkpt>
      <trkpt lat="44.75181" lon="5.26667">
        <ele>344</ele>
        <time>2021-03-27T23:16:21.941Z</time>
      </trkpt>
      <trkpt lat="44.75261" lon="5.26723">
        <ele>344</ele>
        <time>2021-03-27T23:16:55.548Z</time>
      </trkpt>
      <trkpt lat="44.75426" lon="5.26795">
        <ele>348</ele>
        <time>2021-03-27T23:18:18.021Z</time>
      </trkpt>
      <trkpt lat="44.75484" lon="5.26807">
        <ele>347</ele>
        <time>2021-03-27T23:18:29.389Z</time>
      </trkpt>
      <trkpt lat="44.75605" lon="5.26813">
        <ele>346</ele>
        <time>2021-03-27T23:18:55.679Z</time>
      </trkpt>
      <trkpt lat="44.75651" lon="5.26827">
        <ele>346</ele>
        <time>2021-03-27T23:19:13.382Z</time>
      </trkpt>
      <trkpt lat="44.75692" lon="5.26856">
        <ele>346</ele>
        <time>2021-03-27T23:19:30.641Z</time>
      </trkpt>
      <trkpt lat="44.75774" lon="5.26931">
        <ele>348</ele>
        <time>2021-03-27T23:20:15.902Z</time>
      </trkpt>
      <trkpt lat="44.75822" lon="5.26955">
        <ele>350</ele>
        <time>2021-03-27T23:20:45.824Z</time>
      </trkpt>
      <trkpt lat="44.75896" lon="5.2697">
        <ele>347</ele>
        <time>2021-03-27T23:20:57.149Z</time>
      </trkpt>
      <trkpt lat="44.76132" lon="5.2705">
        <ele>345</ele>
        <time>2021-03-27T23:21:49.871Z</time>
      </trkpt>
      <trkpt lat="44.76226" lon="5.27062">
        <ele>343</ele>
        <time>2021-03-27T23:22:07.301Z</time>
      </trkpt>
      <trkpt lat="44.76254" lon="5.27074">
        <ele>342</ele>
        <time>2021-03-27T23:22:12.000Z</time>
      </trkpt>
      <trkpt lat="44.76283" lon="5.27093">
        <ele>342</ele>
        <time>2021-03-27T23:22:24.032Z</time>
      </trkpt>
      <trkpt lat="44.76304" lon="5.27111">
        <ele>343</ele>
        <time>2021-03-27T23:22:38.771Z</time>
      </trkpt>
      <trkpt lat="44.76323" lon="5.27133">
        <ele>344</ele>
        <time>2021-03-27T23:22:53.514Z</time>
      </trkpt>
      <trkpt lat="44.76339" lon="5.27161">
        <ele>346</ele>
        <time>2021-03-27T23:23:14.132Z</time>
      </trkpt>
      <trkpt lat="44.76356" lon="5.27199">
        <ele>348</ele>
        <time>2021-03-27T23:23:37.014Z</time>
      </trkpt>
      <trkpt lat="44.76369" lon="5.27241">
        <ele>350</ele>
        <time>2021-03-27T23:24:00.152Z</time>
      </trkpt>
      <trkpt lat="44.76377" lon="5.27277">
        <ele>351</ele>
        <time>2021-03-27T23:24:15.463Z</time>
      </trkpt>
      <trkpt lat="44.76382" lon="5.27347">
        <ele>352</ele>
        <time>2021-03-27T23:24:38.473Z</time>
      </trkpt>
      <trkpt lat="44.76382" lon="5.27493">
        <ele>358</ele>
        <time>2021-03-27T23:25:50.369Z</time>
      </trkpt>
      <trkpt lat="44.76384" lon="5.27542">
        <ele>358</ele>
        <time>2021-03-27T23:26:03.478Z</time>
      </trkpt>
      <trkpt lat="44.76392" lon="5.27614">
        <ele>357</ele>
        <time>2021-03-27T23:26:13.244Z</time>
      </trkpt>
      <trkpt lat="44.76407" lon="5.27725">
        <ele>358</ele>
        <time>2021-03-27T23:26:47.312Z</time>
      </trkpt>
      <trkpt lat="44.7642" lon="5.27788">
        <ele>360</ele>
        <time>2021-03-27T23:27:16.193Z</time>
      </trkpt>
      <trkpt lat="44.76457" lon="5.27921">
        <ele>357</ele>
        <time>2021-03-27T23:27:33.265Z</time>
      </trkpt>
      <trkpt lat="44.76465" lon="5.27963">
        <ele>357</ele>
        <time>2021-03-27T23:27:44.879Z</time>
      </trkpt>
      <trkpt lat="44.76467" lon="5.28009">
        <ele>358</ele>
        <time>2021-03-27T23:28:01.973Z</time>
      </trkpt>
      <trkpt lat="44.76464" lon="5.28062">
        <ele>359</ele>
        <time>2021-03-27T23:28:20.722Z</time>
      </trkpt>
      <trkpt lat="44.76455" lon="5.28106">
        <ele>360</ele>
        <time>2021-03-27T23:28:37.749Z</time>
      </trkpt>
      <trkpt lat="44.76438" lon="5.28162">
        <ele>361</ele>
        <time>2021-03-27T23:28:58.387Z</time>
      </trkpt>
      <trkpt lat="44.76373" lon="5.28367">
        <ele>364</ele>
        <time>2021-03-27T23:30:10.841Z</time>
      </trkpt>
      <trkpt lat="44.76345" lon="5.28466">
        <ele>364</ele>
        <time>2021-03-27T23:30:39.303Z</time>
      </trkpt>
      <trkpt lat="44.76289" lon="5.28729">
        <ele>376</ele>
        <time>2021-03-27T23:32:58.036Z</time>
      </trkpt>
      <trkpt lat="44.76207" lon="5.28973">
        <ele>373</ele>
        <time>2021-03-27T23:33:35.853Z</time>
      </trkpt>
      <trkpt lat="44.76195" lon="5.29038">
        <ele>373</ele>
        <time>2021-03-27T23:33:53.792Z</time>
      </trkpt>
      <trkpt lat="44.76177" lon="5.29107">
        <ele>374</ele>
        <time>2021-03-27T23:34:17.605Z</time>
      </trkpt>
      <trkpt lat="44.76172" lon="5.29144">
        <ele>374</ele>
        <time>2021-03-27T23:34:27.665Z</time>
      </trkpt>
      <trkpt lat="44.7617" lon="5.2924">
        <ele>373</ele>
        <time>2021-03-27T23:34:41.285Z</time>
      </trkpt>
      <trkpt lat="44.76175" lon="5.29273">
        <ele>375</ele>
        <time>2021-03-27T23:35:01.472Z</time>
      </trkpt>
      <trkpt lat="44.76183" lon="5.293">
        <ele>375</ele>
        <time>2021-03-27T23:35:09.286Z</time>
      </trkpt>
      <trkpt lat="44.7622" lon="5.294">
        <ele>369</ele>
        <time>2021-03-27T23:35:19.862Z</time>
      </trkpt>
      <trkpt lat="44.7624" lon="5.29465">
        <ele>367</ele>
        <time>2021-03-27T23:35:27.508Z</time>
      </trkpt>
      <trkpt lat="44.76245" lon="5.29496">
        <ele>367</ele>
        <time>2021-03-27T23:35:35.999Z</time>
      </trkpt>
      <trkpt lat="44.76247" lon="5.29547">
        <ele>370</ele>
        <time>2021-03-27T23:36:06.363Z</time>
      </trkpt>
      <trkpt lat="44.76253" lon="5.29599">
        <ele>373</ele>
        <time>2021-03-27T23:36:37.037Z</time>
      </trkpt>
      <trkpt lat="44.76262" lon="5.29632">
        <ele>375</ele>
        <time>2021-03-27T23:36:57.533Z</time>
      </trkpt>
      <trkpt lat="44.76287" lon="5.2971">
        <ele>375</ele>
        <time>2021-03-27T23:37:20.390Z</time>
      </trkpt>
      <trkpt lat="44.76321" lon="5.29892">
        <ele>370</ele>
        <time>2021-03-27T23:37:41.165Z</time>
      </trkpt>
      <trkpt lat="44.76326" lon="5.29965">
        <ele>368</ele>
        <time>2021-03-27T23:37:49.184Z</time>
      </trkpt>
      <trkpt lat="44.76326" lon="5.30001">
        <ele>368</ele>
        <time>2021-03-27T23:37:58.799Z</time>
      </trkpt>
      <trkpt lat="44.76322" lon="5.3003">
        <ele>368</ele>
        <time>2021-03-27T23:38:06.689Z</time>
      </trkpt>
      <trkpt lat="44.76313" lon="5.3007">
        <ele>370</ele>
        <time>2021-03-27T23:38:28.763Z</time>
      </trkpt>
      <trkpt lat="44.76276" lon="5.30196">
        <ele>372</ele>
        <time>2021-03-27T23:39:13.681Z</time>
      </trkpt>
      <trkpt lat="44.76267" lon="5.30244">
        <ele>370</ele>
        <time>2021-03-27T23:39:18.293Z</time>
      </trkpt>
      <trkpt lat="44.76261" lon="5.30338">
        <ele>371</ele>
        <time>2021-03-27T23:39:47.492Z</time>
      </trkpt>
      <trkpt lat="44.76265" lon="5.30478">
        <ele>371</ele>
        <time>2021-03-27T23:40:24.916Z</time>
      </trkpt>
      <trkpt lat="44.76275" lon="5.30564">
        <ele>372</ele>
        <time>2021-03-27T23:40:52.236Z</time>
      </trkpt>
      <trkpt lat="44.7629" lon="5.30635">
        <ele>373</ele>
        <time>2021-03-27T23:41:16.193Z</time>
      </trkpt>
      <trkpt lat="44.76403" lon="5.30969">
        <ele>365</ele>
        <time>2021-03-27T23:42:00.007Z</time>
      </trkpt>
      <trkpt lat="44.76453" lon="5.31056">
        <ele>364</ele>
        <time>2021-03-27T23:42:16.305Z</time>
      </trkpt>
      <trkpt lat="44.76593" lon="5.31279">
        <ele>365</ele>
        <time>2021-03-27T23:43:39.409Z</time>
      </trkpt>
      <trkpt lat="44.76654" lon="5.31382">
        <ele>366</ele>
        <time>2021-03-27T23:44:19.044Z</time>
      </trkpt>
      <trkpt lat="44.76683" lon="5.31441">
        <ele>366</ele>
        <time>2021-03-27T23:44:38.209Z</time>
      </trkpt>
      <trkpt lat="44.7672" lon="5.31534">
        <ele>368</ele>
        <time>2021-03-27T23:45:15.773Z</time>
      </trkpt>
      <trkpt lat="44.76763" lon="5.31664">
        <ele>369</ele>
        <time>2021-03-27T23:45:57.861Z</time>
      </trkpt>
      <trkpt lat="44.76774" lon="5.31715">
        <ele>370</ele>
        <time>2021-03-27T23:46:16.642Z</time>
      </trkpt>
      <trkpt lat="44.76779" lon="5.31767">
        <ele>371</ele>
        <time>2021-03-27T23:46:35.226Z</time>
      </trkpt>
      <trkpt lat="44.76767" lon="5.3186">
        <ele>373</ele>
        <time>2021-03-27T23:47:09.948Z</time>
      </trkpt>
      <trkpt lat="44.76678" lon="5.32359">
        <ele>371</ele>
        <time>2021-03-27T23:49:16.723Z</time>
      </trkpt>
      <trkpt lat="44.76658" lon="5.32507">
        <ele>369</ele>
        <time>2021-03-27T23:49:37.061Z</time>
      </trkpt>
      <trkpt lat="44.76654" lon="5.3257">
        <ele>371</ele>
        <time>2021-03-27T23:50:05.578Z</time>
      </trkpt>
      <trkpt lat="44.76648" lon="5.3273">
        <ele>373</ele>
        <time>2021-03-27T23:50:56.583Z</time>
      </trkpt>
      <trkpt lat="44.76647" lon="5.32855">
        <ele>375</ele>
        <time>2021-03-27T23:51:38.653Z</time>
      </trkpt>
      <trkpt lat="44.76654" lon="5.33001">
        <ele>375</ele>
        <time>2021-03-27T23:52:17.735Z</time>
      </trkpt>
      <trkpt lat="44.76653" lon="5.33059">
        <ele>375</ele>
        <time>2021-03-27T23:52:33.229Z</time>
      </trkpt>
      <trkpt lat="44.76648" lon="5.33114">
        <ele>376</ele>
        <time>2021-03-27T23:52:52.529Z</time>
      </trkpt>
      <trkpt lat="44.76639" lon="5.33172">
        <ele>377</ele>
        <time>2021-03-27T23:53:12.787Z</time>
      </trkpt>
      <trkpt lat="44.76623" lon="5.33234">
        <ele>374</ele>
        <time>2021-03-27T23:53:18.569Z</time>
      </trkpt>
      <trkpt lat="44.76529" lon="5.33548">
        <ele>375</ele>
        <time>2021-03-27T23:54:53.163Z</time>
      </trkpt>
      <trkpt lat="44.76516" lon="5.33608">
        <ele>375</ele>
        <time>2021-03-27T23:55:09.917Z</time>
      </trkpt>
      <trkpt lat="44.76506" lon="5.33671">
        <ele>375</ele>
        <time>2021-03-27T23:55:27.158Z</time>
      </trkpt>
      <trkpt lat="44.76485" lon="5.33923">
        <ele>376</ele>
        <time>2021-03-27T23:56:38.555Z</time>
      </trkpt>
      <trkpt lat="44.76475" lon="5.34027">
        <ele>376</ele>
        <time>2021-03-27T23:57:06.585Z</time>
      </trkpt>
      <trkpt lat="44.76453" lon="5.34136">
        <ele>378</ele>
        <time>2021-03-27T23:57:45.773Z</time>
      </trkpt>
      <trkpt lat="44.76443" lon="5.34178">
        <ele>378</ele>
        <time>2021-03-27T23:57:57.605Z</time>
      </trkpt>
      <trkpt lat="44.76434" lon="5.34215">
        <ele>378</ele>
        <time>2021-03-27T23:58:08.051Z</time>
      </trkpt>
      <trkpt lat="44.76393" lon="5.34381">
        <ele>376</ele>
        <time>2021-03-27T23:58:32.558Z</time>
      </trkpt>
      <trkpt lat="44.76368" lon="5.34483">
        <ele>377</ele>
        <time>2021-03-27T23:59:05.292Z</time>
      </trkpt>
      <trkpt lat="44.76315" lon="5.34696">
        <ele>380</ele>
        <time>2021-03-28T00:00:18.050Z</time>
      </trkpt>
      <trkpt lat="44.76291" lon="5.34786">
        <ele>380</ele>
        <time>2021-03-28T00:00:43.727Z</time>
      </trkpt>
      <trkpt lat="44.76281" lon="5.34814">
        <ele>380</ele>
        <time>2021-03-28T00:00:52.099Z</time>
      </trkpt>
      <trkpt lat="44.76272" lon="5.34838">
        <ele>380</ele>
        <time>2021-03-28T00:00:59.348Z</time>
      </trkpt>
      <trkpt lat="44.76262" lon="5.34857">
        <ele>380</ele>
        <time>2021-03-28T00:01:05.665Z</time>
      </trkpt>
      <trkpt lat="44.76255" lon="5.3486">
        <ele>380</ele>
        <time>2021-03-28T00:01:08.417Z</time>
      </trkpt>
      <trkpt lat="44.76248" lon="5.34866">
        <ele>380</ele>
        <time>2021-03-28T00:01:11.500Z</time>
      </trkpt>
      <trkpt lat="44.76243" lon="5.34877">
        <ele>381</ele>
        <time>2021-03-28T00:01:21.321Z</time>
      </trkpt>
      <trkpt lat="44.76242" lon="5.34889">
        <ele>381</ele>
        <time>2021-03-28T00:01:24.548Z</time>
      </trkpt>
      <trkpt lat="44.76245" lon="5.34901">
        <ele>381</ele>
        <time>2021-03-28T00:01:27.946Z</time>
      </trkpt>
      <trkpt lat="44.76251" lon="5.3491">
        <ele>381</ele>
        <time>2021-03-28T00:01:31.244Z</time>
      </trkpt>
      <trkpt lat="44.76251" lon="5.34928">
        <ele>382</ele>
        <time>2021-03-28T00:01:41.559Z</time>
      </trkpt>
      <trkpt lat="44.76249" lon="5.34945">
        <ele>382</ele>
        <time>2021-03-28T00:01:46.161Z</time>
      </trkpt>
      <trkpt lat="44.76246" lon="5.34964">
        <ele>383</ele>
        <time>2021-03-28T00:01:56.812Z</time>
      </trkpt>
      <trkpt lat="44.76242" lon="5.34981">
        <ele>384</ele>
        <time>2021-03-28T00:02:07.108Z</time>
      </trkpt>
      <trkpt lat="44.76237" lon="5.35001">
        <ele>385</ele>
        <time>2021-03-28T00:02:18.205Z</time>
      </trkpt>
      <trkpt lat="44.76192" lon="5.35186">
        <ele>389</ele>
        <time>2021-03-28T00:03:29.159Z</time>
      </trkpt>
      <trkpt lat="44.76158" lon="5.35325">
        <ele>390</ele>
        <time>2021-03-28T00:04:12.204Z</time>
      </trkpt>
      <trkpt lat="44.76154" lon="5.35326">
        <ele>390</ele>
        <time>2021-03-28T00:04:13.732Z</time>
      </trkpt>
      <trkpt lat="44.76151" lon="5.35331">
        <ele>390</ele>
        <time>2021-03-28T00:04:15.480Z</time>
      </trkpt>
      <trkpt lat="44.76151" lon="5.35339">
        <ele>390</ele>
        <time>2021-03-28T00:04:17.617Z</time>
      </trkpt>
      <trkpt lat="44.76154" lon="5.35343">
        <ele>390</ele>
        <time>2021-03-28T00:04:19.171Z</time>
      </trkpt>
      <trkpt lat="44.76041" lon="5.35801">
        <ele>396</ele>
        <time>2021-03-28T00:06:53.278Z</time>
      </trkpt>
      <trkpt lat="44.75985" lon="5.36039">
        <ele>398</ele>
        <time>2021-03-28T00:08:07.930Z</time>
      </trkpt>
      <trkpt lat="44.75941" lon="5.36183">
        <ele>397</ele>
        <time>2021-03-28T00:08:31.865Z</time>
      </trkpt>
      <trkpt lat="44.75984" lon="5.36127">
        <ele>397</ele>
        <time>2021-03-28T00:08:53.896Z</time>
      </trkpt>
      <trkpt lat="44.76059" lon="5.36032">
        <ele>398</ele>
        <time>2021-03-28T00:09:35.631Z</time>
      </trkpt>
      <trkpt lat="44.76065" lon="5.36025">
        <ele>398</ele>
        <time>2021-03-28T00:09:38.562Z</time>
      </trkpt>
      <trkpt lat="44.76077" lon="5.36014">
        <ele>398</ele>
        <time>2021-03-28T00:09:43.948Z</time>
      </trkpt>
      <trkpt lat="44.76085" lon="5.36011">
        <ele>398</ele>
        <time>2021-03-28T00:09:47.062Z</time>
      </trkpt>
      <trkpt lat="44.76099" lon="5.36016">
        <ele>398</ele>
        <time>2021-03-28T00:09:52.495Z</time>
      </trkpt>
      <trkpt lat="44.76115" lon="5.36031">
        <ele>398</ele>
        <time>2021-03-28T00:09:59.725Z</time>
      </trkpt>
      <trkpt lat="44.76149" lon="5.36068">
        <ele>398</ele>
        <time>2021-03-28T00:10:15.888Z</time>
      </trkpt>
      <trkpt lat="44.76174" lon="5.36093">
        <ele>399</ele>
        <time>2021-03-28T00:10:32.335Z</time>
      </trkpt>
      <trkpt lat="44.76234" lon="5.36145">
        <ele>400</ele>
        <time>2021-03-28T00:11:02.797Z</time>
      </trkpt>
      <trkpt lat="44.76336" lon="5.36211">
        <ele>404</ele>
        <time>2021-03-28T00:12:05.483Z</time>
      </trkpt>
      <trkpt lat="44.76359" lon="5.36225">
        <ele>405</ele>
        <time>2021-03-28T00:12:20.340Z</time>
      </trkpt>
      <trkpt lat="44.7637" lon="5.36229">
        <ele>406</ele>
        <time>2021-03-28T00:12:30.292Z</time>
      </trkpt>
      <trkpt lat="44.7638" lon="5.3623">
        <ele>406</ele>
        <time>2021-03-28T00:12:34.063Z</time>
      </trkpt>
      <trkpt lat="44.76391" lon="5.36231">
        <ele>407</ele>
        <time>2021-03-28T00:12:43.951Z</time>
      </trkpt>
      <trkpt lat="44.76485" lon="5.36241">
        <ele>409</ele>
        <time>2021-03-28T00:13:27.966Z</time>
      </trkpt>
      <trkpt lat="44.76618" lon="5.36256">
        <ele>411</ele>
        <time>2021-03-28T00:14:26.144Z</time>
      </trkpt>
      <trkpt lat="44.76659" lon="5.36258">
        <ele>412</ele>
        <time>2021-03-28T00:14:46.012Z</time>
      </trkpt>
      <trkpt lat="44.7668" lon="5.36254">
        <ele>412</ele>
        <time>2021-03-28T00:14:53.984Z</time>
      </trkpt>
      <trkpt lat="44.76698" lon="5.36246">
        <ele>412</ele>
        <time>2021-03-28T00:15:01.084Z</time>
      </trkpt>
      <trkpt lat="44.76732" lon="5.36226">
        <ele>412</ele>
        <time>2021-03-28T00:15:14.944Z</time>
      </trkpt>
      <trkpt lat="44.76759" lon="5.3621">
        <ele>412</ele>
        <time>2021-03-28T00:15:25.963Z</time>
      </trkpt>
      <trkpt lat="44.76798" lon="5.36187">
        <ele>410</ele>
        <time>2021-03-28T00:15:31.960Z</time>
      </trkpt>
      <trkpt lat="44.76836" lon="5.36166">
        <ele>408</ele>
        <time>2021-03-28T00:15:37.663Z</time>
      </trkpt>
      <trkpt lat="44.76856" lon="5.36157">
        <ele>407</ele>
        <time>2021-03-28T00:15:40.632Z</time>
      </trkpt>
      <trkpt lat="44.76872" lon="5.36152">
        <ele>407</ele>
        <time>2021-03-28T00:15:46.797Z</time>
      </trkpt>
      <trkpt lat="44.76919" lon="5.36139">
        <ele>406</ele>
        <time>2021-03-28T00:15:55.674Z</time>
      </trkpt>
      <trkpt lat="44.76979" lon="5.36123">
        <ele>407</ele>
        <time>2021-03-28T00:16:22.699Z</time>
      </trkpt>
      <trkpt lat="44.76997" lon="5.36118">
        <ele>408</ele>
        <time>2021-03-28T00:16:35.134Z</time>
      </trkpt>
      <trkpt lat="44.7705" lon="5.36103">
        <ele>408</ele>
        <time>2021-03-28T00:16:55.469Z</time>
      </trkpt>
      <trkpt lat="44.77078" lon="5.36102">
        <ele>408</ele>
        <time>2021-03-28T00:17:06.005Z</time>
      </trkpt>
      <trkpt lat="44.77095" lon="5.36106">
        <ele>408</ele>
        <time>2021-03-28T00:17:12.489Z</time>
      </trkpt>
      <trkpt lat="44.77114" lon="5.36114">
        <ele>409</ele>
        <time>2021-03-28T00:17:25.569Z</time>
      </trkpt>
      <trkpt lat="44.77132" lon="5.36124">
        <ele>410</ele>
        <time>2021-03-28T00:17:38.438Z</time>
      </trkpt>
      <trkpt lat="44.77202" lon="5.36177">
        <ele>414</ele>
        <time>2021-03-28T00:18:30.825Z</time>
      </trkpt>
      <trkpt lat="44.77213" lon="5.36186">
        <ele>415</ele>
        <time>2021-03-28T00:18:41.122Z</time>
      </trkpt>
      <trkpt lat="44.77244" lon="5.36206">
        <ele>417</ele>
        <time>2021-03-28T00:19:04.898Z</time>
      </trkpt>
      <trkpt lat="44.77257" lon="5.36214">
        <ele>418</ele>
        <time>2021-03-28T00:19:15.676Z</time>
      </trkpt>
      <trkpt lat="44.77265" lon="5.36218">
        <ele>418</ele>
        <time>2021-03-28T00:19:18.869Z</time>
      </trkpt>
      <trkpt lat="44.77294" lon="5.36232">
        <ele>419</ele>
        <time>2021-03-28T00:19:35.315Z</time>
      </trkpt>
      <trkpt lat="44.77339" lon="5.36245">
        <ele>420</ele>
        <time>2021-03-28T00:19:56.899Z</time>
      </trkpt>
      <trkpt lat="44.77439" lon="5.36278">
        <ele>427</ele>
        <time>2021-03-28T00:21:13.576Z</time>
      </trkpt>
      <trkpt lat="44.7746" lon="5.36288">
        <ele>428</ele>
        <time>2021-03-28T00:21:27.704Z</time>
      </trkpt>
      <trkpt lat="44.77481" lon="5.36305">
        <ele>430</ele>
        <time>2021-03-28T00:21:47.958Z</time>
      </trkpt>
      <trkpt lat="44.7759" lon="5.36432">
        <ele>445</ele>
        <time>2021-03-28T00:24:14.988Z</time>
      </trkpt>
      <trkpt lat="44.77603" lon="5.36445">
        <ele>446</ele>
        <time>2021-03-28T00:24:26.428Z</time>
      </trkpt>
      <trkpt lat="44.77615" lon="5.36454">
        <ele>447</ele>
        <time>2021-03-28T00:24:37.002Z</time>
      </trkpt>
      <trkpt lat="44.77655" lon="5.36465">
        <ele>447</ele>
        <time>2021-03-28T00:24:52.333Z</time>
      </trkpt>
      <trkpt lat="44.77667" lon="5.36471">
        <ele>447</ele>
        <time>2021-03-28T00:24:57.123Z</time>
      </trkpt>
      <trkpt lat="44.77718" lon="5.3651">
        <ele>454</ele>
        <time>2021-03-28T00:26:08.171Z</time>
      </trkpt>
      <trkpt lat="44.77735" lon="5.36519">
        <ele>455</ele>
        <time>2021-03-28T00:26:20.526Z</time>
      </trkpt>
      <trkpt lat="44.77753" lon="5.36522">
        <ele>455</ele>
        <time>2021-03-28T00:26:27.344Z</time>
      </trkpt>
      <trkpt lat="44.77765" lon="5.36524">
        <ele>455</ele>
        <time>2021-03-28T00:26:31.890Z</time>
      </trkpt>
      <trkpt lat="44.77795" lon="5.3653">
        <ele>456</ele>
        <time>2021-03-28T00:26:48.226Z</time>
      </trkpt>
      <trkpt lat="44.77813" lon="5.36538">
        <ele>458</ele>
        <time>2021-03-28T00:27:07.829Z</time>
      </trkpt>
      <trkpt lat="44.77828" lon="5.36549">
        <ele>461</ele>
        <time>2021-03-28T00:27:32.365Z</time>
      </trkpt>
      <trkpt lat="44.77927" lon="5.36647">
        <ele>476</ele>
        <time>2021-03-28T00:30:06.801Z</time>
      </trkpt>
      <trkpt lat="44.77949" lon="5.36663">
        <ele>480</ele>
        <time>2021-03-28T00:30:42.724Z</time>
      </trkpt>
      <trkpt lat="44.77967" lon="5.36668">
        <ele>480</ele>
        <time>2021-03-28T00:30:49.625Z</time>
      </trkpt>
      <trkpt lat="44.78006" lon="5.36667">
        <ele>474</ele>
        <time>2021-03-28T00:30:54.778Z</time>
      </trkpt>
      <trkpt lat="44.78037" lon="5.36672">
        <ele>472</ele>
        <time>2021-03-28T00:30:58.628Z</time>
      </trkpt>
      <trkpt lat="44.7809" lon="5.36689">
        <ele>475</ele>
        <time>2021-03-28T00:31:35.640Z</time>
      </trkpt>
      <trkpt lat="44.78121" lon="5.36697">
        <ele>480</ele>
        <time>2021-03-28T00:32:21.368Z</time>
      </trkpt>
      <trkpt lat="44.78187" lon="5.36709">
        <ele>485</ele>
        <time>2021-03-28T00:33:13.769Z</time>
      </trkpt>
      <trkpt lat="44.78239" lon="5.36739">
        <ele>496</ele>
        <time>2021-03-28T00:34:35.299Z</time>
      </trkpt>
      <trkpt lat="44.78278" lon="5.36752">
        <ele>498</ele>
        <time>2021-03-28T00:35:01.643Z</time>
      </trkpt>
      <trkpt lat="44.78305" lon="5.36773">
        <ele>509</ele>
        <time>2021-03-28T00:35:46.392Z</time>
      </trkpt>
      <trkpt lat="44.78327" lon="5.36781">
        <ele>511</ele>
        <time>2021-03-28T00:36:06.295Z</time>
      </trkpt>
      <trkpt lat="44.78346" lon="5.3678">
        <ele>507</ele>
        <time>2021-03-28T00:36:08.807Z</time>
      </trkpt>
      <trkpt lat="44.78371" lon="5.36762">
        <ele>493</ele>
        <time>2021-03-28T00:36:12.515Z</time>
      </trkpt>
      <trkpt lat="44.78388" lon="5.36757">
        <ele>489</ele>
        <time>2021-03-28T00:36:14.809Z</time>
      </trkpt>
      <trkpt lat="44.78403" lon="5.36765">
        <ele>490</ele>
        <time>2021-03-28T00:36:26.287Z</time>
      </trkpt>
      <trkpt lat="44.78418" lon="5.3678">
        <ele>492</ele>
        <time>2021-03-28T00:36:45.954Z</time>
      </trkpt>
      <trkpt lat="44.78447" lon="5.36828">
        <ele>504</ele>
        <time>2021-03-28T00:37:50.869Z</time>
      </trkpt>
      <trkpt lat="44.78458" lon="5.36861">
        <ele>512</ele>
        <time>2021-03-28T00:38:28.414Z</time>
      </trkpt>
      <trkpt lat="44.7847" lon="5.36873">
        <ele>513</ele>
        <time>2021-03-28T00:38:39.384Z</time>
      </trkpt>
      <trkpt lat="44.7848" lon="5.36877">
        <ele>513</ele>
        <time>2021-03-28T00:38:43.295Z</time>
      </trkpt>
      <trkpt lat="44.78495" lon="5.36874">
        <ele>510</ele>
        <time>2021-03-28T00:38:45.296Z</time>
      </trkpt>
      <trkpt lat="44.78507" lon="5.36863">
        <ele>508</ele>
        <time>2021-03-28T00:38:47.187Z</time>
      </trkpt>
      <trkpt lat="44.7852" lon="5.36838">
        <ele>505</ele>
        <time>2021-03-28T00:38:50.092Z</time>
      </trkpt>
      <trkpt lat="44.78533" lon="5.3682">
        <ele>504</ele>
        <time>2021-03-28T00:38:52.515Z</time>
      </trkpt>
      <trkpt lat="44.78546" lon="5.3681">
        <ele>505</ele>
        <time>2021-03-28T00:39:03.520Z</time>
      </trkpt>
      <trkpt lat="44.78568" lon="5.36802">
        <ele>509</ele>
        <time>2021-03-28T00:39:36.486Z</time>
      </trkpt>
      <trkpt lat="44.78612" lon="5.36774">
        <ele>514</ele>
        <time>2021-03-28T00:40:25.414Z</time>
      </trkpt>
      <trkpt lat="44.78627" lon="5.3676">
        <ele>515</ele>
        <time>2021-03-28T00:40:37.697Z</time>
      </trkpt>
      <trkpt lat="44.78648" lon="5.36734">
        <ele>517</ele>
        <time>2021-03-28T00:40:59.107Z</time>
      </trkpt>
      <trkpt lat="44.78677" lon="5.36681">
        <ele>514</ele>
        <time>2021-03-28T00:41:05.012Z</time>
      </trkpt>
      <trkpt lat="44.78691" lon="5.36663">
        <ele>512</ele>
        <time>2021-03-28T00:41:07.515Z</time>
      </trkpt>
      <trkpt lat="44.78707" lon="5.36654">
        <ele>513</ele>
        <time>2021-03-28T00:41:19.478Z</time>
      </trkpt>
      <trkpt lat="44.78726" lon="5.36653">
        <ele>515</ele>
        <time>2021-03-28T00:41:39.067Z</time>
      </trkpt>
      <trkpt lat="44.78755" lon="5.36659">
        <ele>519</ele>
        <time>2021-03-28T00:42:21.596Z</time>
      </trkpt>
      <trkpt lat="44.78789" lon="5.36653">
        <ele>521</ele>
        <time>2021-03-28T00:42:45.442Z</time>
      </trkpt>
      <trkpt lat="44.78815" lon="5.36653">
        <ele>523</ele>
        <time>2021-03-28T00:43:06.206Z</time>
      </trkpt>
      <trkpt lat="44.78861" lon="5.36632">
        <ele>522</ele>
        <time>2021-03-28T00:43:15.188Z</time>
      </trkpt>
      <trkpt lat="44.78874" lon="5.36631">
        <ele>522</ele>
        <time>2021-03-28T00:43:20.086Z</time>
      </trkpt>
      <trkpt lat="44.78885" lon="5.36634">
        <ele>523</ele>
        <time>2021-03-28T00:43:30.007Z</time>
      </trkpt>
      <trkpt lat="44.7892" lon="5.36651">
        <ele>527</ele>
        <time>2021-03-28T00:44:09.303Z</time>
      </trkpt>
      <trkpt lat="44.78938" lon="5.36655">
        <ele>526</ele>
        <time>2021-03-28T00:44:11.724Z</time>
      </trkpt>
      <trkpt lat="44.78989" lon="5.36683">
        <ele>526</ele>
        <time>2021-03-28T00:44:32.314Z</time>
      </trkpt>
      <trkpt lat="44.79004" lon="5.36697">
        <ele>527</ele>
        <time>2021-03-28T00:44:44.597Z</time>
      </trkpt>
      <trkpt lat="44.79014" lon="5.36712">
        <ele>529</ele>
        <time>2021-03-28T00:45:05.789Z</time>
      </trkpt>
      <trkpt lat="44.79027" lon="5.36736">
        <ele>531</ele>
        <time>2021-03-28T00:45:25.472Z</time>
      </trkpt>
      <trkpt lat="44.79037" lon="5.36756">
        <ele>533</ele>
        <time>2021-03-28T00:45:45.408Z</time>
      </trkpt>
      <trkpt lat="44.79056" lon="5.36791">
        <ele>536</ele>
        <time>2021-03-28T00:46:14.833Z</time>
      </trkpt>
      <trkpt lat="44.79093" lon="5.36854">
        <ele>539</ele>
        <time>2021-03-28T00:46:53.433Z</time>
      </trkpt>
      <trkpt lat="44.79104" lon="5.3687">
        <ele>540</ele>
        <time>2021-03-28T00:47:04.821Z</time>
      </trkpt>
      <trkpt lat="44.79121" lon="5.36889">
        <ele>539</ele>
        <time>2021-03-28T00:47:07.932Z</time>
      </trkpt>
      <trkpt lat="44.79171" lon="5.36936">
        <ele>537</ele>
        <time>2021-03-28T00:47:17.670Z</time>
      </trkpt>
      <trkpt lat="44.79189" lon="5.36958">
        <ele>537</ele>
        <time>2021-03-28T00:47:26.633Z</time>
      </trkpt>
      <trkpt lat="44.7925" lon="5.37058">
        <ele>540</ele>
        <time>2021-03-28T00:48:16.469Z</time>
      </trkpt>
      <trkpt lat="44.79294" lon="5.37141">
        <ele>540</ele>
        <time>2021-03-28T00:48:44.125Z</time>
      </trkpt>
      <trkpt lat="44.79323" lon="5.37256">
        <ele>545</ele>
        <time>2021-03-28T00:49:44.133Z</time>
      </trkpt>
      <trkpt lat="44.79332" lon="5.3731">
        <ele>545</ele>
        <time>2021-03-28T00:49:58.940Z</time>
      </trkpt>
      <trkpt lat="44.79342" lon="5.37368">
        <ele>544</ele>
        <time>2021-03-28T00:50:06.549Z</time>
      </trkpt>
      <trkpt lat="44.79344" lon="5.37391">
        <ele>544</ele>
        <time>2021-03-28T00:50:12.735Z</time>
      </trkpt>
      <trkpt lat="44.79348" lon="5.37483">
        <ele>544</ele>
        <time>2021-03-28T00:50:37.340Z</time>
      </trkpt>
      <trkpt lat="44.79368" lon="5.37597">
        <ele>541</ele>
        <time>2021-03-28T00:50:50.478Z</time>
      </trkpt>
      <trkpt lat="44.79382" lon="5.37654">
        <ele>539</ele>
        <time>2021-03-28T00:50:56.580Z</time>
      </trkpt>
      <trkpt lat="44.79395" lon="5.37686">
        <ele>536</ele>
        <time>2021-03-28T00:51:00.037Z</time>
      </trkpt>
      <trkpt lat="44.79401" lon="5.37712">
        <ele>535</ele>
        <time>2021-03-28T00:51:02.689Z</time>
      </trkpt>
      <trkpt lat="44.79411" lon="5.37771">
        <ele>534</ele>
        <time>2021-03-28T00:51:10.454Z</time>
      </trkpt>
      <trkpt lat="44.79412" lon="5.37792">
        <ele>534</ele>
        <time>2021-03-28T00:51:16.073Z</time>
      </trkpt>
      <trkpt lat="44.79411" lon="5.37951">
        <ele>534</ele>
        <time>2021-03-28T00:51:58.519Z</time>
      </trkpt>
      <trkpt lat="44.79413" lon="5.37976">
        <ele>533</ele>
        <time>2021-03-28T00:52:00.869Z</time>
      </trkpt>
      <trkpt lat="44.79419" lon="5.38002">
        <ele>532</ele>
        <time>2021-03-28T00:52:03.521Z</time>
      </trkpt>
      <trkpt lat="44.79464" lon="5.38157">
        <ele>537</ele>
        <time>2021-03-28T00:53:16.256Z</time>
      </trkpt>
      <trkpt lat="44.79485" lon="5.38199">
        <ele>536</ele>
        <time>2021-03-28T00:53:22.536Z</time>
      </trkpt>
      <trkpt lat="44.79496" lon="5.38224">
        <ele>536</ele>
        <time>2021-03-28T00:53:30.388Z</time>
      </trkpt>
      <trkpt lat="44.79506" lon="5.38266">
        <ele>537</ele>
        <time>2021-03-28T00:53:47.076Z</time>
      </trkpt>
      <trkpt lat="44.79514" lon="5.38282">
        <ele>536</ele>
        <time>2021-03-28T00:53:48.911Z</time>
      </trkpt>
      <trkpt lat="44.79522" lon="5.38292">
        <ele>536</ele>
        <time>2021-03-28T00:53:52.934Z</time>
      </trkpt>
      <trkpt lat="44.79527" lon="5.38295">
        <ele>535</ele>
        <time>2021-03-28T00:53:53.651Z</time>
      </trkpt>
      <trkpt lat="44.79534" lon="5.38298">
        <ele>534</ele>
        <time>2021-03-28T00:53:54.618Z</time>
      </trkpt>
      <trkpt lat="44.79537" lon="5.38298">
        <ele>534</ele>
        <time>2021-03-28T00:53:55.746Z</time>
      </trkpt>
      <trkpt lat="44.79547" lon="5.38297">
        <ele>533</ele>
        <time>2021-03-28T00:53:57.071Z</time>
      </trkpt>
      <trkpt lat="44.79599" lon="5.38292">
        <ele>530</ele>
        <time>2021-03-28T00:54:03.845Z</time>
      </trkpt>
      <trkpt lat="44.79623" lon="5.38292">
        <ele>531</ele>
        <time>2021-03-28T00:54:18.446Z</time>
      </trkpt>
      <trkpt lat="44.79648" lon="5.38295">
        <ele>533</ele>
        <time>2021-03-28T00:54:38.939Z</time>
      </trkpt>
      <trkpt lat="44.79696" lon="5.38305">
        <ele>536</ele>
        <time>2021-03-28T00:55:13.535Z</time>
      </trkpt>
      <trkpt lat="44.79719" lon="5.38316">
        <ele>537</ele>
        <time>2021-03-28T00:55:28.203Z</time>
      </trkpt>
      <trkpt lat="44.79733" lon="5.38325">
        <ele>538</ele>
        <time>2021-03-28T00:55:39.427Z</time>
      </trkpt>
      <trkpt lat="44.79743" lon="5.38329">
        <ele>539</ele>
        <time>2021-03-28T00:55:49.233Z</time>
      </trkpt>
      <trkpt lat="44.79755" lon="5.38328">
        <ele>540</ele>
        <time>2021-03-28T00:55:59.336Z</time>
      </trkpt>
      <trkpt lat="44.79775" lon="5.38323">
        <ele>542</ele>
        <time>2021-03-28T00:56:18.913Z</time>
      </trkpt>
      <trkpt lat="44.79787" lon="5.38327">
        <ele>543</ele>
        <time>2021-03-28T00:56:29.099Z</time>
      </trkpt>
      <trkpt lat="44.79829" lon="5.38344">
        <ele>546</ele>
        <time>2021-03-28T00:57:01.844Z</time>
      </trkpt>
      <trkpt lat="44.79831" lon="5.38345">
        <ele>546</ele>
        <time>2021-03-28T00:57:02.642Z</time>
      </trkpt>
      <trkpt lat="44.79847" lon="5.38355">
        <ele>547</ele>
        <time>2021-03-28T00:57:14.719Z</time>
      </trkpt>
      <trkpt lat="44.79863" lon="5.38368">
        <ele>548</ele>
        <time>2021-03-28T00:57:27.206Z</time>
      </trkpt>
      <trkpt lat="44.79907" lon="5.38419">
        <ele>550</ele>
        <time>2021-03-28T00:57:58.794Z</time>
      </trkpt>
      <trkpt lat="44.79913" lon="5.38431">
        <ele>550</ele>
        <time>2021-03-28T00:58:02.713Z</time>
      </trkpt>
      <trkpt lat="44.79922" lon="5.38455">
        <ele>550</ele>
        <time>2021-03-28T00:58:09.958Z</time>
      </trkpt>
      <trkpt lat="44.79932" lon="5.38474">
        <ele>551</ele>
        <time>2021-03-28T00:58:21.738Z</time>
      </trkpt>
      <trkpt lat="44.80067" lon="5.38627">
        <ele>564</ele>
        <time>2021-03-28T01:00:38.051Z</time>
      </trkpt>
      <trkpt lat="44.80109" lon="5.38664">
        <ele>564</ele>
        <time>2021-03-28T01:00:56.683Z</time>
      </trkpt>
      <trkpt lat="44.80138" lon="5.38685">
        <ele>565</ele>
        <time>2021-03-28T01:01:13.740Z</time>
      </trkpt>
      <trkpt lat="44.80165" lon="5.3869">
        <ele>569</ele>
        <time>2021-03-28T01:01:53.252Z</time>
      </trkpt>
      <trkpt lat="44.80193" lon="5.38689">
        <ele>573</ele>
        <time>2021-03-28T01:02:33.891Z</time>
      </trkpt>
      <trkpt lat="44.80216" lon="5.38684">
        <ele>578</ele>
        <time>2021-03-28T01:03:07.657Z</time>
      </trkpt>
      <trkpt lat="44.80229" lon="5.38687">
        <ele>580</ele>
        <time>2021-03-28T01:03:26.771Z</time>
      </trkpt>
      <trkpt lat="44.80235" lon="5.38693">
        <ele>580</ele>
        <time>2021-03-28T01:03:29.538Z</time>
      </trkpt>
      <trkpt lat="44.80236" lon="5.38702">
        <ele>580</ele>
        <time>2021-03-28T01:03:31.970Z</time>
      </trkpt>
      <trkpt lat="44.80235" lon="5.38713">
        <ele>579</ele>
        <time>2021-03-28T01:03:33.009Z</time>
      </trkpt>
      <trkpt lat="44.8022" lon="5.38755">
        <ele>575</ele>
        <time>2021-03-28T01:03:37.416Z</time>
      </trkpt>
      <trkpt lat="44.80217" lon="5.38769">
        <ele>574</ele>
        <time>2021-03-28T01:03:38.787Z</time>
      </trkpt>
      <trkpt lat="44.80217" lon="5.38787">
        <ele>574</ele>
        <time>2021-03-28T01:03:43.591Z</time>
      </trkpt>
      <trkpt lat="44.80225" lon="5.38821">
        <ele>576</ele>
        <time>2021-03-28T01:04:04.179Z</time>
      </trkpt>
      <trkpt lat="44.80234" lon="5.38842">
        <ele>578</ele>
        <time>2021-03-28T01:04:24.098Z</time>
      </trkpt>
      <trkpt lat="44.8025" lon="5.38867">
        <ele>580</ele>
        <time>2021-03-28T01:04:44.267Z</time>
      </trkpt>
      <trkpt lat="44.8026" lon="5.38887">
        <ele>581</ele>
        <time>2021-03-28T01:04:56.285Z</time>
      </trkpt>
      <trkpt lat="44.80275" lon="5.38927">
        <ele>581</ele>
        <time>2021-03-28T01:05:08.360Z</time>
      </trkpt>
      <trkpt lat="44.80284" lon="5.38944">
        <ele>582</ele>
        <time>2021-03-28T01:05:19.455Z</time>
      </trkpt>
      <trkpt lat="44.80294" lon="5.38955">
        <ele>584</ele>
        <time>2021-03-28T01:05:37.860Z</time>
      </trkpt>
      <trkpt lat="44.80312" lon="5.38971">
        <ele>588</ele>
        <time>2021-03-28T01:06:08.738Z</time>
      </trkpt>
      <trkpt lat="44.8032" lon="5.38982">
        <ele>589</ele>
        <time>2021-03-28T01:06:18.654Z</time>
      </trkpt>
      <trkpt lat="44.80333" lon="5.39025">
        <ele>587</ele>
        <time>2021-03-28T01:06:22.870Z</time>
      </trkpt>
      <trkpt lat="44.80383" lon="5.39098">
        <ele>590</ele>
        <time>2021-03-28T01:07:06.669Z</time>
      </trkpt>
      <trkpt lat="44.80393" lon="5.39106">
        <ele>590</ele>
        <time>2021-03-28T01:07:10.995Z</time>
      </trkpt>
      <trkpt lat="44.80404" lon="5.39111">
        <ele>591</ele>
        <time>2021-03-28T01:07:20.988Z</time>
      </trkpt>
      <trkpt lat="44.80415" lon="5.39113">
        <ele>594</ele>
        <time>2021-03-28T01:07:37.081Z</time>
      </trkpt>
      <trkpt lat="44.80445" lon="5.39115">
        <ele>597</ele>
        <time>2021-03-28T01:08:06.429Z</time>
      </trkpt>
      <trkpt lat="44.80496" lon="5.39114">
        <ele>603</ele>
        <time>2021-03-28T01:09:06.677Z</time>
      </trkpt>
      <trkpt lat="44.80512" lon="5.3911">
        <ele>606</ele>
        <time>2021-03-28T01:09:30.254Z</time>
      </trkpt>
      <trkpt lat="44.80534" lon="5.391">
        <ele>610</ele>
        <time>2021-03-28T01:10:03.794Z</time>
      </trkpt>
      <trkpt lat="44.80593" lon="5.39063">
        <ele>623</ele>
        <time>2021-03-28T01:11:37.491Z</time>
      </trkpt>
      <trkpt lat="44.80628" lon="5.39046">
        <ele>630</ele>
        <time>2021-03-28T01:12:31.204Z</time>
      </trkpt>
      <trkpt lat="44.80645" lon="5.39042">
        <ele>633</ele>
        <time>2021-03-28T01:12:56.212Z</time>
      </trkpt>
      <trkpt lat="44.80651" lon="5.39046">
        <ele>632</ele>
        <time>2021-03-28T01:12:57.088Z</time>
      </trkpt>
      <trkpt lat="44.80656" lon="5.39056">
        <ele>631</ele>
        <time>2021-03-28T01:12:58.235Z</time>
      </trkpt>
      <trkpt lat="44.80657" lon="5.39071">
        <ele>628</ele>
        <time>2021-03-28T01:12:59.647Z</time>
      </trkpt>
      <trkpt lat="44.80654" lon="5.39084">
        <ele>625</ele>
        <time>2021-03-28T01:13:00.928Z</time>
      </trkpt>
      <trkpt lat="44.80643" lon="5.39115">
        <ele>622</ele>
        <time>2021-03-28T01:13:04.176Z</time>
      </trkpt>
      <trkpt lat="44.8064" lon="5.39129">
        <ele>620</ele>
        <time>2021-03-28T01:13:05.547Z</time>
      </trkpt>
      <trkpt lat="44.8065" lon="5.39201">
        <ele>619</ele>
        <time>2021-03-28T01:13:15.384Z</time>
      </trkpt>
      <trkpt lat="44.80655" lon="5.39221">
        <ele>619</ele>
        <time>2021-03-28T01:13:21.044Z</time>
      </trkpt>
      <trkpt lat="44.80679" lon="5.39279">
        <ele>620</ele>
        <time>2021-03-28T01:13:43.229Z</time>
      </trkpt>
      <trkpt lat="44.80687" lon="5.39295">
        <ele>617</ele>
        <time>2021-03-28T01:13:45.064Z</time>
      </trkpt>
      <trkpt lat="44.80699" lon="5.39306">
        <ele>618</ele>
        <time>2021-03-28T01:13:55.888Z</time>
      </trkpt>
      <trkpt lat="44.80706" lon="5.39308">
        <ele>620</ele>
        <time>2021-03-28T01:14:06.251Z</time>
      </trkpt>
      <trkpt lat="44.80738" lon="5.39308">
        <ele>632</ele>
        <time>2021-03-28T01:14:52.681Z</time>
      </trkpt>
      <trkpt lat="44.80758" lon="5.39313">
        <ele>636</ele>
        <time>2021-03-28T01:15:22.153Z</time>
      </trkpt>
      <trkpt lat="44.80768" lon="5.39318">
        <ele>636</ele>
        <time>2021-03-28T01:15:26.144Z</time>
      </trkpt>
      <trkpt lat="44.80816" lon="5.39354">
        <ele>628</ele>
        <time>2021-03-28T01:15:33.326Z</time>
      </trkpt>
      <trkpt lat="44.80824" lon="5.39357">
        <ele>628</ele>
        <time>2021-03-28T01:15:36.440Z</time>
      </trkpt>
      <trkpt lat="44.80869" lon="5.39357">
        <ele>637</ele>
        <time>2021-03-28T01:16:41.732Z</time>
      </trkpt>
      <trkpt lat="44.80882" lon="5.39359">
        <ele>639</ele>
        <time>2021-03-28T01:17:00.707Z</time>
      </trkpt>
      <trkpt lat="44.80942" lon="5.39378">
        <ele>639</ele>
        <time>2021-03-28T01:17:23.839Z</time>
      </trkpt>
      <trkpt lat="44.80959" lon="5.39382">
        <ele>640</ele>
        <time>2021-03-28T01:17:35.805Z</time>
      </trkpt>
      <trkpt lat="44.80975" lon="5.39383">
        <ele>642</ele>
        <time>2021-03-28T01:17:56.485Z</time>
      </trkpt>
      <trkpt lat="44.81051" lon="5.39383">
        <ele>652</ele>
        <time>2021-03-28T01:19:43.877Z</time>
      </trkpt>
      <trkpt lat="44.81062" lon="5.39385">
        <ele>652</ele>
        <time>2021-03-28T01:19:48.049Z</time>
      </trkpt>
      <trkpt lat="44.8116" lon="5.39439">
        <ele>648</ele>
        <time>2021-03-28T01:20:04.314Z</time>
      </trkpt>
      <trkpt lat="44.81181" lon="5.39444">
        <ele>647</ele>
        <time>2021-03-28T01:20:07.344Z</time>
      </trkpt>
      <trkpt lat="44.81193" lon="5.39442">
        <ele>646</ele>
        <time>2021-03-28T01:20:08.940Z</time>
      </trkpt>
      <trkpt lat="44.81201" lon="5.39439">
        <ele>646</ele>
        <time>2021-03-28T01:20:12.054Z</time>
      </trkpt>
      <trkpt lat="44.81216" lon="5.39426">
        <ele>647</ele>
        <time>2021-03-28T01:20:24.176Z</time>
      </trkpt>
      <trkpt lat="44.81221" lon="5.39417">
        <ele>648</ele>
        <time>2021-03-28T01:20:34.440Z</time>
      </trkpt>
      <trkpt lat="44.81226" lon="5.39405">
        <ele>650</ele>
        <time>2021-03-28T01:20:48.765Z</time>
      </trkpt>
      <trkpt lat="44.81237" lon="5.39356">
        <ele>657</ele>
        <time>2021-03-28T01:21:41.667Z</time>
      </trkpt>
      <trkpt lat="44.81248" lon="5.39327">
        <ele>661</ele>
        <time>2021-03-28T01:22:15.516Z</time>
      </trkpt>
      <trkpt lat="44.81255" lon="5.39316">
        <ele>663</ele>
        <time>2021-03-28T01:22:30.727Z</time>
      </trkpt>
      <trkpt lat="44.81318" lon="5.39231">
        <ele>673</ele>
        <time>2021-03-28T01:24:10.264Z</time>
      </trkpt>
      <trkpt lat="44.81326" lon="5.39224">
        <ele>673</ele>
        <time>2021-03-28T01:24:13.806Z</time>
      </trkpt>
      <trkpt lat="44.81331" lon="5.39222">
        <ele>672</ele>
        <time>2021-03-28T01:24:14.492Z</time>
      </trkpt>
      <trkpt lat="44.81341" lon="5.39222">
        <ele>673</ele>
        <time>2021-03-28T01:24:24.274Z</time>
      </trkpt>
      <trkpt lat="44.81351" lon="5.39228">
        <ele>673</ele>
        <time>2021-03-28T01:24:28.363Z</time>
      </trkpt>
      <trkpt lat="44.81357" lon="5.39238">
        <ele>671</ele>
        <time>2021-03-28T01:24:29.590Z</time>
      </trkpt>
      <trkpt lat="44.81365" lon="5.39256">
        <ele>667</ele>
        <time>2021-03-28T01:24:31.580Z</time>
      </trkpt>
      <trkpt lat="44.81371" lon="5.39266">
        <ele>664</ele>
        <time>2021-03-28T01:24:32.808Z</time>
      </trkpt>
      <trkpt lat="44.81379" lon="5.39272">
        <ele>663</ele>
        <time>2021-03-28T01:24:34.005Z</time>
      </trkpt>
      <trkpt lat="44.81389" lon="5.39274">
        <ele>663</ele>
        <time>2021-03-28T01:24:37.804Z</time>
      </trkpt>
      <trkpt lat="44.815" lon="5.39253">
        <ele>681</ele>
        <time>2021-03-28T01:27:20.302Z</time>
      </trkpt>
      <trkpt lat="44.81557" lon="5.39238">
        <ele>689</ele>
        <time>2021-03-28T01:28:44.434Z</time>
      </trkpt>
      <trkpt lat="44.81583" lon="5.39234">
        <ele>691</ele>
        <time>2021-03-28T01:29:05.247Z</time>
      </trkpt>
      <trkpt lat="44.81627" lon="5.39237">
        <ele>690</ele>
        <time>2021-03-28T01:29:13.242Z</time>
      </trkpt>
      <trkpt lat="44.81728" lon="5.39259">
        <ele>689</ele>
        <time>2021-03-28T01:29:34.982Z</time>
      </trkpt>
      <trkpt lat="44.81764" lon="5.39263">
        <ele>692</ele>
        <time>2021-03-28T01:30:05.306Z</time>
      </trkpt>
      <trkpt lat="44.81824" lon="5.39275">
        <ele>694</ele>
        <time>2021-03-28T01:30:37.979Z</time>
      </trkpt>
      <trkpt lat="44.81841" lon="5.39276">
        <ele>694</ele>
        <time>2021-03-28T01:30:44.380Z</time>
      </trkpt>
      <trkpt lat="44.81859" lon="5.39274">
        <ele>694</ele>
        <time>2021-03-28T01:30:51.172Z</time>
      </trkpt>
      <trkpt lat="44.81876" lon="5.39269">
        <ele>694</ele>
        <time>2021-03-28T01:30:57.704Z</time>
      </trkpt>
      <trkpt lat="44.81891" lon="5.39259">
        <ele>696</ele>
        <time>2021-03-28T01:31:17.996Z</time>
      </trkpt>
      <trkpt lat="44.81908" lon="5.39244">
        <ele>701</ele>
        <time>2021-03-28T01:31:47.095Z</time>
      </trkpt>
      <trkpt lat="44.81956" lon="5.39196">
        <ele>722</ele>
        <time>2021-03-28T01:33:12.482Z</time>
      </trkpt>
      <trkpt lat="44.81965" lon="5.39191">
        <ele>723</ele>
        <time>2021-03-28T01:33:22.267Z</time>
      </trkpt>
      <trkpt lat="44.81975" lon="5.39193">
        <ele>721</ele>
        <time>2021-03-28T01:33:23.601Z</time>
      </trkpt>
      <trkpt lat="44.81981" lon="5.392">
        <ele>719</ele>
        <time>2021-03-28T01:33:24.630Z</time>
      </trkpt>
      <trkpt lat="44.82" lon="5.39239">
        <ele>708</ele>
        <time>2021-03-28T01:33:29.063Z</time>
      </trkpt>
      <trkpt lat="44.82009" lon="5.39253">
        <ele>708</ele>
        <time>2021-03-28T01:33:34.104Z</time>
      </trkpt>
      <trkpt lat="44.82019" lon="5.39262">
        <ele>711</ele>
        <time>2021-03-28T01:33:51.318Z</time>
      </trkpt>
      <trkpt lat="44.82049" lon="5.39283">
        <ele>719</ele>
        <time>2021-03-28T01:34:39.917Z</time>
      </trkpt>
      <trkpt lat="44.82059" lon="5.39295">
        <ele>721</ele>
        <time>2021-03-28T01:34:58.971Z</time>
      </trkpt>
      <trkpt lat="44.82066" lon="5.39306">
        <ele>721</ele>
        <time>2021-03-28T01:35:02.914Z</time>
      </trkpt>
      <trkpt lat="44.82081" lon="5.39356">
        <ele>723</ele>
        <time>2021-03-28T01:35:28.568Z</time>
      </trkpt>
      <trkpt lat="44.82084" lon="5.39376">
        <ele>724</ele>
        <time>2021-03-28T01:35:39.459Z</time>
      </trkpt>
      <trkpt lat="44.82081" lon="5.39397">
        <ele>724</ele>
        <time>2021-03-28T01:35:45.174Z</time>
      </trkpt>
      <trkpt lat="44.82077" lon="5.39413">
        <ele>723</ele>
        <time>2021-03-28T01:35:46.764Z</time>
      </trkpt>
      <trkpt lat="44.82065" lon="5.39431">
        <ele>722</ele>
        <time>2021-03-28T01:35:49.050Z</time>
      </trkpt>
      <trkpt lat="44.82039" lon="5.39455">
        <ele>718</ele>
        <time>2021-03-28T01:35:53.156Z</time>
      </trkpt>
      <trkpt lat="44.82023" lon="5.3948">
        <ele>717</ele>
        <time>2021-03-28T01:35:56.715Z</time>
      </trkpt>
      <trkpt lat="44.82018" lon="5.39501">
        <ele>719</ele>
        <time>2021-03-28T01:36:17.652Z</time>
      </trkpt>
      <trkpt lat="44.82018" lon="5.39512">
        <ele>717</ele>
        <time>2021-03-28T01:36:18.683Z</time>
      </trkpt>
      <trkpt lat="44.82021" lon="5.39525">
        <ele>716</ele>
        <time>2021-03-28T01:36:19.964Z</time>
      </trkpt>
      <trkpt lat="44.82026" lon="5.39534">
        <ele>716</ele>
        <time>2021-03-28T01:36:23.014Z</time>
      </trkpt>
      <trkpt lat="44.82053" lon="5.39555">
        <ele>718</ele>
        <time>2021-03-28T01:36:45.485Z</time>
      </trkpt>
      <trkpt lat="44.82065" lon="5.3956">
        <ele>720</ele>
        <time>2021-03-28T01:37:03.640Z</time>
      </trkpt>
      <trkpt lat="44.82086" lon="5.39562">
        <ele>722</ele>
        <time>2021-03-28T01:37:23.277Z</time>
      </trkpt>
      <trkpt lat="44.82096" lon="5.39559">
        <ele>722</ele>
        <time>2021-03-28T01:37:27.123Z</time>
      </trkpt>
      <trkpt lat="44.82112" lon="5.39551">
        <ele>723</ele>
        <time>2021-03-28T01:37:38.981Z</time>
      </trkpt>
      <trkpt lat="44.82153" lon="5.39523">
        <ele>731</ele>
        <time>2021-03-28T01:38:45.082Z</time>
      </trkpt>
      <trkpt lat="44.82195" lon="5.395">
        <ele>743</ele>
        <time>2021-03-28T01:39:50.457Z</time>
      </trkpt>
      <trkpt lat="44.82207" lon="5.39496">
        <ele>745</ele>
        <time>2021-03-28T01:40:08.348Z</time>
      </trkpt>
      <trkpt lat="44.8222" lon="5.39495">
        <ele>746</ele>
        <time>2021-03-28T01:40:18.737Z</time>
      </trkpt>
      <trkpt lat="44.82271" lon="5.395">
        <ele>752</ele>
        <time>2021-03-28T01:41:18.932Z</time>
      </trkpt>
      <trkpt lat="44.82399" lon="5.39544">
        <ele>751</ele>
        <time>2021-03-28T01:41:47.802Z</time>
      </trkpt>
      <trkpt lat="44.82402" lon="5.39542">
        <ele>752</ele>
        <time>2021-03-28T01:41:52.617Z</time>
      </trkpt>
      <trkpt lat="44.82404" lon="5.39539">
        <ele>754</ele>
        <time>2021-03-28T01:41:56.854Z</time>
      </trkpt>
      <trkpt lat="44.82405" lon="5.39532">
        <ele>758</ele>
        <time>2021-03-28T01:42:04.203Z</time>
      </trkpt>
      <trkpt lat="44.82402" lon="5.39525">
        <ele>762</ele>
        <time>2021-03-28T01:42:12.619Z</time>
      </trkpt>
      <trkpt lat="44.82399" lon="5.39522">
        <ele>763</ele>
        <time>2021-03-28T01:42:17.956Z</time>
      </trkpt>
      <trkpt lat="44.82392" lon="5.39519">
        <ele>763</ele>
        <time>2021-03-28T01:42:20.708Z</time>
      </trkpt>
      <trkpt lat="44.82375" lon="5.39519">
        <ele>761</ele>
        <time>2021-03-28T01:42:22.954Z</time>
      </trkpt>
      <trkpt lat="44.82345" lon="5.39509">
        <ele>761</ele>
        <time>2021-03-28T01:42:34.550Z</time>
      </trkpt>
      <trkpt lat="44.82308" lon="5.39489">
        <ele>762</ele>
        <time>2021-03-28T01:42:53.937Z</time>
      </trkpt>
      <trkpt lat="44.82261" lon="5.39456">
        <ele>764</ele>
        <time>2021-03-28T01:43:24.273Z</time>
      </trkpt>
      <trkpt lat="44.82246" lon="5.39442">
        <ele>765</ele>
        <time>2021-03-28T01:43:36.555Z</time>
      </trkpt>
      <trkpt lat="44.82199" lon="5.39386">
        <ele>764</ele>
        <time>2021-03-28T01:43:48.607Z</time>
      </trkpt>
      <trkpt lat="44.8219" lon="5.39365">
        <ele>764</ele>
        <time>2021-03-28T01:43:55.153Z</time>
      </trkpt>
      <trkpt lat="44.82183" lon="5.39339">
        <ele>764</ele>
        <time>2021-03-28T01:44:02.573Z</time>
      </trkpt>
      <trkpt lat="44.82173" lon="5.39285">
        <ele>769</ele>
        <time>2021-03-28T01:44:54.646Z</time>
      </trkpt>
      <trkpt lat="44.82164" lon="5.39253">
        <ele>770</ele>
        <time>2021-03-28T01:45:09.346Z</time>
      </trkpt>
      <trkpt lat="44.82156" lon="5.39227">
        <ele>774</ele>
        <time>2021-03-28T01:45:38.513Z</time>
      </trkpt>
      <trkpt lat="44.82143" lon="5.39199">
        <ele>775</ele>
        <time>2021-03-28T01:45:53.053Z</time>
      </trkpt>
      <trkpt lat="44.82141" lon="5.3919">
        <ele>777</ele>
        <time>2021-03-28T01:46:02.759Z</time>
      </trkpt>
      <trkpt lat="44.82143" lon="5.39181">
        <ele>780</ele>
        <time>2021-03-28T01:46:12.465Z</time>
      </trkpt>
      <trkpt lat="44.82148" lon="5.39177">
        <ele>784</ele>
        <time>2021-03-28T01:46:20.807Z</time>
      </trkpt>
      <trkpt lat="44.82154" lon="5.3918">
        <ele>786</ele>
        <time>2021-03-28T01:46:30.044Z</time>
      </trkpt>
      <trkpt lat="44.82158" lon="5.39188">
        <ele>786</ele>
        <time>2021-03-28T01:46:32.655Z</time>
      </trkpt>
      <trkpt lat="44.82171" lon="5.39236">
        <ele>778</ele>
        <time>2021-03-28T01:46:37.469Z</time>
      </trkpt>
      <trkpt lat="44.8218" lon="5.39259">
        <ele>777</ele>
        <time>2021-03-28T01:46:39.970Z</time>
      </trkpt>
      <trkpt lat="44.82206" lon="5.3932">
        <ele>777</ele>
        <time>2021-03-28T01:46:58.959Z</time>
      </trkpt>
      <trkpt lat="44.82216" lon="5.39338">
        <ele>777</ele>
        <time>2021-03-28T01:47:05.059Z</time>
      </trkpt>
      <trkpt lat="44.82227" lon="5.3935">
        <ele>779</ele>
        <time>2021-03-28T01:47:25.239Z</time>
      </trkpt>
      <trkpt lat="44.82262" lon="5.39377">
        <ele>786</ele>
        <time>2021-03-28T01:48:23.127Z</time>
      </trkpt>
      <trkpt lat="44.82289" lon="5.39409">
        <ele>786</ele>
        <time>2021-03-28T01:48:36.396Z</time>
      </trkpt>
      <trkpt lat="44.82306" lon="5.3942">
        <ele>787</ele>
        <time>2021-03-28T01:48:48.985Z</time>
      </trkpt>
      <trkpt lat="44.82322" lon="5.39428">
        <ele>789</ele>
        <time>2021-03-28T01:49:09.079Z</time>
      </trkpt>
      <trkpt lat="44.82343" lon="5.39436">
        <ele>791</ele>
        <time>2021-03-28T01:49:28.809Z</time>
      </trkpt>
      <trkpt lat="44.82407" lon="5.39448">
        <ele>800</ele>
        <time>2021-03-28T01:51:02.487Z</time>
      </trkpt>
      <trkpt lat="44.82419" lon="5.39455">
        <ele>799</ele>
        <time>2021-03-28T01:51:04.202Z</time>
      </trkpt>
      <trkpt lat="44.82452" lon="5.39481">
        <ele>796</ele>
        <time>2021-03-28T01:51:09.195Z</time>
      </trkpt>
      <trkpt lat="44.82489" lon="5.39497">
        <ele>798</ele>
        <time>2021-03-28T01:51:34.934Z</time>
      </trkpt>
      <trkpt lat="44.82506" lon="5.39501">
        <ele>799</ele>
        <time>2021-03-28T01:51:46.900Z</time>
      </trkpt>
      <trkpt lat="44.82524" lon="5.39501">
        <ele>802</ele>
        <time>2021-03-28T01:52:13.017Z</time>
      </trkpt>
      <trkpt lat="44.8256" lon="5.39497">
        <ele>811</ele>
        <time>2021-03-28T01:53:05.412Z</time>
      </trkpt>
      <trkpt lat="44.82569" lon="5.39498">
        <ele>812</ele>
        <time>2021-03-28T01:53:15.279Z</time>
      </trkpt>
      <trkpt lat="44.82587" lon="5.39505">
        <ele>811</ele>
        <time>2021-03-28T01:53:17.788Z</time>
      </trkpt>
      <trkpt lat="44.8266" lon="5.39513">
        <ele>821</ele>
        <time>2021-03-28T01:55:04.026Z</time>
      </trkpt>
      <trkpt lat="44.82676" lon="5.39517">
        <ele>824</ele>
        <time>2021-03-28T01:55:27.603Z</time>
      </trkpt>
      <trkpt lat="44.827" lon="5.3953">
        <ele>826</ele>
        <time>2021-03-28T01:55:48.278Z</time>
      </trkpt>
      <trkpt lat="44.82713" lon="5.3954">
        <ele>827</ele>
        <time>2021-03-28T01:55:59.283Z</time>
      </trkpt>
      <trkpt lat="44.8272" lon="5.39549">
        <ele>827</ele>
        <time>2021-03-28T01:56:02.846Z</time>
      </trkpt>
      <trkpt lat="44.82724" lon="5.39559">
        <ele>826</ele>
        <time>2021-03-28T01:56:03.922Z</time>
      </trkpt>
      <trkpt lat="44.82725" lon="5.39571">
        <ele>824</ele>
        <time>2021-03-28T01:56:05.054Z</time>
      </trkpt>
      <trkpt lat="44.82723" lon="5.39582">
        <ele>822</ele>
        <time>2021-03-28T01:56:06.118Z</time>
      </trkpt>
      <trkpt lat="44.82717" lon="5.39592">
        <ele>821</ele>
        <time>2021-03-28T01:56:07.345Z</time>
      </trkpt>
      <trkpt lat="44.82707" lon="5.39606">
        <ele>822</ele>
        <time>2021-03-28T01:56:18.090Z</time>
      </trkpt>
      <trkpt lat="44.82694" lon="5.39619">
        <ele>821</ele>
        <time>2021-03-28T01:56:20.077Z</time>
      </trkpt>
      <trkpt lat="44.82663" lon="5.39645">
        <ele>817</ele>
        <time>2021-03-28T01:56:24.842Z</time>
      </trkpt>
      <trkpt lat="44.82649" lon="5.39662">
        <ele>816</ele>
        <time>2021-03-28T01:56:27.313Z</time>
      </trkpt>
      <trkpt lat="44.82633" lon="5.39683">
        <ele>816</ele>
        <time>2021-03-28T01:56:35.536Z</time>
      </trkpt>
      <trkpt lat="44.8261" lon="5.39727">
        <ele>820</ele>
        <time>2021-03-28T01:57:14.671Z</time>
      </trkpt>
      <trkpt lat="44.82602" lon="5.39736">
        <ele>820</ele>
        <time>2021-03-28T01:57:18.521Z</time>
      </trkpt>
      <trkpt lat="44.8259" lon="5.39745">
        <ele>818</ele>
        <time>2021-03-28T01:57:20.317Z</time>
      </trkpt>
      <trkpt lat="44.82563" lon="5.39759">
        <ele>810</ele>
        <time>2021-03-28T01:57:24.117Z</time>
      </trkpt>
      <trkpt lat="44.82558" lon="5.39767">
        <ele>808</ele>
        <time>2021-03-28T01:57:25.116Z</time>
      </trkpt>
      <trkpt lat="44.82556" lon="5.39776">
        <ele>807</ele>
        <time>2021-03-28T01:57:25.999Z</time>
      </trkpt>
      <trkpt lat="44.82557" lon="5.39781">
        <ele>807</ele>
        <time>2021-03-28T01:57:27.385Z</time>
      </trkpt>
      <trkpt lat="44.82562" lon="5.39788">
        <ele>809</ele>
        <time>2021-03-28T01:57:37.609Z</time>
      </trkpt>
      <trkpt lat="44.82568" lon="5.39788">
        <ele>812</ele>
        <time>2021-03-28T01:57:46.315Z</time>
      </trkpt>
      <trkpt lat="44.82575" lon="5.39783">
        <ele>814</ele>
        <time>2021-03-28T01:57:57.700Z</time>
      </trkpt>
      <trkpt lat="44.82592" lon="5.3976">
        <ele>821</ele>
        <time>2021-03-28T01:58:31.885Z</time>
      </trkpt>
      <trkpt lat="44.82615" lon="5.39744">
        <ele>827</ele>
        <time>2021-03-28T01:59:09.098Z</time>
      </trkpt>
      <trkpt lat="44.82626" lon="5.39731">
        <ele>827</ele>
        <time>2021-03-28T01:59:14.497Z</time>
      </trkpt>
      <trkpt lat="44.82652" lon="5.39694">
        <ele>826</ele>
        <time>2021-03-28T01:59:20.884Z</time>
      </trkpt>
      <trkpt lat="44.82667" lon="5.39682">
        <ele>829</ele>
        <time>2021-03-28T01:59:45.908Z</time>
      </trkpt>
      <trkpt lat="44.82725" lon="5.39641">
        <ele>836</ele>
        <time>2021-03-28T02:00:54.662Z</time>
      </trkpt>
      <trkpt lat="44.82773" lon="5.39594">
        <ele>839</ele>
        <time>2021-03-28T02:01:33.440Z</time>
      </trkpt>
      <trkpt lat="44.82801" lon="5.3957">
        <ele>845</ele>
        <time>2021-03-28T02:02:20.984Z</time>
      </trkpt>
      <trkpt lat="44.82807" lon="5.39563">
        <ele>848</ele>
        <time>2021-03-28T02:02:32.283Z</time>
      </trkpt>
      <trkpt lat="44.82809" lon="5.39553">
        <ele>850</ele>
        <time>2021-03-28T02:02:42.975Z</time>
      </trkpt>
      <trkpt lat="44.82809" lon="5.39543">
        <ele>851</ele>
        <time>2021-03-28T02:02:53.266Z</time>
      </trkpt>
      <trkpt lat="44.82807" lon="5.39532">
        <ele>852</ele>
        <time>2021-03-28T02:03:03.571Z</time>
      </trkpt>
      <trkpt lat="44.82802" lon="5.39523">
        <ele>853</ele>
        <time>2021-03-28T02:03:13.836Z</time>
      </trkpt>
      <trkpt lat="44.82775" lon="5.395">
        <ele>850</ele>
        <time>2021-03-28T02:03:18.003Z</time>
      </trkpt>
      <trkpt lat="44.8276" lon="5.39489">
        <ele>853</ele>
        <time>2021-03-28T02:03:42.535Z</time>
      </trkpt>
      <trkpt lat="44.8274" lon="5.39481">
        <ele>854</ele>
        <time>2021-03-28T02:03:56.041Z</time>
      </trkpt>
      <trkpt lat="44.82699" lon="5.39473">
        <ele>851</ele>
        <time>2021-03-28T02:04:01.508Z</time>
      </trkpt>
      <trkpt lat="44.82689" lon="5.39469">
        <ele>852</ele>
        <time>2021-03-28T02:04:11.314Z</time>
      </trkpt>
      <trkpt lat="44.8267" lon="5.39452">
        <ele>859</ele>
        <time>2021-03-28T02:04:43.964Z</time>
      </trkpt>
      <trkpt lat="44.82648" lon="5.39448">
        <ele>859</ele>
        <time>2021-03-28T02:04:52.308Z</time>
      </trkpt>
      <trkpt lat="44.82611" lon="5.39449">
        <ele>853</ele>
        <time>2021-03-28T02:04:57.197Z</time>
      </trkpt>
      <trkpt lat="44.82595" lon="5.39442">
        <ele>855</ele>
        <time>2021-03-28T02:05:17.401Z</time>
      </trkpt>
      <trkpt lat="44.82556" lon="5.3941">
        <ele>865</ele>
        <time>2021-03-28T02:06:22.872Z</time>
      </trkpt>
      <trkpt lat="44.82529" lon="5.39391">
        <ele>863</ele>
        <time>2021-03-28T02:06:26.534Z</time>
      </trkpt>
      <trkpt lat="44.82516" lon="5.39379">
        <ele>863</ele>
        <time>2021-03-28T02:06:32.379Z</time>
      </trkpt>
      <trkpt lat="44.82465" lon="5.39311">
        <ele>873</ele>
        <time>2021-03-28T02:08:14.226Z</time>
      </trkpt>
      <trkpt lat="44.82454" lon="5.39301">
        <ele>873</ele>
        <time>2021-03-28T02:08:19.149Z</time>
      </trkpt>
      <trkpt lat="44.82423" lon="5.3928">
        <ele>870</ele>
        <time>2021-03-28T02:08:23.692Z</time>
      </trkpt>
      <trkpt lat="44.8241" lon="5.39268">
        <ele>869</ele>
        <time>2021-03-28T02:08:25.606Z</time>
      </trkpt>
      <trkpt lat="44.82398" lon="5.39253">
        <ele>869</ele>
        <time>2021-03-28T02:08:31.639Z</time>
      </trkpt>
      <trkpt lat="44.82387" lon="5.39234">
        <ele>870</ele>
        <time>2021-03-28T02:08:43.671Z</time>
      </trkpt>
      <trkpt lat="44.82366" lon="5.39181">
        <ele>876</ele>
        <time>2021-03-28T02:09:46.148Z</time>
      </trkpt>
      <trkpt lat="44.82318" lon="5.39099">
        <ele>877</ele>
        <time>2021-03-28T02:10:18.437Z</time>
      </trkpt>
      <trkpt lat="44.82307" lon="5.39074">
        <ele>877</ele>
        <time>2021-03-28T02:10:26.287Z</time>
      </trkpt>
      <trkpt lat="44.82299" lon="5.39049">
        <ele>875</ele>
        <time>2021-03-28T02:10:28.856Z</time>
      </trkpt>
      <trkpt lat="44.82295" lon="5.39031">
        <ele>874</ele>
        <time>2021-03-28T02:10:30.624Z</time>
      </trkpt>
      <trkpt lat="44.82295" lon="5.39013">
        <ele>875</ele>
        <time>2021-03-28T02:10:40.935Z</time>
      </trkpt>
      <trkpt lat="44.82297" lon="5.38995">
        <ele>877</ele>
        <time>2021-03-28T02:10:59.685Z</time>
      </trkpt>
      <trkpt lat="44.82317" lon="5.38945">
        <ele>885</ele>
        <time>2021-03-28T02:11:58.760Z</time>
      </trkpt>
      <trkpt lat="44.82322" lon="5.38927">
        <ele>887</ele>
        <time>2021-03-28T02:12:18.655Z</time>
      </trkpt>
      <trkpt lat="44.82325" lon="5.38911">
        <ele>889</ele>
        <time>2021-03-28T02:12:35.686Z</time>
      </trkpt>
      <trkpt lat="44.82326" lon="5.38892">
        <ele>892</ele>
        <time>2021-03-28T02:12:55.294Z</time>
      </trkpt>
      <trkpt lat="44.82324" lon="5.38872">
        <ele>893</ele>
        <time>2021-03-28T02:13:06.122Z</time>
      </trkpt>
      <trkpt lat="44.82319" lon="5.38848">
        <ele>892</ele>
        <time>2021-03-28T02:13:08.450Z</time>
      </trkpt>
      <trkpt lat="44.82307" lon="5.38814">
        <ele>891</ele>
        <time>2021-03-28T02:13:12.650Z</time>
      </trkpt>
      <trkpt lat="44.82306" lon="5.38803">
        <ele>894</ele>
        <time>2021-03-28T02:13:24.063Z</time>
      </trkpt>
      <trkpt lat="44.82308" lon="5.38797">
        <ele>896</ele>
        <time>2021-03-28T02:13:30.886Z</time>
      </trkpt>
      <trkpt lat="44.82312" lon="5.38792">
        <ele>899</ele>
        <time>2021-03-28T02:13:38.642Z</time>
      </trkpt>
      <trkpt lat="44.82318" lon="5.38792">
        <ele>902</ele>
        <time>2021-03-28T02:13:47.348Z</time>
      </trkpt>
      <trkpt lat="44.82323" lon="5.38798">
        <ele>903</ele>
        <time>2021-03-28T02:13:56.875Z</time>
      </trkpt>
      <trkpt lat="44.82324" lon="5.38811">
        <ele>901</ele>
        <time>2021-03-28T02:13:58.100Z</time>
      </trkpt>
      <trkpt lat="44.82324" lon="5.38831">
        <ele>898</ele>
        <time>2021-03-28T02:13:59.974Z</time>
      </trkpt>
      <trkpt lat="44.82336" lon="5.38884">
        <ele>899</ele>
        <time>2021-03-28T02:14:19.305Z</time>
      </trkpt>
      <trkpt lat="44.82338" lon="5.38902">
        <ele>899</ele>
        <time>2021-03-28T02:14:24.166Z</time>
      </trkpt>
      <trkpt lat="44.82337" lon="5.3892">
        <ele>897</ele>
        <time>2021-03-28T02:14:25.858Z</time>
      </trkpt>
      <trkpt lat="44.82326" lon="5.38971">
        <ele>892</ele>
        <time>2021-03-28T02:14:30.852Z</time>
      </trkpt>
      <trkpt lat="44.82324" lon="5.38996">
        <ele>892</ele>
        <time>2021-03-28T02:14:37.565Z</time>
      </trkpt>
      <trkpt lat="44.82329" lon="5.39022">
        <ele>892</ele>
        <time>2021-03-28T02:14:44.752Z</time>
      </trkpt>
      <trkpt lat="44.82339" lon="5.39047">
        <ele>894</ele>
        <time>2021-03-28T02:15:04.331Z</time>
      </trkpt>
      <trkpt lat="44.8236" lon="5.39077">
        <ele>899</ele>
        <time>2021-03-28T02:15:47.709Z</time>
      </trkpt>
      <trkpt lat="44.82413" lon="5.39135">
        <ele>906</ele>
        <time>2021-03-28T02:16:56.234Z</time>
      </trkpt>
      <trkpt lat="44.8243" lon="5.39168">
        <ele>906</ele>
        <time>2021-03-28T02:17:07.116Z</time>
      </trkpt>
      <trkpt lat="44.82443" lon="5.39186">
        <ele>906</ele>
        <time>2021-03-28T02:17:13.970Z</time>
      </trkpt>
      <trkpt lat="44.82463" lon="5.39203">
        <ele>909</ele>
        <time>2021-03-28T02:17:45.582Z</time>
      </trkpt>
      <trkpt lat="44.82507" lon="5.39222">
        <ele>919</ele>
        <time>2021-03-28T02:18:52.351Z</time>
      </trkpt>
      <trkpt lat="44.82518" lon="5.39235">
        <ele>918</ele>
        <time>2021-03-28T02:18:54.247Z</time>
      </trkpt>
      <trkpt lat="44.82541" lon="5.39268">
        <ele>915</ele>
        <time>2021-03-28T02:18:58.581Z</time>
      </trkpt>
      <trkpt lat="44.82555" lon="5.39282">
        <ele>914</ele>
        <time>2021-03-28T02:19:00.799Z</time>
      </trkpt>
      <trkpt lat="44.82632" lon="5.39335">
        <ele>912</ele>
        <time>2021-03-28T02:19:16.238Z</time>
      </trkpt>
      <trkpt lat="44.82643" lon="5.39336">
        <ele>914</ele>
        <time>2021-03-28T02:19:32.232Z</time>
      </trkpt>
      <trkpt lat="44.82655" lon="5.39331">
        <ele>918</ele>
        <time>2021-03-28T02:19:50.387Z</time>
      </trkpt>
      <trkpt lat="44.82678" lon="5.39309">
        <ele>933</ele>
        <time>2021-03-28T02:20:30.713Z</time>
      </trkpt>
      <trkpt lat="44.82694" lon="5.39305">
        <ele>938</ele>
        <time>2021-03-28T02:20:54.291Z</time>
      </trkpt>
      <trkpt lat="44.82712" lon="5.39309">
        <ele>940</ele>
        <time>2021-03-28T02:21:13.989Z</time>
      </trkpt>
      <trkpt lat="44.82754" lon="5.39346">
        <ele>932</ele>
        <time>2021-03-28T02:21:20.530Z</time>
      </trkpt>
      <trkpt lat="44.82769" lon="5.39352">
        <ele>932</ele>
        <time>2021-03-28T02:21:26.396Z</time>
      </trkpt>
      <trkpt lat="44.82789" lon="5.39356">
        <ele>934</ele>
        <time>2021-03-28T02:21:45.967Z</time>
      </trkpt>
      <trkpt lat="44.82812" lon="5.39371">
        <ele>931</ele>
        <time>2021-03-28T02:21:49.314Z</time>
      </trkpt>
      <trkpt lat="44.82832" lon="5.39372">
        <ele>934</ele>
        <time>2021-03-28T02:22:18.351Z</time>
      </trkpt>
      <trkpt lat="44.82857" lon="5.39368">
        <ele>940</ele>
        <time>2021-03-28T02:22:54.858Z</time>
      </trkpt>
      <trkpt lat="44.82871" lon="5.39369">
        <ele>941</ele>
        <time>2021-03-28T02:23:05.577Z</time>
      </trkpt>
      <trkpt lat="44.82906" lon="5.39388">
        <ele>936</ele>
        <time>2021-03-28T02:23:10.531Z</time>
      </trkpt>
      <trkpt lat="44.82923" lon="5.39389">
        <ele>938</ele>
        <time>2021-03-28T02:23:30.607Z</time>
      </trkpt>
      <trkpt lat="44.82946" lon="5.39387">
        <ele>943</ele>
        <time>2021-03-28T02:24:04.042Z</time>
      </trkpt>
      <trkpt lat="44.83033" lon="5.39409">
        <ele>948</ele>
        <time>2021-03-28T02:25:04.795Z</time>
      </trkpt>
      <trkpt lat="44.83055" lon="5.39419">
        <ele>948</ele>
        <time>2021-03-28T02:25:13.490Z</time>
      </trkpt>
      <trkpt lat="44.83085" lon="5.39439">
        <ele>947</ele>
        <time>2021-03-28T02:25:19.043Z</time>
      </trkpt>
      <trkpt lat="44.83104" lon="5.39445">
        <ele>948</ele>
        <time>2021-03-28T02:25:31.965Z</time>
      </trkpt>
      <trkpt lat="44.83211" lon="5.39472">
        <ele>957</ele>
        <time>2021-03-28T02:27:03.032Z</time>
      </trkpt>
      <trkpt lat="44.8322" lon="5.39479">
        <ele>957</ele>
        <time>2021-03-28T02:27:06.898Z</time>
      </trkpt>
      <trkpt lat="44.83225" lon="5.39486">
        <ele>957</ele>
        <time>2021-03-28T02:27:09.549Z</time>
      </trkpt>
      <trkpt lat="44.83231" lon="5.39497">
        <ele>956</ele>
        <time>2021-03-28T02:27:10.849Z</time>
      </trkpt>
      <trkpt lat="44.83235" lon="5.39511">
        <ele>958</ele>
        <time>2021-03-28T02:27:26.379Z</time>
      </trkpt>
      <trkpt lat="44.83235" lon="5.39524">
        <ele>959</ele>
        <time>2021-03-28T02:27:36.209Z</time>
      </trkpt>
      <trkpt lat="44.83233" lon="5.39536">
        <ele>960</ele>
        <time>2021-03-28T02:27:46.155Z</time>
      </trkpt>
      <trkpt lat="44.83227" lon="5.39548">
        <ele>960</ele>
        <time>2021-03-28T02:27:50.072Z</time>
      </trkpt>
      <trkpt lat="44.83179" lon="5.3962">
        <ele>960</ele>
        <time>2021-03-28T02:28:16.434Z</time>
      </trkpt>
      <trkpt lat="44.83166" lon="5.39636">
        <ele>961</ele>
        <time>2021-03-28T02:28:28.408Z</time>
      </trkpt>
      <trkpt lat="44.83121" lon="5.39666">
        <ele>958</ele>
        <time>2021-03-28T02:28:34.738Z</time>
      </trkpt>
      <trkpt lat="44.83085" lon="5.39699">
        <ele>962</ele>
        <time>2021-03-28T02:29:14.116Z</time>
      </trkpt>
      <trkpt lat="44.83055" lon="5.39733">
        <ele>968</ele>
        <time>2021-03-28T02:30:09.961Z</time>
      </trkpt>
      <trkpt lat="44.83026" lon="5.39756">
        <ele>968</ele>
        <time>2021-03-28T02:30:22.477Z</time>
      </trkpt>
      <trkpt lat="44.82964" lon="5.39799">
        <ele>964</ele>
        <time>2021-03-28T02:30:31.434Z</time>
      </trkpt>
      <trkpt lat="44.82926" lon="5.39812">
        <ele>956</ele>
        <time>2021-03-28T02:30:36.599Z</time>
      </trkpt>
      <trkpt lat="44.82919" lon="5.3982">
        <ele>955</ele>
        <time>2021-03-28T02:30:37.789Z</time>
      </trkpt>
      <trkpt lat="44.82917" lon="5.39831">
        <ele>957</ele>
        <time>2021-03-28T02:30:49.475Z</time>
      </trkpt>
      <trkpt lat="44.82923" lon="5.39838">
        <ele>960</ele>
        <time>2021-03-28T02:31:00.774Z</time>
      </trkpt>
      <trkpt lat="44.82931" lon="5.39838">
        <ele>963</ele>
        <time>2021-03-28T02:31:12.382Z</time>
      </trkpt>
      <trkpt lat="44.82943" lon="5.39826">
        <ele>965</ele>
        <time>2021-03-28T02:31:33.727Z</time>
      </trkpt>
      <trkpt lat="44.82958" lon="5.39816">
        <ele>967</ele>
        <time>2021-03-28T02:31:54.019Z</time>
      </trkpt>
      <trkpt lat="44.83004" lon="5.39802">
        <ele>978</ele>
        <time>2021-03-28T02:33:02.300Z</time>
      </trkpt>
      <trkpt lat="44.83048" lon="5.39781">
        <ele>985</ele>
        <time>2021-03-28T02:34:09.699Z</time>
      </trkpt>
      <trkpt lat="44.83062" lon="5.39772">
        <ele>986</ele>
        <time>2021-03-28T02:34:20.922Z</time>
      </trkpt>
      <trkpt lat="44.83109" lon="5.39726">
        <ele>981</ele>
        <time>2021-03-28T02:34:28.479Z</time>
      </trkpt>
      <trkpt lat="44.83135" lon="5.39711">
        <ele>981</ele>
        <time>2021-03-28T02:34:39.046Z</time>
      </trkpt>
      <trkpt lat="44.83164" lon="5.39709">
        <ele>989</ele>
        <time>2021-03-28T02:35:21.174Z</time>
      </trkpt>
      <trkpt lat="44.83186" lon="5.39712">
        <ele>996</ele>
        <time>2021-03-28T02:35:53.244Z</time>
      </trkpt>
      <trkpt lat="44.83198" lon="5.39702">
        <ele>995</ele>
        <time>2021-03-28T02:35:55.085Z</time>
      </trkpt>
      <trkpt lat="44.83216" lon="5.3967">
        <ele>988</ele>
        <time>2021-03-28T02:35:58.911Z</time>
      </trkpt>
      <trkpt lat="44.83234" lon="5.39655">
        <ele>989</ele>
        <time>2021-03-28T02:36:12.470Z</time>
      </trkpt>
      <trkpt lat="44.83257" lon="5.39648">
        <ele>995</ele>
        <time>2021-03-28T02:36:46.610Z</time>
      </trkpt>
      <trkpt lat="44.83271" lon="5.3963">
        <ele>995</ele>
        <time>2021-03-28T02:36:53.737Z</time>
      </trkpt>
      <trkpt lat="44.83282" lon="5.39605">
        <ele>992</ele>
        <time>2021-03-28T02:36:56.493Z</time>
      </trkpt>
      <trkpt lat="44.83299" lon="5.39572">
        <ele>992</ele>
        <time>2021-03-28T02:37:07.374Z</time>
      </trkpt>
      <trkpt lat="44.83338" lon="5.39527">
        <ele>1001</ele>
        <time>2021-03-28T02:38:20.490Z</time>
      </trkpt>
      <trkpt lat="44.8336" lon="5.39492">
        <ele>1003</ele>
        <time>2021-03-28T02:38:43.885Z</time>
      </trkpt>
      <trkpt lat="44.83371" lon="5.39473">
        <ele>1006</ele>
        <time>2021-03-28T02:39:09.123Z</time>
      </trkpt>
      <trkpt lat="44.83384" lon="5.3944">
        <ele>1008</ele>
        <time>2021-03-28T02:39:30.132Z</time>
      </trkpt>
      <trkpt lat="44.83393" lon="5.3939">
        <ele>1013</ele>
        <time>2021-03-28T02:40:23.211Z</time>
      </trkpt>
      <trkpt lat="44.83394" lon="5.39367">
        <ele>1016</ele>
        <time>2021-03-28T02:40:46.921Z</time>
      </trkpt>
      <trkpt lat="44.83392" lon="5.39347">
        <ele>1018</ele>
        <time>2021-03-28T02:41:07.703Z</time>
      </trkpt>
      <trkpt lat="44.83388" lon="5.39331">
        <ele>1020</ele>
        <time>2021-03-28T02:41:25.159Z</time>
      </trkpt>
      <trkpt lat="44.83382" lon="5.3932">
        <ele>1022</ele>
        <time>2021-03-28T02:41:39.438Z</time>
      </trkpt>
      <trkpt lat="44.83375" lon="5.39313">
        <ele>1022</ele>
        <time>2021-03-28T02:41:42.666Z</time>
      </trkpt>
      <trkpt lat="44.83365" lon="5.39309">
        <ele>1021</ele>
        <time>2021-03-28T02:41:44.040Z</time>
      </trkpt>
      <trkpt lat="44.8331" lon="5.39303">
        <ele>1016</ele>
        <time>2021-03-28T02:41:51.326Z</time>
      </trkpt>
      <trkpt lat="44.83298" lon="5.39298">
        <ele>1018</ele>
        <time>2021-03-28T02:42:09.482Z</time>
      </trkpt>
      <trkpt lat="44.83287" lon="5.39289">
        <ele>1022</ele>
        <time>2021-03-28T02:42:27.934Z</time>
      </trkpt>
      <trkpt lat="44.83277" lon="5.39285">
        <ele>1024</ele>
        <time>2021-03-28T02:42:43.016Z</time>
      </trkpt>
      <trkpt lat="44.83269" lon="5.39284">
        <ele>1024</ele>
        <time>2021-03-28T02:42:46.037Z</time>
      </trkpt>
      <trkpt lat="44.83261" lon="5.39285">
        <ele>1024</ele>
        <time>2021-03-28T02:42:49.058Z</time>
      </trkpt>
      <trkpt lat="44.8323" lon="5.39303">
        <ele>1017</ele>
        <time>2021-03-28T02:42:53.487Z</time>
      </trkpt>
      <trkpt lat="44.83209" lon="5.39306">
        <ele>1016</ele>
        <time>2021-03-28T02:42:56.478Z</time>
      </trkpt>
      <trkpt lat="44.83172" lon="5.39288">
        <ele>1024</ele>
        <time>2021-03-28T02:43:53.268Z</time>
      </trkpt>
      <trkpt lat="44.83117" lon="5.39278">
        <ele>1026</ele>
        <time>2021-03-28T02:44:24.420Z</time>
      </trkpt>
      <trkpt lat="44.83102" lon="5.39272">
        <ele>1028</ele>
        <time>2021-03-28T02:44:45.472Z</time>
      </trkpt>
      <trkpt lat="44.83068" lon="5.3925">
        <ele>1035</ele>
        <time>2021-03-28T02:45:39.750Z</time>
      </trkpt>
      <trkpt lat="44.83059" lon="5.39248">
        <ele>1034</ele>
        <time>2021-03-28T02:45:40.953Z</time>
      </trkpt>
      <trkpt lat="44.83048" lon="5.3925">
        <ele>1032</ele>
        <time>2021-03-28T02:45:42.418Z</time>
      </trkpt>
      <trkpt lat="44.83026" lon="5.39245">
        <ele>1031</ele>
        <time>2021-03-28T02:45:45.649Z</time>
      </trkpt>
      <trkpt lat="44.83011" lon="5.39236">
        <ele>1033</ele>
        <time>2021-03-28T02:46:06.121Z</time>
      </trkpt>
      <trkpt lat="44.82982" lon="5.39213">
        <ele>1038</ele>
        <time>2021-03-28T02:46:54.398Z</time>
      </trkpt>
      <trkpt lat="44.82901" lon="5.39165">
        <ele>1040</ele>
        <time>2021-03-28T02:47:36.156Z</time>
      </trkpt>
      <trkpt lat="44.82878" lon="5.39159">
        <ele>1039</ele>
        <time>2021-03-28T02:47:39.613Z</time>
      </trkpt>
      <trkpt lat="44.8285" lon="5.39158">
        <ele>1035</ele>
        <time>2021-03-28T02:47:43.313Z</time>
      </trkpt>
      <trkpt lat="44.82831" lon="5.39154">
        <ele>1034</ele>
        <time>2021-03-28T02:47:45.927Z</time>
      </trkpt>
      <trkpt lat="44.82815" lon="5.39142">
        <ele>1038</ele>
        <time>2021-03-28T02:48:12.222Z</time>
      </trkpt>
      <trkpt lat="44.82786" lon="5.39118">
        <ele>1046</ele>
        <time>2021-03-28T02:49:01.011Z</time>
      </trkpt>
      <trkpt lat="44.82762" lon="5.39103">
        <ele>1049</ele>
        <time>2021-03-28T02:49:30.842Z</time>
      </trkpt>
      <trkpt lat="44.82667" lon="5.39052">
        <ele>1052</ele>
        <time>2021-03-28T02:50:23.247Z</time>
      </trkpt>
      <trkpt lat="44.82656" lon="5.39042">
        <ele>1051</ele>
        <time>2021-03-28T02:50:24.976Z</time>
      </trkpt>
      <trkpt lat="44.82644" lon="5.39026">
        <ele>1051</ele>
        <time>2021-03-28T02:50:31.189Z</time>
      </trkpt>
      <trkpt lat="44.82626" lon="5.38987">
        <ele>1056</ele>
        <time>2021-03-28T02:51:19.072Z</time>
      </trkpt>
      <trkpt lat="44.82603" lon="5.38929">
        <ele>1061</ele>
        <time>2021-03-28T02:52:08.084Z</time>
      </trkpt>
      <trkpt lat="44.82564" lon="5.38849">
        <ele>1058</ele>
        <time>2021-03-28T02:52:18.184Z</time>
      </trkpt>
      <trkpt lat="44.82557" lon="5.38832">
        <ele>1057</ele>
        <time>2021-03-28T02:52:20.025Z</time>
      </trkpt>
      <trkpt lat="44.82553" lon="5.38814">
        <ele>1055</ele>
        <time>2021-03-28T02:52:21.793Z</time>
      </trkpt>
      <trkpt lat="44.82552" lon="5.38796">
        <ele>1056</ele>
        <time>2021-03-28T02:52:32.115Z</time>
      </trkpt>
      <trkpt lat="44.82566" lon="5.38737">
        <ele>1069</ele>
        <time>2021-03-28T02:53:36.139Z</time>
      </trkpt>
      <trkpt lat="44.82566" lon="5.38714">
        <ele>1072</ele>
        <time>2021-03-28T02:53:59.808Z</time>
      </trkpt>
      <trkpt lat="44.82562" lon="5.38658">
        <ele>1076</ele>
        <time>2021-03-28T02:54:38.936Z</time>
      </trkpt>
      <trkpt lat="44.82556" lon="5.38607">
        <ele>1081</ele>
        <time>2021-03-28T02:55:32.136Z</time>
      </trkpt>
      <trkpt lat="44.82547" lon="5.38552">
        <ele>1089</ele>
        <time>2021-03-28T02:56:30.223Z</time>
      </trkpt>
      <trkpt lat="44.82533" lon="5.38513">
        <ele>1092</ele>
        <time>2021-03-28T02:56:59.624Z</time>
      </trkpt>
      <trkpt lat="44.82523" lon="5.38497">
        <ele>1091</ele>
        <time>2021-03-28T02:57:01.462Z</time>
      </trkpt>
      <trkpt lat="44.82511" lon="5.38483">
        <ele>1087</ele>
        <time>2021-03-28T02:57:03.519Z</time>
      </trkpt>
      <trkpt lat="44.82478" lon="5.38465">
        <ele>1077</ele>
        <time>2021-03-28T02:57:08.193Z</time>
      </trkpt>
      <trkpt lat="44.82465" lon="5.38454">
        <ele>1074</ele>
        <time>2021-03-28T02:57:10.196Z</time>
      </trkpt>
      <trkpt lat="44.82459" lon="5.38443">
        <ele>1074</ele>
        <time>2021-03-28T02:57:13.898Z</time>
      </trkpt>
      <trkpt lat="44.82457" lon="5.38432">
        <ele>1076</ele>
        <time>2021-03-28T02:57:25.585Z</time>
      </trkpt>
      <trkpt lat="44.82461" lon="5.38426">
        <ele>1079</ele>
        <time>2021-03-28T02:57:34.059Z</time>
      </trkpt>
      <trkpt lat="44.82464" lon="5.38425">
        <ele>1080</ele>
        <time>2021-03-28T02:57:38.531Z</time>
      </trkpt>
      <trkpt lat="44.8247" lon="5.38426">
        <ele>1083</ele>
        <time>2021-03-28T02:57:47.298Z</time>
      </trkpt>
      <trkpt lat="44.82476" lon="5.38434">
        <ele>1083</ele>
        <time>2021-03-28T02:57:50.404Z</time>
      </trkpt>
      <trkpt lat="44.82487" lon="5.38453">
        <ele>1083</ele>
        <time>2021-03-28T02:57:56.948Z</time>
      </trkpt>
      <trkpt lat="44.82516" lon="5.38465">
        <ele>1095</ele>
        <time>2021-03-28T02:58:40.800Z</time>
      </trkpt>
      <trkpt lat="44.82526" lon="5.38472">
        <ele>1098</ele>
        <time>2021-03-28T02:58:56.999Z</time>
      </trkpt>
      <trkpt lat="44.82535" lon="5.38482">
        <ele>1101</ele>
        <time>2021-03-28T02:59:13.625Z</time>
      </trkpt>
      <trkpt lat="44.82557" lon="5.38519">
        <ele>1104</ele>
        <time>2021-03-28T02:59:43.514Z</time>
      </trkpt>
      <trkpt lat="44.82565" lon="5.38537">
        <ele>1103</ele>
        <time>2021-03-28T02:59:45.341Z</time>
      </trkpt>
      <trkpt lat="44.82571" lon="5.3856">
        <ele>1100</ele>
        <time>2021-03-28T02:59:47.637Z</time>
      </trkpt>
      <trkpt lat="44.8258" lon="5.38612">
        <ele>1095</ele>
        <time>2021-03-28T02:59:52.652Z</time>
      </trkpt>
      <trkpt lat="44.82595" lon="5.3867">
        <ele>1096</ele>
        <time>2021-03-28T03:00:13.480Z</time>
      </trkpt>
      <trkpt lat="44.826" lon="5.38704">
        <ele>1096</ele>
        <time>2021-03-28T03:00:22.744Z</time>
      </trkpt>
      <trkpt lat="44.826" lon="5.38779">
        <ele>1089</ele>
        <time>2021-03-28T03:00:29.770Z</time>
      </trkpt>
      <trkpt lat="44.82604" lon="5.38799">
        <ele>1091</ele>
        <time>2021-03-28T03:00:51.155Z</time>
      </trkpt>
    </trkseg>
  </trk>
</gpx>